[[{"header":{"parameterUnit":"m.s-1","parameterCategory":1,"la1":30.6,"la2":29.2853,"lo1":-89.7004,"lo2":-87.6739,"dy":0.0162,"dx":0.0183,"nx":112,"ny":82,"refTime":"2026-04-01T00:00:00:Z","depth":0,"parameterNumber":2,"parameterNumberName":"U-component_of_WINDS"},"data":[0.0,0.0,0.0,0.0,0.0,0.0,0.0,0.0,0.0,0.0,0.0,0.0,0.0,0.0,0.0,0.0,0.0,0.0,0.0,0.0,0.0,0.0,0.0,0.0,0.0,0.0,0.0,0.0,0.0,0.0,0.0,0.0,0.0,0.0,0.0,0.0,0.0,0.0,0.0,0.0,0.0,0.0,0.0,0.0,0.0,0.0,0.0,0.0,0.0,0.0,0.0,0.0,0.0,0.0,0.0,0.0,0.0,0.0,0.0,0.0,0.0,0.0,0.0,0.0,0.0,0.0,0.0,0.0,0.0,0.0,0.0,0.0,0.0,0.0,0.0,0.0,0.0,0.0,0.0,0.0,0.0,0.0,0.0,0.0,0.0,0.0,0.0,0.0,0.0,0.0,0.0,-4.5828,-4.8946,-5.0747,-5.0637,-4.9077,-4.6507,-4.2727,0.0,0.0,0.0,0.0,0.0,0.0,0.0,0.0,0.0,0.0,0.0,0.0,0.0,0.0,0.0,0.0,0.0,0.0,0.0,0.0,0.0,0.0,0.0,0.0,0.0,0.0,0.0,0.0,0.0,0.0,0.0,0.0,0.0,0.0,0.0,0.0,0.0,0.0,0.0,0.0,0.0,0.0,0.0,0.0,0.0,0.0,0.0,0.0,0.0,0.0,0.0,0.0,0.0,0.0,0.0,0.0,0.0,0.0,0.0,0.0,0.0,0.0,0.0,0.0,0.0,0.0,0.0,0.0,0.0,0.0,0.0,0.0,0.0,0.0,0.0,0.0,0.0,0.0,0.0,0.0,0.0,0.0,0.0,0.0,0.0,0.0,0.0,0.0,0.0,0.0,0.0,0.0,0.0,0.0,0.0,0.0,0.0,0.0,0.0,0.0,0.0,0.0,0.0,0.0,-4.1413,-4.6626,-4.9348,-5.0508,-4.9849,-4.8251,-4.614,-4.3496,0.0,0.0,0.0,0.0,0.0,0.0,0.0,0.0,0.0,0.0,0.0,0.0,0.0,0.0,0.0,0.0,0.0,0.0,0.0,0.0,0.0,0.0,0.0,0.0,0.0,0.0,0.0,0.0,0.0,0.0,0.0,0.0,0.0,0.0,0.0,0.0,0.0,0.0,0.0,0.0,0.0,0.0,0.0,0.0,0.0,0.0,0.0,0.0,0.0,0.0,0.0,0.0,0.0,0.0,0.0,0.0,0.0,0.0,0.0,0.0,0.0,0.0,0.0,0.0,0.0,0.0,0.0,0.0,0.0,0.0,0.0,0.0,0.0,0.0,0.0,0.0,0.0,0.0,0.0,0.0,0.0,0.0,0.0,0.0,0.0,0.0,0.0,0.0,0.0,0.0,0.0,0.0,0.0,0.0,0.0,0.0,0.0,0.0,0.0,0.0,0.0,0.0,0.0,-4.0416,-4.2325,-4.7048,-4.8388,-4.88,-4.8436,-4.7198,-4.5241,-4.2378,-3.9918,0.0,0.0,0.0,0.0,0.0,0.0,0.0,0.0,0.0,0.0,0.0,0.0,0.0,0.0,0.0,0.0,0.0,0.0,0.0,0.0,0.0,0.0,0.0,0.0,0.0,0.0,0.0,0.0,0.0,0.0,0.0,0.0,0.0,0.0,0.0,0.0,0.0,0.0,0.0,0.0,0.0,0.0,0.0,0.0,0.0,0.0,0.0,0.0,0.0,0.0,0.0,0.0,0.0,0.0,0.0,0.0,0.0,0.0,0.0,0.0,0.0,0.0,0.0,0.0,0.0,0.0,0.0,0.0,0.0,0.0,0.0,0.0,0.0,0.0,0.0,0.0,0.0,0.0,0.0,0.0,0.0,0.0,0.0,0.0,0.0,0.0,0.0,0.0,0.0,0.0,0.0,0.0,0.0,0.0,0.0,0.0,0.0,0.0,0.0,0.0,0.0,0.0,-4.2089,-4.3634,-4.6828,-4.7033,-4.6906,-4.6906,-4.5629,-4.3724,-4.1057,-3.8389,0.0,0.0,0.0,0.0,0.0,0.0,0.0,0.0,0.0,0.0,0.0,0.0,0.0,0.0,0.0,0.0,0.0,0.0,0.0,0.0,0.0,0.0,0.0,0.0,0.0,0.0,0.0,0.0,0.0,0.0,0.0,0.0,0.0,0.0,0.0,0.0,0.0,0.0,0.0,0.0,0.0,0.0,0.0,0.0,0.0,0.0,0.0,0.0,0.0,0.0,0.0,0.0,0.0,0.0,0.0,0.0,0.0,0.0,0.0,0.0,0.0,0.0,0.0,0.0,0.0,0.0,0.0,0.0,0.0,0.0,0.0,0.0,0.0,0.0,0.0,0.0,0.0,0.0,0.0,0.0,0.0,0.0,0.0,0.0,0.0,0.0,0.0,0.0,0.0,0.0,0.0,0.0,0.0,0.0,0.0,0.0,0.0,0.0,0.0,0.0,0.0,0.0,-4.1815,-4.4378,-4.5518,-4.5545,-4.5448,-4.5448,-4.3156,-4.1305,-4.0311,-3.7054,0.0,0.0,0.0,0.0,0.0,0.0,0.0,0.0,0.0,0.0,0.0,0.0,0.0,0.0,0.0,0.0,0.0,0.0,0.0,0.0,0.0,0.0,0.0,0.0,0.0,0.0,0.0,0.0,0.0,0.0,0.0,0.0,0.0,0.0,0.0,0.0,0.0,0.0,0.0,0.0,0.0,0.0,0.0,0.0,0.0,0.0,0.0,0.0,0.0,0.0,0.0,0.0,0.0,0.0,0.0,0.0,0.0,0.0,0.0,0.0,0.0,0.0,0.0,0.0,0.0,0.0,0.0,0.0,0.0,0.0,0.0,0.0,0.0,0.0,0.0,0.0,0.0,0.0,0.0,0.0,0.0,0.0,0.0,0.0,0.0,0.0,0.0,0.0,0.0,0.0,0.0,0.0,0.0,0.0,0.0,0.0,0.0,0.0,0.0,0.0,0.0,0.0,-3.9629,-4.1577,0.0,-4.3838,-4.3844,-4.3366,-4.2749,-4.1137,-3.815,0.0,0.0,0.0,0.0,0.0,0.0,0.0,0.0,0.0,0.0,0.0,0.0,0.0,0.0,0.0,0.0,0.0,0.0,0.0,0.0,0.0,0.0,0.0,0.0,0.0,0.0,0.0,0.0,0.0,0.0,0.0,0.0,0.0,0.0,0.0,0.0,0.0,0.0,0.0,0.0,0.0,0.0,0.0,0.0,0.0,0.0,0.0,0.0,0.0,0.0,0.0,0.0,0.0,0.0,0.0,0.0,0.0,0.0,0.0,0.0,0.0,0.0,0.0,0.0,0.0,0.0,0.0,0.0,0.0,0.0,0.0,0.0,0.0,0.0,0.0,0.0,0.0,0.0,0.0,0.0,0.0,0.0,0.0,0.0,0.0,0.0,0.0,0.0,0.0,0.0,0.0,0.0,0.0,0.0,0.0,0.0,0.0,0.0,0.0,0.0,0.0,0.0,-3.6504,-3.851,-4.046,0.0,-4.2834,-4.2754,-4.2205,-4.1783,-4.002,-3.638,0.0,0.0,0.0,0.0,0.0,0.0,0.0,0.0,0.0,0.0,0.0,0.0,0.0,0.0,0.0,0.0,0.0,0.0,0.0,0.0,0.0,0.0,0.0,0.0,0.0,0.0,0.0,0.0,0.0,0.0,0.0,0.0,0.0,0.0,0.0,0.0,0.0,0.0,0.0,0.0,0.0,0.0,0.0,0.0,0.0,0.0,0.0,0.0,0.0,0.0,0.0,0.0,0.0,0.0,0.0,0.0,0.0,0.0,0.0,0.0,0.0,0.0,0.0,0.0,0.0,0.0,0.0,0.0,0.0,0.0,0.0,0.0,0.0,0.0,0.0,0.0,0.0,0.0,0.0,0.0,0.0,0.0,0.0,0.0,0.0,0.0,0.0,0.0,0.0,0.0,0.0,0.0,0.0,0.0,0.0,0.0,0.0,0.0,0.0,0.0,0.0,0.0,-3.5414,-3.8862,-4.1736,-4.3196,-4.2716,-4.226,-4.2243,-3.9959,-3.7547,0.0,0.0,0.0,0.0,0.0,0.0,0.0,0.0,0.0,0.0,0.0,0.0,0.0,0.0,0.0,0.0,0.0,0.0,0.0,0.0,0.0,0.0,0.0,0.0,0.0,0.0,0.0,0.0,0.0,0.0,0.0,0.0,0.0,0.0,0.0,0.0,0.0,0.0,0.0,0.0,0.0,0.0,0.0,0.0,0.0,0.0,0.0,0.0,0.0,0.0,0.0,0.0,0.0,0.0,0.0,0.0,0.0,0.0,0.0,0.0,0.0,0.0,0.0,0.0,0.0,0.0,0.0,0.0,0.0,0.0,0.0,0.0,0.0,0.0,0.0,0.0,0.0,0.0,0.0,0.0,0.0,0.0,0.0,0.0,0.0,0.0,0.0,0.0,0.0,0.0,0.0,0.0,0.0,0.0,0.0,0.0,0.0,0.0,0.0,0.0,0.0,0.0,0.0,-3.4497,-3.7533,-3.9861,-4.0742,-4.0661,-4.0365,-3.989,-3.9148,-3.7209,-3.374,0.0,0.0,0.0,0.0,0.0,0.0,0.0,0.0,0.0,0.0,0.0,0.0,0.0,0.0,0.0,0.0,0.0,0.0,0.0,0.0,0.0,0.0,0.0,0.0,0.0,0.0,0.0,0.0,0.0,0.0,0.0,0.0,0.0,0.0,0.0,0.0,0.0,0.0,0.0,0.0,0.0,0.0,0.0,0.0,0.0,0.0,0.0,0.0,0.0,0.0,0.0,0.0,0.0,0.0,0.0,0.0,0.0,0.0,0.0,0.0,0.0,0.0,0.0,0.0,0.0,0.0,0.0,0.0,0.0,0.0,0.0,0.0,0.0,0.0,0.0,0.0,0.0,0.0,0.0,0.0,0.0,0.0,0.0,0.0,0.0,0.0,0.0,0.0,0.0,0.0,0.0,0.0,0.0,0.0,0.0,0.0,0.0,0.0,0.0,0.0,0.0,0.0,-3.3695,-3.6786,-3.9186,-4.0145,-4.0016,-3.9665,-3.928,-3.8468,-3.647,-3.2902,0.0,0.0,0.0,0.0,0.0,0.0,0.0,0.0,0.0,0.0,0.0,0.0,0.0,0.0,0.0,0.0,0.0,0.0,0.0,0.0,0.0,0.0,0.0,0.0,0.0,0.0,0.0,0.0,0.0,0.0,0.0,0.0,0.0,0.0,0.0,0.0,0.0,0.0,0.0,0.0,0.0,0.0,0.0,0.0,0.0,0.0,0.0,0.0,0.0,0.0,0.0,0.0,0.0,0.0,0.0,0.0,0.0,0.0,0.0,0.0,0.0,0.0,0.0,0.0,0.0,0.0,0.0,0.0,0.0,0.0,0.0,0.0,0.0,0.0,0.0,0.0,0.0,0.0,0.0,0.0,0.0,0.0,0.0,0.0,0.0,0.0,0.0,0.0,0.0,0.0,0.0,0.0,0.0,0.0,0.0,0.0,0.0,0.0,0.0,0.0,0.0,0.0,-3.2892,-3.6256,-3.9037,-4.0436,-4.0022,-3.9639,-3.9576,-3.7849,-3.5548,-3.2669,0.0,0.0,0.0,0.0,0.0,0.0,0.0,0.0,0.0,0.0,0.0,0.0,0.0,0.0,0.0,0.0,0.0,0.0,0.0,0.0,0.0,0.0,0.0,0.0,0.0,0.0,0.0,0.0,0.0,0.0,0.0,0.0,0.0,0.0,0.0,0.0,0.0,0.0,0.0,0.0,0.0,0.0,0.0,0.0,0.0,0.0,0.0,0.0,0.0,0.0,0.0,0.0,0.0,0.0,0.0,0.0,0.0,0.0,0.0,0.0,-3.7086,0.0,0.0,0.0,0.0,0.0,0.0,0.0,0.0,0.0,0.0,0.0,0.0,0.0,0.0,0.0,0.0,0.0,0.0,0.0,0.0,0.0,0.0,0.0,0.0,0.0,0.0,0.0,0.0,0.0,0.0,0.0,0.0,0.0,0.0,0.0,0.0,0.0,0.0,0.0,0.0,0.0,-3.2088,-3.4605,-3.6704,-3.8026,-3.8026,-3.7737,-3.7284,-3.68,-3.5369,-3.2513,-3.0474,0.0,0.0,0.0,0.0,0.0,0.0,0.0,0.0,0.0,0.0,0.0,0.0,0.0,0.0,0.0,0.0,0.0,0.0,0.0,0.0,0.0,0.0,0.0,0.0,0.0,0.0,0.0,0.0,0.0,0.0,0.0,0.0,0.0,0.0,0.0,0.0,0.0,0.0,0.0,0.0,0.0,0.0,0.0,0.0,0.0,0.0,0.0,0.0,0.0,0.0,0.0,0.0,0.0,0.0,0.0,0.0,0.0,0.0,0.0,0.0,-3.7481,0.0,0.0,0.0,0.0,0.0,0.0,0.0,0.0,0.0,0.0,0.0,0.0,0.0,0.0,0.0,0.0,0.0,0.0,0.0,0.0,0.0,0.0,0.0,0.0,0.0,0.0,0.0,0.0,0.0,0.0,0.0,0.0,0.0,0.0,0.0,0.0,0.0,0.0,0.0,0.0,-3.1893,-3.4136,-3.5998,-3.727,-3.715,-3.6836,-3.6507,-3.5921,-3.4653,-3.2529,-3.0716,0.0,0.0,0.0,0.0,0.0,0.0,0.0,0.0,0.0,0.0,0.0,0.0,0.0,0.0,0.0,0.0,0.0,0.0,0.0,0.0,0.0,0.0,0.0,0.0,0.0,0.0,0.0,0.0,0.0,0.0,0.0,0.0,0.0,0.0,0.0,0.0,0.0,0.0,0.0,0.0,0.0,0.0,0.0,0.0,0.0,0.0,0.0,0.0,0.0,0.0,0.0,0.0,0.0,-4.1145,-4.142,-4.1718,-4.0543,-3.9965,-3.9774,-3.8498,-3.8117,-3.8427,0.0,0.0,0.0,0.0,0.0,0.0,0.0,0.0,0.0,0.0,0.0,0.0,0.0,0.0,0.0,0.0,0.0,0.0,0.0,0.0,0.0,0.0,0.0,0.0,0.0,-3.1771,-3.2129,0.0,0.0,0.0,0.0,0.0,0.0,0.0,0.0,0.0,0.0,0.0,0.0,-3.1793,-3.3985,-3.5774,-3.6956,-3.6611,-3.6312,-3.6312,-3.5295,-3.4143,-3.2931,-3.1321,-2.9658,0.0,0.0,0.0,0.0,0.0,0.0,0.0,0.0,0.0,0.0,0.0,0.0,0.0,0.0,0.0,0.0,0.0,0.0,0.0,0.0,0.0,0.0,0.0,0.0,0.0,0.0,0.0,0.0,0.0,0.0,0.0,0.0,-3.7599,-3.8766,0.0,0.0,0.0,0.0,0.0,0.0,0.0,0.0,0.0,0.0,0.0,0.0,0.0,-4.0367,-4.1115,-4.2252,-4.2826,-4.2916,-4.4107,-4.411,-4.3126,-4.2365,-4.1751,-4.1173,-4.0417,0.0,-3.851,-3.9126,0.0,0.0,0.0,0.0,0.0,0.0,0.0,0.0,0.0,0.0,0.0,0.0,0.0,0.0,0.0,0.0,0.0,0.0,0.0,0.0,0.0,0.0,-3.4661,-3.3936,-3.3463,-3.3111,0.0,-3.1245,-2.9188,-2.7236,0.0,0.0,0.0,0.0,0.0,0.0,0.0,0.0,-3.1232,-3.329,-3.4906,-3.5669,-3.5684,-3.5639,-3.5639,-3.5474,-3.504,-3.4294,-3.2421,-3.1175,-3.0775,-2.7859,0.0,0.0,0.0,0.0,0.0,0.0,0.0,0.0,0.0,0.0,0.0,0.0,0.0,0.0,0.0,0.0,0.0,0.0,0.0,0.0,0.0,0.0,0.0,0.0,0.0,0.0,0.0,0.0,0.0,-3.7914,-3.8616,-3.8811,-3.899,-3.8512,0.0,0.0,0.0,0.0,0.0,0.0,0.0,0.0,0.0,-4.073,-4.1584,-4.2872,-4.4706,-4.5274,-4.5753,-4.6127,-4.6696,-4.6313,-4.5072,-4.4047,-4.2851,-4.1509,-4.0513,-3.9926,-3.9649,-3.9227,-3.8096,-3.6625,0.0,0.0,0.0,0.0,-3.4116,-3.4482,-3.3836,-3.3788,0.0,0.0,0.0,0.0,0.0,0.0,0.0,0.0,0.0,0.0,0.0,0.0,0.0,-3.3671,-3.3156,-3.2594,-3.2319,-3.128,-3.0011,0.0,-2.8168,-2.7466,-2.5801,0.0,0.0,0.0,0.0,-3.0458,-3.1806,-3.3442,-3.4773,-3.5429,-3.5504,-3.5504,-3.5504,-3.5504,-3.5205,-3.4548,-3.3664,-3.2661,-3.146,-2.963,-2.803,0.0,0.0,0.0,0.0,0.0,0.0,0.0,0.0,0.0,0.0,0.0,0.0,0.0,0.0,0.0,0.0,0.0,0.0,0.0,0.0,0.0,0.0,0.0,0.0,0.0,0.0,0.0,0.0,-3.908,-3.9858,-3.9679,-4.0681,-4.0442,0.0,0.0,0.0,0.0,0.0,0.0,-3.9814,-4.0365,-4.1523,-4.3372,-4.4167,-4.561,-4.7788,-4.7803,-4.8057,-4.8536,-4.8194,-4.7278,-4.5859,-4.4546,-4.2915,-4.1082,-4.0121,-3.9855,-4.0067,-3.9109,-3.8067,-3.6933,-3.6137,-3.5574,-3.5162,-3.4778,-3.4949,-3.5358,-3.5049,-3.5197,-3.5346,-3.4221,0.0,-3.3275,-3.1763,0.0,0.0,0.0,0.0,-3.1316,-3.2332,-3.2705,-3.28,-3.2861,-3.2528,-3.2064,-3.1512,-3.1161,-3.066,0.0,-2.9343,-2.8446,-2.6666,0.0,0.0,0.0,0.0,-3.0808,-3.2226,-3.3561,-3.4649,-3.5412,-3.5504,-3.5504,-3.5504,-3.534,-3.4946,-3.4233,-3.3845,-3.2907,-3.1204,-3.0526,-2.9339,-2.7529,0.0,0.0,0.0,0.0,0.0,0.0,0.0,0.0,0.0,0.0,0.0,0.0,0.0,0.0,0.0,0.0,0.0,0.0,0.0,0.0,0.0,0.0,0.0,0.0,0.0,0.0,0.0,0.0,0.0,-4.2901,-4.3703,0.0,0.0,0.0,0.0,-4.119,-4.2961,-4.3815,-4.3387,-4.5549,-4.6697,-4.6321,-4.7436,-4.8417,-4.9209,-4.9209,-4.9224,-4.9209,-4.787,-4.6334,-4.4546,-4.3138,-4.1515,-3.9788,-3.9749,-3.9434,-3.8969,-3.886,-3.9082,-3.9424,-3.8212,-3.7731,-3.751,-3.6009,-3.5759,-3.6008,-3.4487,-3.3997,-3.4172,-3.5106,-3.4861,-3.4238,-3.4142,-3.3202,0.0,0.0,-3.22,-3.2541,-3.2279,-3.2663,-3.2953,-3.2378,-3.2227,-3.2064,-3.1512,-3.0999,-3.0519,0.0,-2.9894,-2.9608,-2.9489,0.0,-2.7837,-2.8496,-2.9233,-3.0332,-3.1915,-3.3239,-3.4384,-3.5392,-3.5504,-3.5504,-3.5504,-3.4906,-3.4169,-3.3322,-3.2066,-3.0968,-3.0118,-2.9635,-2.9016,-2.8253,-2.6465,0.0,0.0,0.0,0.0,0.0,0.0,0.0,0.0,0.0,0.0,0.0,0.0,0.0,0.0,0.0,0.0,0.0,0.0,0.0,0.0,0.0,0.0,0.0,0.0,0.0,0.0,0.0,0.0,-4.5009,-4.5843,0.0,-4.4047,-4.4302,-4.4377,-4.3928,-4.5002,-4.5563,-4.5421,-4.6185,-4.6971,-4.7643,-4.8443,-4.9422,-5.0511,-5.0526,-5.0526,-5.0511,-4.873,-4.696,-4.5065,-4.3312,-4.1464,-3.9697,-3.9697,-3.9584,-3.9384,-3.9004,-3.838,-3.7547,-3.7098,-3.6488,-3.5781,-3.5205,-3.5322,-3.5627,-3.4747,-3.4618,-3.4884,-3.4583,-3.4019,-3.3474,-3.3057,-3.2602,-3.221,-3.212,-3.2243,-3.2453,-3.2701,-3.2918,-3.293,-3.2353,-3.1938,-3.1537,-3.1009,-3.047,-3.0072,-2.9948,-2.9518,-2.909,-2.8794,-2.8758,-2.8765,-2.8702,-2.9978,-3.1129,-3.169,-3.3075,-3.4129,-3.4509,-3.51,-3.5325,-3.4876,-3.413,-3.3598,-3.3391,-3.1944,-3.0973,-3.0768,-3.0122,-2.908,-2.7618,-2.6115,-2.4365,0.0,0.0,0.0,0.0,0.0,0.0,0.0,0.0,0.0,0.0,0.0,0.0,0.0,0.0,0.0,0.0,0.0,0.0,0.0,0.0,0.0,0.0,0.0,0.0,0.0,0.0,-4.5244,-4.68,-4.8147,-4.8252,-4.6471,-4.7115,-4.7369,-4.6681,-4.7287,-4.7802,-4.8021,-4.7985,-4.8382,-4.9245,-4.9668,-5.0287,-5.1167,-5.1214,-5.1214,-5.1152,-4.877,-4.6883,-4.5433,-4.2966,-4.1081,-3.9697,-3.9697,-3.9697,-3.9672,-3.9295,-3.8429,-3.7258,-3.7235,-3.6764,-3.612,-3.6379,-3.6412,-3.6259,-3.5314,-3.5069,-3.5069,-3.4198,-3.3533,-3.3048,-3.2616,-3.2503,-3.2503,-3.2503,-3.2503,-3.2591,-3.3023,-3.3124,-3.288,-3.2114,-3.165,-3.1198,-3.0495,-3.0043,-2.9792,-2.9792,-2.972,-2.9461,-2.8828,-2.9451,-2.9781,-2.9154,-3.0157,-3.1106,-3.1414,-3.2394,-3.3171,-3.3484,-3.4109,-3.4262,-3.3656,-3.3133,-3.2566,-3.1931,-3.0739,-2.9822,-2.9329,-2.8926,-2.8111,-2.6862,-2.5587,-2.3939,-2.1918,0.0,0.0,0.0,0.0,0.0,0.0,0.0,0.0,0.0,0.0,0.0,0.0,0.0,0.0,0.0,0.0,0.0,0.0,0.0,0.0,0.0,0.0,0.0,-4.3269,-4.5708,-4.7623,-4.8327,-5.0676,-5.1244,-4.8716,-4.9598,-5.0062,-4.9479,-4.9972,-5.0554,-5.1214,-5.1244,-5.1244,-5.1214,-5.1214,-5.1214,-5.1214,-5.1214,-5.1214,-5.1137,-4.7835,-4.6001,-4.5356,-4.2009,-4.0199,-3.9697,-3.9697,-3.9697,-3.9697,-3.9697,-3.9371,-3.8906,-3.8865,-3.8852,-3.8899,-3.9547,-3.905,-3.7814,-3.61,-3.5157,-3.4625,-3.4098,-3.3533,-3.3124,-3.3124,-3.3124,-3.3154,-3.3154,-3.3154,-3.3197,-3.3197,-3.3142,-3.2852,-3.1732,-3.1414,-3.1085,-3.0018,-2.9792,-2.9792,-2.9792,-3.0558,-3.0895,-2.9972,-3.0558,-3.0833,-2.9934,-2.9792,0.0,-3.1044,-3.118,-3.1536,-3.2464,-3.2558,-3.238,-3.1827,-3.1914,-3.1064,-2.8838,-2.8343,-2.7377,-2.5719,-2.5927,-2.6096,-2.6069,-2.4895,-2.3668,-2.2378,0.0,0.0,0.0,0.0,0.0,0.0,0.0,0.0,0.0,0.0,0.0,0.0,0.0,0.0,0.0,0.0,0.0,0.0,0.0,0.0,0.0,-4.2925,-4.4347,-4.4721,-4.7055,-4.9329,-5.093,-5.2172,-5.2815,-5.2606,-5.2456,-5.2291,-5.2127,-5.2276,-5.2232,-5.1947,-5.1932,-5.1708,-5.1229,-5.1214,-5.1214,-5.1214,-5.1214,-5.0975,-5.045,-4.723,-4.5378,-4.4671,-4.1425,-3.9835,-3.9697,-3.9697,-3.9697,-3.9697,-3.9697,-3.9371,-3.8844,-3.8434,-3.7985,-3.7648,-3.7462,-3.715,-3.6824,-3.6323,-3.5516,-3.47,-3.455,-3.3847,-3.3124,-3.3124,-3.3641,-3.4275,-3.4275,-3.4774,-3.5346,-3.5346,-3.4484,-3.344,-3.2723,-3.1687,-3.0633,-2.9942,-2.9792,-2.9792,-2.9792,-3.0558,-3.0895,-2.9972,-2.9998,-3.0113,-2.983,-2.9792,0.0,-3.0139,-3.0758,-3.1278,-3.1573,-3.2177,-3.2179,-3.1163,-3.0556,-2.9678,-2.8402,-2.7056,-2.6382,-2.6557,-2.6025,-2.5542,-2.516,-2.3264,-2.2113,0.0,0.0,0.0,0.0,0.0,0.0,0.0,0.0,0.0,0.0,0.0,0.0,0.0,0.0,0.0,0.0,0.0,0.0,0.0,0.0,0.0,0.0,-4.5525,-4.7145,-4.7698,-4.9344,-5.1124,-5.2845,-5.3623,-5.4072,-5.4206,-5.3847,-5.3488,-5.3204,-5.3174,-5.289,-5.2232,-5.2202,-5.1887,-5.1244,-5.1214,-5.1214,-5.1214,-5.1214,-5.0838,-5.0181,-4.7037,-4.5128,-4.4374,-4.1191,-3.9697,0.0,-3.9697,-3.9697,-3.9697,-3.9697,-3.9371,0.0,0.0,0.0,0.0,0.0,-3.7103,-3.7023,-3.6581,-3.5642,-3.468,-3.468,-3.3972,-3.3124,-3.3124,-3.3556,-3.4037,-3.4037,-3.4457,-3.4911,-3.4911,-3.4011,-3.3002,-3.2458,-3.1452,-3.047,-2.9917,-2.9792,-2.9792,-2.9792,-3.0241,0.0,-2.9895,-3.0139,-3.0241,-2.9869,-2.9792,-2.9792,-2.9792,-3.0279,-3.062,-3.062,-3.1095,-3.103,-3.01,-2.9667,0.0,0.0,0.0,-2.5994,-2.5689,-2.5211,0.0,0.0,0.0,0.0,0.0,0.0,0.0,0.0,-2.2816,-2.2631,0.0,0.0,0.0,0.0,0.0,0.0,0.0,0.0,0.0,0.0,0.0,0.0,0.0,0.0,0.0,0.0,-4.7848,-4.9972,-5.1364,-5.2052,-5.2875,-5.4072,-5.479,-5.497,-5.4386,-5.4326,-5.4072,-5.3458,-5.3414,-5.3084,-5.2351,0.0,0.0,0.0,0.0,-5.1214,-5.1214,-5.1214,-5.0808,-5.0076,-4.6946,-4.5101,-4.4277,-4.1115,-3.9697,-3.9697,-3.9697,-3.9697,-3.9697,-3.9697,-3.9333,-3.8869,-3.9314,-3.9131,-3.8542,-3.8077,-3.7893,-3.7756,-3.6756,0.0,0.0,-3.468,-3.3972,-3.3124,-3.3124,-3.3197,-3.3283,-3.3283,-3.3356,-3.3428,-3.3428,-3.2874,-3.2155,-3.1703,-3.1027,-3.0382,-2.9892,-2.9792,-2.9792,-2.9792,-2.9792,-2.9792,-2.9792,-3.0482,-3.0758,-2.9934,-2.9792,-2.9792,-2.9792,-2.9792,-2.9792,-2.9792,0.0,0.0,-2.8938,-2.9168,-2.8718,-2.7301,-2.6904,-2.5986,-2.4249,-2.418,-2.418,-2.418,-2.4117,-2.433,-2.4788,-2.4788,-2.4813,-2.4813,-2.2338,-2.192,0.0,0.0,0.0,0.0,0.0,0.0,0.0,0.0,0.0,0.0,0.0,0.0,0.0,0.0,0.0,-4.8101,-4.9808,-5.1498,-5.3369,-5.3743,-5.3922,-5.4177,-5.479,-5.5149,-5.5014,-5.4999,-5.494,-5.4805,-5.4805,-5.4266,-5.3054,-5.2995,-5.2441,-5.1259,-5.1214,-5.1214,-5.1214,-5.1214,-5.0631,-4.9449,0.0,0.0,-4.3622,-4.0933,-3.9697,-3.9697,-3.9697,-3.9697,-3.9697,-3.9697,-3.9094,-3.8165,-3.7842,-3.7369,-3.6861,-3.676,-3.6709,-3.6709,-3.6499,-3.5642,-3.468,-3.468,-3.3972,-3.3124,-3.3124,-3.3713,0.0,-3.4387,-3.4966,-3.5614,-3.5614,-3.422,-3.2803,-3.2699,-3.1304,-2.993,-2.9817,-2.9792,-2.9792,-2.9792,-2.9792,-2.9792,-2.9792,-2.9934,-2.9998,-2.983,-2.9792,-2.9792,-2.9792,-2.9792,-2.9792,-2.9792,-2.9792,-2.9566,-2.8938,-2.8975,-2.833,-2.6738,-2.6144,-2.5696,-2.5297,-2.5285,-2.5285,-2.5285,-2.487,-2.4687,-2.4788,-2.4788,-2.5034,-2.5423,-2.4469,-2.4161,0.0,0.0,0.0,0.0,0.0,0.0,0.0,0.0,0.0,0.0,0.0,-4.2372,-4.4032,0.0,-4.7938,-4.9927,-5.1633,-5.3069,-5.4072,-5.4491,-5.47,-5.47,-5.4999,-5.5194,-5.5194,-5.5194,-5.5194,-5.5194,-5.488,-5.4251,-5.3234,-5.2875,-5.2232,-5.1244,-5.1214,-5.1214,-5.1214,-5.0885,-5.0242,-4.9254,-4.7005,-4.544,-4.4349,-4.1789,-4.0642,-4.0605,-3.9981,-3.9697,-3.9647,-3.9082,-3.8354,-3.7538,-3.6985,-3.6656,-3.6405,-3.6405,-3.6405,-3.6405,-3.6405,-3.583,-3.5044,-3.4768,-3.4161,-3.3432,-3.3156,-3.3471,-3.3911,-3.3911,-3.4262,-3.4637,-3.4637,-3.3442,-3.2209,-3.2209,-3.0992,-2.9792,-2.9792,-2.9792,-2.9792,-2.9792,-2.9792,-2.9792,-2.9792,-2.9792,-2.9792,-2.9792,-2.9792,-2.9792,-2.9792,-2.9792,-2.9792,-2.9792,-2.9792,-2.9679,-2.939,-2.9051,-2.8461,-2.7356,-2.7017,-2.6603,-2.6084,-2.6059,-2.5921,-2.5598,-2.5335,-2.536,-2.5636,-2.5636,-2.5925,-2.6427,-2.6176,-2.605,0.0,0.0,0.0,0.0,0.0,0.0,0.0,-4.0651,-4.0786,-4.2237,-4.3479,-4.4825,-4.6576,-4.8297,-4.9927,-5.1364,-5.295,-5.4102,-5.4356,-5.4745,-5.4999,-5.4999,-5.5119,-5.5194,-5.5194,-5.5194,-5.5149,-5.5014,-5.4506,-5.3847,-5.3039,-5.2486,-5.1887,-5.1244,-5.1214,-5.1214,-5.1214,-5.0524,-4.9912,-4.9254,-4.7332,-4.6054,-4.5298,-4.3026,-4.1985,-4.1936,-4.0882,-4.0262,-3.9829,-3.8802,-3.7907,-3.7123,-3.6619,-3.6405,-3.6405,-3.6405,-3.6405,-3.6405,-3.6405,-3.5994,-3.5408,-3.4856,-3.4349,-3.3796,-3.3244,-3.3124,-3.3124,-3.3124,-3.3124,-3.3124,-3.3124,-3.2315,-3.1524,-3.1411,-3.0658,-2.993,-2.9817,-2.9792,-2.9792,-2.9792,-2.9792,-2.9792,-2.9792,-2.9792,-2.9792,-2.9792,-2.9792,-2.9792,-2.9792,-2.9792,-2.9792,-2.9792,-2.9792,-2.9792,-2.9792,-2.9264,-2.87,-2.8298,-2.816,-2.7708,-2.6851,-2.6813,-2.6587,-2.6088,-2.6088,-2.6314,-2.6813,-2.6813,-2.704,-2.7444,-2.7557,-2.7544,-3.9539,-3.8889,-3.815,-3.9567,-3.9368,-4.0124,0.0,0.0,-4.4317,-4.6247,-4.7219,-4.7982,-4.8835,-4.9598,-5.075,-5.265,-5.3159,-5.3713,-5.491,-5.464,-5.4326,-5.4326,-5.4835,-5.5194,-5.5194,-5.5194,-5.494,-5.4371,-5.4251,-5.3653,-5.2381,-5.2232,-5.1887,-5.1244,-5.1214,-5.1214,-5.1214,-5.0524,-4.9912,-4.9254,-4.7332,-4.6054,-4.5358,-4.3929,-4.3313,-4.3266,-4.3122,-4.2164,-4.0653,-3.997,-3.8726,-3.7123,-3.6619,-3.6405,-3.6405,-3.6405,-3.6405,-3.6405,-3.6405,-3.5994,-3.5408,-3.4856,-3.4349,-3.3796,-3.3244,-3.3124,-3.3124,-3.3124,-3.3124,-3.3124,-3.3124,-3.2604,-3.2001,-3.1499,-3.0947,-3.0394,-2.9892,-2.9792,-2.9792,-2.9792,-2.9792,-2.9792,-2.9792,-2.9792,-2.9792,-2.9792,-2.9792,-2.9792,-2.9792,-2.9792,-2.9792,-2.9792,-2.9792,-2.9792,-2.9792,-2.9264,-2.8863,-2.88,-2.8373,-2.8047,-2.7921,-2.7921,-2.7896,-2.7833,-2.7821,-2.7858,-2.7921,-2.7921,-2.7946,-2.8021,-2.8511,-2.8486,-4.025,-3.9783,-3.9283,-4.0547,-4.1469,-4.2752,-4.5478,-4.6075,-4.6516,-4.8117,-4.897,-4.9628,-5.0287,-5.093,-5.1768,0.0,-5.3518,-5.4102,-5.5059,-5.4625,-5.4206,-5.4206,-5.4102,-5.4177,-5.4581,-5.4266,-5.4072,-5.4206,-5.3488,-5.2785,-5.2232,-5.1828,-5.1498,-5.1229,-5.1214,-5.0988,-5.0599,-5.0002,-4.9344,-4.8686,-4.7496,-4.6801,-4.6447,-4.5207,-4.421,-4.3476,-4.3084,-4.2307,-4.1286,-4.0616,-3.976,-3.8738,-3.853,-3.7997,-3.7322,-3.6628,-3.6405,-3.6405,-3.6405,-3.6207,-3.5881,-3.5002,-3.4562,-3.4211,-3.3345,-3.3124,-3.3124,-3.3124,-3.3124,-3.3124,-3.3124,-3.2641,-3.2077,-3.1524,-3.0997,-3.047,-2.9917,-2.9792,-2.9792,-2.9792,-2.9792,-2.9792,-2.9792,-2.9792,-2.9792,-2.9792,-2.9792,-2.9792,-2.9792,-2.9792,-2.9792,-2.9792,-2.9792,-2.9792,-2.9792,-2.9566,-2.9428,-2.9428,-2.9214,-2.8938,-2.8562,-2.8586,-2.8436,-2.8109,-2.8109,-2.8109,-2.8109,-2.8109,-2.8273,-2.8549,-2.8787,-2.8988,-3.9555,-3.9802,-4.0545,-4.1401,-4.3027,-4.481,-4.6254,-4.7376,-4.8431,-4.9568,-5.0182,-5.0599,-5.1124,-5.1618,-5.2202,-5.3039,-5.3608,-5.4221,-5.5074,-5.4461,-5.3862,-5.3683,-5.289,-5.2636,-5.3324,-5.3264,-5.3309,-5.3638,-5.2755,-5.2127,-5.1932,-5.1468,-5.1214,-5.1214,-5.1214,-5.09,-5.0196,-4.9583,-4.8985,-4.8282,-4.7623,-4.7309,-4.7266,-4.6344,-4.5403,-4.4507,-4.3839,-4.3037,-4.215,-4.1507,-4.0674,-3.9899,-3.9899,-3.9139,-3.7984,-3.715,-3.6675,-3.6405,-3.6405,-3.6405,-3.6229,-3.5077,-3.468,-3.4512,-3.342,-3.3124,-3.3124,-3.3124,-3.3124,-3.3124,-3.3124,-3.2767,-3.2265,-3.1562,-3.1097,-3.0633,-2.9942,-2.9792,-2.9792,-2.9792,-2.9792,-2.9792,-2.9792,-2.9792,-2.9792,-2.9792,-2.9792,-2.9792,-2.9792,-2.9792,-2.9792,-2.9792,-2.9792,-2.9792,-2.9792,-2.9792,-2.9792,-2.9792,-2.9792,-2.9603,-2.9189,-2.9126,-2.8988,-2.8574,-2.8574,-2.8574,-2.8574,-2.8574,-2.8775,-2.9126,-2.9126,-2.939,-3.7229,-3.8475,-4.1521,-4.1907,-4.3268,-4.5484,-4.9195,-5.0091,-5.03,-5.102,-5.1169,-5.1199,-5.1214,-5.1229,-5.1678,-5.298,-5.3204,-5.3668,-5.4999,-5.4042,-5.298,-5.2336,-5.1063,-5.0539,0.0,-5.2441,-5.292,-5.2306,-5.2217,-5.1917,-5.1289,-5.1229,-5.1214,-5.1214,-5.1214,-5.09,-5.0196,-4.9583,-4.8985,-4.8282,-4.7623,-4.7309,-4.7309,-4.7251,-4.7207,-4.7134,-4.6478,-4.5166,-4.3473,-4.2811,-4.1511,-3.9899,-3.9899,-3.9139,-3.8107,-3.8062,-3.7368,-3.6405,-3.6405,-3.6405,-3.6229,-3.5077,-3.468,-3.4512,-3.342,-3.3124,-3.3124,-3.3124,-3.3124,-3.3124,-3.3124,-3.3111,-3.2767,-3.165,-3.1386,-3.1085,-3.0018,-2.9792,-2.9792,-2.9792,-2.9792,-2.9792,-2.9792,-2.9792,-2.9792,-2.9792,-2.9792,-2.9792,-2.9792,-2.9792,-2.9792,-2.9792,-2.9792,-2.9792,-2.9792,-2.9792,-2.9792,-2.9792,-2.9792,-2.9779,-2.9767,-2.9767,-2.9767,-2.9741,-2.9741,-2.9741,-2.9741,-2.9741,-2.9754,-2.9767,-2.9767,-2.9779,-4.0944,-4.1586,-4.269,-4.397,-4.5681,-4.7458,-4.9155,-5.0215,-5.0779,-5.0569,-5.0524,-5.039,-5.0002,-4.9927,-5.0496,-5.2247,-5.2531,-5.3159,-5.494,-5.4431,-5.3443,-5.2336,-5.1813,0.0,0.0,0.0,0.0,-5.2157,-5.1798,-5.1454,-5.1229,-5.1214,-5.1214,-5.1214,-5.0749,-5.0257,-4.9598,-4.894,-4.8282,-4.7638,-4.7414,-4.7309,-4.7309,-4.7309,-4.707,-4.6621,-4.5933,-4.5037,-4.4022,-4.3315,-4.2713,-4.2085,-4.1295,-4.0304,-3.9183,-3.8379,-3.7368,-3.6405,-3.6405,-3.6405,-3.6229,-3.5077,-3.468,-3.4512,-3.342,-3.3124,-3.3124,-3.3124,-3.3124,-3.3124,-3.3124,-3.3124,-3.288,-3.2114,-3.165,-3.1198,-3.0495,-3.0043,-2.9792,-2.9792,-2.9792,-2.9792,-2.9792,-2.9792,-2.9792,-2.9792,-2.9792,-2.9792,-2.9792,-2.9792,-2.9792,-2.9792,-2.9792,-2.9792,-2.9792,-2.9792,-2.9792,-2.9792,-2.9792,-2.9792,-2.9792,-2.9792,-2.9792,-2.9792,-2.9792,-2.9792,-2.9792,-2.9792,-2.9792,-2.9792,-2.9792,-2.9792,-4.3387,-4.4117,-4.4729,-4.6165,-4.7584,-4.8866,-4.9737,-5.0425,-5.0644,-5.0017,-4.9703,-4.9344,-4.8686,-4.8566,-4.9209,-5.1184,-5.1693,-5.2546,-5.4566,-5.4266,-5.3428,-5.2336,-5.1783,-5.1169,0.0,0.0,0.0,-5.1768,-5.1454,-5.1214,-5.1214,-5.1214,-5.1109,-5.0823,-5.0405,-4.9823,-4.897,-4.8506,-4.7952,-4.7309,-4.7309,-4.7309,-4.7294,-4.7055,-4.6496,-4.5662,-4.5168,-4.4208,-4.3015,-4.2772,-4.2467,-4.2003,-4.1267,-4.0261,-3.9139,-3.8379,-3.7368,-3.6405,-3.6405,-3.6405,-3.6229,-3.5077,-3.468,-3.4512,-3.342,-3.3124,-3.3124,-3.3124,-3.3124,-3.3124,-3.3124,-3.3124,-3.293,-3.2353,-3.1788,-3.1248,-3.0733,-3.0181,-2.9792,-2.9792,-2.9792,-2.9792,-2.9792,-2.9792,-2.9792,-2.9792,-2.9792,-2.9792,-2.9792,-2.9792,-2.9792,-2.9792,-2.9792,-2.9792,-2.9792,-2.9792,-2.9792,-2.9792,-2.9792,-2.9792,-2.9792,-2.9792,-2.9792,-2.9792,-2.9792,-2.9792,-2.9792,-2.9792,-2.9792,-2.9792,-2.9792,-2.9792,-4.4307,-4.5861,-4.7429,-4.8254,-4.8861,-4.9616,-5.0872,-5.0614,-4.9941,-4.9314,-4.8626,-4.7938,0.0,0.0,-4.7848,-4.9777,-5.0704,-5.1917,-5.3922,-5.3668,-5.301,0.0,0.0,0.0,0.0,0.0,0.0,-5.1169,0.0,-5.1214,-5.1214,-5.1214,-5.0868,-5.0211,-5.0166,-4.9583,-4.8297,-4.8252,-4.7923,-4.7309,-4.7309,-4.7294,-4.7234,-4.652,-4.5591,-4.4485,-4.4231,-4.2819,-4.0791,-4.1312,-4.0873,-3.9899,-3.9855,-3.9094,-3.8107,-3.8017,-3.7322,-3.6405,-3.6405,-3.6405,-3.6229,-3.5077,-3.468,-3.4512,-3.342,-3.3124,-3.3124,-3.3124,-3.3124,-3.3124,-3.3124,-3.3124,-3.2943,-3.239,-3.1813,-3.1248,-3.0758,-3.0206,-2.9792,-2.9792,-2.9792,-2.9792,-2.9792,-2.9792,-2.9792,-2.9792,-2.9792,-2.9792,-2.9792,-2.9792,-2.9792,-2.9792,-2.9792,-2.9792,-2.9792,-2.9792,-2.9792,-2.9792,-2.9792,-2.9792,-2.9792,-2.9792,-2.9792,-2.9792,-2.9792,-2.9792,-2.9792,-2.9792,-2.9792,-2.9792,-2.9792,-2.9792,-4.5061,-4.6901,-4.8331,-5.0032,-5.0579,-5.0627,-5.0493,-4.9987,-4.9194,-4.8042,-4.6875,-4.5858,-4.52,0.0,0.0,-4.8461,-5.0152,0.0,-5.3922,-5.4476,0.0,-5.2396,0.0,-5.1858,-5.0345,-5.0629,0.0,0.0,-5.1214,-5.1214,-5.1214,-5.1214,-5.0868,-5.0211,-4.9763,-4.9119,-4.8297,-4.7803,-4.7474,-4.7309,-4.7309,-4.7055,-4.6518,-4.5506,-4.4342,-4.3056,-4.2094,-4.1091,-4.015,-4.0301,-4.0145,-3.9812,-3.8917,-3.8379,-3.7984,-3.715,-3.6675,-3.6405,-3.6405,-3.6405,-3.6229,-3.5077,-3.468,-3.4512,-3.342,-3.3124,-3.3124,-3.3124,-3.3124,-3.3124,-3.3124,-3.3124,-3.3043,-3.2893,-3.2102,-3.1348,-3.1223,-3.0457,-2.9792,-2.9792,-2.9792,-2.9792,-2.9792,-2.9792,-2.9792,-2.9792,-2.9792,-2.9792,-2.9792,-2.9792,-2.9792,-2.9792,-2.9792,-2.9792,-2.9792,-2.9792,-2.9792,-2.9792,-2.9792,-2.9792,-2.9792,-2.9792,-2.9792,-2.9792,-2.9792,-2.9792,-2.9792,-2.9792,-2.9792,-2.9792,-2.9792,-2.9792,-4.6144,-4.788,-4.9069,-5.0766,-5.1005,-5.0495,-4.9598,-4.8656,-4.7429,-4.5529,-4.4302,-4.3374,-4.2716,-4.3374,-4.4751,0.0,0.0,0.0,-5.3443,-5.4072,-5.3997,0.0,-5.289,0.0,-5.1214,-5.1169,-5.1214,0.0,-5.1214,-5.1214,-5.1214,-5.0898,-5.0496,-4.9838,-4.9179,-4.8521,-4.7863,-4.7489,-4.7309,-4.7309,-4.7309,-4.6965,-4.6264,-4.4821,-4.3313,-4.1751,0.0,-3.9615,-3.8392,-3.8917,-3.8841,-3.8315,-3.7645,-3.7368,-3.7276,-3.6628,-3.6405,-3.6405,-3.6405,-3.6405,-3.6229,-3.5077,-3.468,-3.4512,-3.342,-3.3124,-3.3124,-3.3124,-3.3124,-3.3124,-3.3124,-3.3124,-3.3124,-3.3124,-3.2403,-3.1687,-3.1436,-3.0733,-3.008,-2.9842,-2.9792,-2.9792,-2.9792,-2.9792,-2.9792,-2.9792,-2.9792,-2.9792,-2.9792,-2.9792,-2.9792,-2.9792,-2.9792,-2.9792,-2.9792,-2.9792,-2.9792,-2.9792,-2.9792,-2.9792,-2.9792,-2.9792,-2.9792,-2.9792,-2.9792,-2.9792,-2.9792,-2.9792,-2.9792,-2.9792,-2.9792,-2.9792,-4.6687,-4.8266,-4.9259,-5.0603,-5.0506,-4.9717,-4.8253,-4.6909,-4.5173,-4.2574,-4.1488,-4.0831,-4.0352,-4.1339,-4.3144,-4.5753,0.0,-5.0093,-5.268,-5.3054,-5.3279,-5.3877,-5.2905,-5.2172,-5.2082,-5.1558,-5.1214,-5.1214,-5.1214,-5.1214,-5.1214,-5.0539,-4.9898,-4.9209,-4.8506,-4.7878,-4.7309,-4.7309,-4.7309,-4.7309,-4.7121,-4.6675,-4.5903,-4.3994,-4.2111,-4.0381,0.0,0.0,-3.6499,-3.7461,-3.7276,-3.6405,-3.6405,-3.6405,-3.6405,-3.6405,-3.6405,-3.6405,-3.6405,-3.6405,-3.6229,-3.5077,-3.468,-3.4512,-3.342,-3.3124,-3.3124,-3.3124,-3.3124,-3.3124,-3.3124,-3.3124,-3.3124,-3.3124,-3.2641,-3.2077,-3.1599,-3.1035,-3.047,-2.9993,-2.9842,-2.9792,-2.9792,-2.9792,-2.9792,-2.9792,-2.9792,-2.9792,-2.9792,-2.9792,-2.9792,-2.9792,-2.9792,-2.9792,-2.9792,-2.9792,-2.9792,-2.9792,-2.9792,-2.9792,-2.9792,-2.9792,-2.9792,-2.9792,-2.9792,-2.9792,-2.9792,-2.9792,-2.9792,-2.9792,-2.9792,-2.9792,-4.4292,-4.6127,-4.7822,-4.921,-4.9498,-4.8894,-4.6664,-4.4955,0.0,-4.0723,-3.9527,-3.905,-3.9499,-4.0666,-4.2417,-4.505,-4.7145,-4.9374,-5.2007,-5.2366,-5.2411,0.0,-5.2336,-5.1992,-5.1439,-5.1289,0.0,0.0,0.0,-5.1214,-5.1214,-5.0539,-4.9688,-4.8491,-4.7818,-4.7414,-4.7309,-4.7309,-4.7309,-4.7309,-4.6211,-4.5125,-4.4008,-4.1631,-3.9799,-3.8512,-3.7453,0.0,-3.6405,-3.6628,-3.6581,-3.6405,-3.6405,-3.6405,-3.6405,-3.6405,-3.6405,-3.6405,-3.6405,-3.6405,-3.6229,-3.5077,-3.468,-3.4512,-3.342,-3.3124,-3.3124,-3.3124,-3.3124,-3.3124,-3.3124,-3.3124,-3.3124,-3.3124,-3.2641,-3.219,-3.2089,-3.1311,-3.0583,-3.0495,-3.0105,-2.9792,-2.9792,-2.9792,-2.9792,-2.9792,-2.9792,-2.9792,-2.9792,-2.9792,-2.9792,-2.9792,-2.9792,-2.9792,-2.9792,-2.9792,-2.9792,-2.9792,-2.9792,-2.9792,-2.9792,-2.9792,-2.9792,-2.9792,-2.9792,-2.9792,-2.9792,-2.9792,-2.9792,-2.9792,-2.9792,-2.9792,-4.399,-4.5801,-4.7453,-4.8851,-4.8519,-4.7209,-4.4807,0.0,0.0,-3.7864,-3.7369,-3.7509,-3.7838,-3.896,-4.0576,-4.288,-4.4661,-4.689,-5.0212,-5.0676,-5.1184,-5.2546,-5.2411,-5.2067,0.0,-5.1409,0.0,0.0,0.0,-5.0808,-5.1199,-5.0272,-4.9134,-4.7818,-4.7474,-4.7309,-4.7309,-4.6638,-4.6299,-4.6299,-4.4741,-4.3497,-4.2549,-4.0437,-3.8959,-3.8017,-3.6883,0.0,-3.6405,-3.6405,-3.6405,-3.6405,-3.6405,-3.6405,-3.6405,-3.6405,-3.6405,-3.6405,-3.6405,-3.6405,-3.6279,-3.5416,-3.4906,-3.4512,-3.342,-3.3124,-3.3124,-3.3124,-3.3124,-3.3124,-3.3124,-3.3124,-3.3124,-3.3124,-3.2641,-3.2215,-3.2215,-3.1587,-3.0934,-3.067,-3.0407,-3.0131,-2.9842,-2.9792,-2.9792,-2.9792,-2.9792,-2.9792,-2.9792,-2.9792,-2.9792,-2.9792,-2.9792,-2.9792,-2.9792,-2.9792,-2.9792,-2.9792,-2.9792,-2.9792,-2.9792,-2.9792,-2.9792,-2.9792,-2.9792,-2.9792,-2.9792,-2.9792,-2.9792,-2.9792,-2.9792,-2.9792,-4.3849,-4.5514,-4.6888,-4.8024,-4.7224,-4.5489,-4.2768,-4.0648,-3.84,-3.5304,-3.5355,-3.6082,-3.6428,-3.7404,-3.8886,0.0,-4.2387,-4.4496,-4.8356,-4.9015,-4.9973,0.0,-5.2217,0.0,-5.1992,-5.1528,0.0,0.0,0.0,0.0,-5.0571,-4.9356,-4.8268,-4.7339,-4.6785,-4.6638,-4.6873,-4.5644,-4.4952,-4.481,-4.3106,-4.1896,-4.1078,-3.9455,-3.8351,-3.7678,-3.6803,0.0,0.0,-3.6405,-3.6405,-3.6405,-3.6405,-3.6405,-3.6405,-3.6405,-3.6405,-3.6405,-3.6405,-3.6405,-3.6317,-3.5683,-3.5132,-3.4537,-3.3558,-3.3212,-3.3124,-3.3124,-3.3124,-3.3124,-3.3124,-3.3124,-3.3124,-3.3124,-3.2729,-3.239,-3.239,-3.1964,-3.1449,-3.1035,-3.0771,-3.0482,-3.0043,-2.988,-2.9792,-2.9792,-2.9792,-2.9792,-2.9792,-2.9792,-2.9792,-2.9792,-2.9792,-2.9792,-2.9792,-2.9792,-2.9792,-2.9792,-2.9792,-2.9792,-2.9792,-2.9792,-2.9792,-2.9792,-2.9792,-2.9792,-2.9792,-2.9792,-2.9792,-2.9792,-2.9792,-2.9792,-4.2414,-4.378,-4.5195,-4.5356,-4.5348,-4.4325,-4.0499,0.0,-3.7275,-3.42,-3.3896,-3.469,-3.6224,-3.7045,-3.8347,-4.095,-4.2021,-4.3668,-4.701,-4.7997,-4.891,-5.0285,0.0,0.0,-5.1304,0.0,0.0,0.0,0.0,0.0,-4.8611,-4.7369,-4.6883,-4.7281,-4.507,-4.4396,-4.5539,-4.4303,-4.3416,-4.2907,-4.1612,-4.0425,-3.9276,-3.7976,-3.7064,-3.6534,-3.6452,0.0,0.0,-3.6405,-3.6405,-3.6405,-3.6405,-3.6405,-3.6405,-3.6405,-3.6405,-3.6405,-3.6405,-3.6405,-3.6317,-3.5683,-3.5132,-3.4613,-3.401,-3.347,-3.3124,-3.3124,-3.3124,-3.3124,-3.3124,-3.3124,-3.3124,-3.3124,-3.3074,-3.3006,-3.3006,-3.2541,-3.2127,-3.2077,-3.1286,-3.0595,-3.0545,-3.0118,-2.9792,-2.9792,-2.9792,-2.9792,-2.9792,-2.9792,-2.9792,-2.9792,-2.9792,-2.9792,-2.9792,-2.9792,-2.9792,-2.9792,-2.9792,-2.9792,-2.9792,-2.9792,-2.9792,-2.9792,-2.9792,-2.9792,-2.9792,-2.9792,-2.9792,-2.9792,-2.9792,-2.9792,-4.3043,-4.4146,-4.4902,-4.4613,-4.4366,-4.3277,-3.9875,-3.8444,-3.7069,-3.4321,-3.4365,-3.5108,-3.5783,-3.6088,-3.6866,-3.8691,-3.9215,-4.0681,-4.4421,-4.5155,-4.6381,-4.9314,-4.9883,0.0,0.0,0.0,0.0,0.0,0.0,0.0,-4.7743,-4.7585,-4.7109,-4.6181,-4.5161,-4.4503,-4.4256,-4.2978,-4.2068,-4.1524,-3.9907,-3.872,-3.7937,-3.7109,-3.6619,-3.6405,-3.6405,0.0,0.0,-3.6405,-3.6405,-3.6405,-3.6405,-3.6405,-3.6405,-3.6405,-3.6405,-3.6405,-3.6405,-3.6405,-3.6367,-3.6107,-3.5667,-3.5006,-3.4173,-3.3746,-3.3508,-3.3212,-3.3124,-3.3124,-3.3124,-3.3124,-3.3124,-3.3124,-3.3124,-3.3124,-3.3124,-3.2893,-3.2629,-3.2277,-3.1876,-3.1373,-3.0721,-3.0432,-3.0168,-2.9842,-2.9792,-2.9792,-2.9792,-2.9792,-2.9792,-2.9792,-2.9792,-2.9792,-2.9792,-2.9792,-2.9792,-2.9792,-2.9792,-2.9792,-2.9792,-2.9792,-2.9792,-2.9792,-2.9792,-2.9792,-2.9792,-2.9792,-2.9792,-2.9792,-2.9792,-2.9792,-4.3371,-4.4408,-4.4941,-4.4579,-4.3955,-4.2673,-3.964,-3.818,-3.6841,-3.4468,-3.4576,-3.5133,-3.5439,-3.5504,-3.5863,-3.6956,-3.7629,-3.9125,-4.2342,-4.3269,-4.4736,0.0,0.0,-4.891,0.0,0.0,0.0,0.0,0.0,0.0,0.0,-4.7743,-4.7392,-4.6032,-4.4872,-4.4022,-4.3504,-4.1714,-4.0535,-3.995,-3.8445,-3.7475,-3.6923,-3.6581,-3.6405,-3.6405,0.0,0.0,0.0,-3.6405,-3.6405,-3.6405,-3.6405,-3.6405,-3.6405,-3.6405,-3.6405,-3.6405,-3.6405,-3.6405,-3.6405,-3.6405,-3.6094,-3.5579,-3.4474,-3.4035,-3.3784,-3.3232,-3.3124,-3.3124,-3.3124,-3.3124,-3.3124,-3.3124,-3.3124,-3.3124,-3.3124,-3.3124,-3.2955,-3.2554,-3.2328,-3.1926,-3.0997,-3.0721,-3.0432,-2.988,-2.9792,-2.9792,-2.9792,-2.9792,-2.9792,-2.9792,-2.9792,-2.9792,-2.9792,-2.9792,-2.9792,-2.9792,-2.9792,-2.9792,-2.9792,-2.9792,-2.9792,-2.9792,-2.9792,-2.9792,-2.9792,-2.9792,-2.9792,-2.9792,-2.9792,-2.9792,-4.297,-4.418,-4.5128,-4.5115,-4.421,-4.2537,-3.9588,-3.7935,-3.6432,-3.443,-3.4027,-3.4312,-3.5326,-3.5504,-3.5729,-3.6387,-3.8123,-3.9873,-4.1205,-4.3075,-4.4556,0.0,0.0,-4.6875,0.0,0.0,0.0,0.0,0.0,0.0,0.0,-4.7309,-4.7309,-4.7266,-4.3598,-4.2217,-4.3504,-4.0473,-3.8642,-3.8002,-3.745,-3.6958,-3.6417,-3.6405,-3.6405,0.0,0.0,0.0,0.0,-3.6405,-3.6405,-3.6405,-3.6405,-3.6405,-3.6405,-3.6405,-3.6405,-3.6405,-3.6405,-3.6405,-3.6405,-3.6405,-3.6405,-3.6191,-3.5052,-3.4336,-3.3784,-3.3232,-3.3124,-3.3124,-3.3124,-3.3124,-3.3124,-3.3124,-3.3124,-3.3124,-3.3124,-3.3124,-3.3124,-3.3111,-3.2604,-3.2039,-3.1486,-3.0959,-3.0432,-2.988,-2.9792,-2.9792,-2.9792,-2.9792,-2.9792,-2.9792,-2.9792,-2.9792,-2.9792,-2.9792,-2.9792,-2.9792,-2.9792,-2.9792,-2.9792,-2.9792,-2.9792,-2.9792,-2.9792,-2.9792,-2.9792,-2.9792,-2.9792,-2.9792,-2.9792,-2.9792,-4.1593,-4.2206,-4.2232,-4.1411,-4.1581,-4.1239,-3.8552,-3.7959,-3.739,-3.5418,-3.5019,-3.5133,-3.5424,-3.5504,-3.6013,-3.7539,-3.8302,0.0,0.0,0.0,0.0,-4.517,-4.7489,0.0,0.0,0.0,0.0,0.0,0.0,0.0,0.0,-4.7309,-4.6916,-4.6018,-4.3975,-4.2689,-4.2217,-4.0002,-3.858,-3.8002,-3.745,-3.6945,-3.6405,-3.6405,0.0,0.0,0.0,0.0,0.0,-3.6405,-3.6405,-3.6405,-3.6405,-3.6405,-3.6405,-3.6405,-3.6405,-3.6405,-3.6405,-3.6405,-3.6405,-3.6405,-3.6405,-3.6279,-3.5504,-3.4856,-3.4274,-3.3332,-3.3124,-3.3124,-3.3124,-3.3124,-3.3124,-3.3124,-3.3124,-3.3124,-3.3124,-3.3124,-3.3124,-3.3124,-3.293,-3.2616,-3.2051,-3.1825,-3.1399,-3.0495,-3.0357,-3.0218,-2.9842,-2.9792,-2.9792,-2.9792,-2.9792,-2.9792,-2.9792,-2.9792,-2.9792,-2.9792,-2.9792,-2.9792,-2.9792,-2.9792,-2.9792,-2.9792,-2.9792,-2.9792,-2.9792,-2.9792,-2.9792,-2.9792,-2.9792,-2.9792,-4.0764,-4.1491,-4.1524,-4.0986,-4.0931,-4.0473,-3.8641,-3.7933,-3.7255,-3.5804,-3.5504,-3.5504,-3.5504,-3.5504,-3.5908,-3.7105,-3.7913,0.0,0.0,0.0,0.0,-4.511,0.0,0.0,0.0,0.0,0.0,0.0,0.0,0.0,0.0,-4.7309,-4.6931,-4.6166,-4.4396,-4.3122,-4.2315,-3.982,-3.8366,-3.8002,-3.7236,-3.6732,-3.6405,-3.6405,0.0,0.0,0.0,0.0,0.0,-3.6405,-3.6405,-3.6405,-3.6405,-3.6405,-3.6405,-3.6405,-3.6405,-3.6405,-3.6405,-3.6405,-3.6405,-3.6405,-3.6128,-3.568,-3.5295,-3.4806,-3.4223,-3.3332,-3.3124,-3.3124,-3.3124,-3.3124,-3.3124,-3.3124,-3.3124,-3.3124,-3.3124,-3.3124,-3.3124,-3.3124,-3.3124,-3.2893,-3.2315,-3.2215,-3.1913,-3.1035,-3.0746,-3.0495,-3.0143,-2.993,-2.9792,-2.9792,-2.9792,-2.9792,-2.9792,-2.9792,-2.9792,-2.9792,-2.9792,-2.9792,-2.9792,-2.9792,-2.9792,-2.9792,-2.9792,-2.9792,-2.9792,-2.9792,-2.9792,-2.9792,-2.9792,-2.9792,0.0,-4.1557,-4.2186,-4.2716,-4.1504,-4.0008,-3.9364,-3.7808,0.0,-3.5639,-3.5504,-3.5519,-3.5564,-3.5534,-3.5549,-3.5684,-3.721,0.0,0.0,-4.1265,0.0,0.0,-4.6726,0.0,0.0,0.0,0.0,0.0,0.0,0.0,0.0,-4.7309,-4.7309,-4.7309,-4.4783,-4.3434,-4.3434,-3.98,-3.799,-3.7939,-3.6872,-3.6405,-3.6405,-3.6405,0.0,0.0,0.0,0.0,0.0,-3.6405,-3.6405,-3.6405,-3.6405,-3.6405,-3.6405,-3.6405,-3.6405,-3.6405,-3.6405,-3.6405,-3.6405,-3.6405,-3.5667,-3.4826,-3.4705,-3.4311,-3.3734,-3.3219,-3.3124,-3.3124,-3.3124,-3.3124,-3.3124,-3.3124,-3.3124,-3.3124,-3.3124,-3.3124,-3.3124,-3.3124,-3.3124,-3.2905,-3.2365,-3.2277,-3.2089,-3.1537,-3.1035,-3.0721,-3.067,-3.0193,-2.9854,-2.9854,-2.9817,-2.9792,-2.9792,-2.9792,-2.9792,-2.9792,-2.9792,-2.9792,-2.9792,-2.9792,-2.9792,-2.9792,-2.9792,-2.9792,-2.9792,-2.9792,-2.9792,-2.9792,-2.9792,-2.9792,-3.7285,0.0,-3.8497,-3.8182,-3.8108,-3.7943,0.0,-3.6821,-3.6297,-3.5639,-3.5504,-3.5669,-3.6163,-3.5848,-3.5983,-3.7479,0.0,-3.8796,-4.0008,0.0,0.0,-4.8086,-4.906,0.0,0.0,0.0,0.0,0.0,0.0,0.0,0.0,-4.7309,-4.7309,-4.7309,-4.4416,-4.2906,-4.2906,-3.9654,-3.7789,-3.7374,-3.6732,-3.6405,-3.6405,-3.6405,0.0,0.0,0.0,0.0,-3.6405,-3.6405,-3.6405,-3.6405,-3.6405,-3.6405,-3.6405,-3.6405,-3.6405,-3.6405,-3.6405,-3.6405,-3.6405,-3.6405,-3.6229,-3.5818,-3.4977,-3.4035,-3.3244,-3.3162,-3.3124,-3.3124,-3.3124,-3.3124,-3.3124,-3.3124,-3.3124,-3.3124,-3.3124,-3.3124,-3.3124,-3.3124,-3.3124,-3.3031,-3.2893,-3.2867,-3.2679,-3.2102,-3.1913,-3.1687,-3.126,-3.0746,-3.0419,-3.0419,-3.0043,-2.9792,-2.9792,-2.9792,-2.9792,-2.9792,-2.9792,-2.9792,-2.9792,-2.9792,-2.9792,-2.9792,-2.9792,-2.9792,-2.9792,-2.9792,-2.9792,-2.9792,-2.9792,-2.9792,-3.5381,-3.6353,-3.7404,-3.7375,-3.7389,-3.7315,-3.6985,-3.6462,-3.5824,-3.4979,-3.4806,-3.4794,-3.4708,-3.5025,-3.5619,-3.6683,-3.7996,0.0,0.0,0.0,-4.6636,-4.903,0.0,0.0,0.0,0.0,0.0,0.0,0.0,0.0,0.0,-4.6741,-4.6447,-4.6447,-4.3435,-4.2092,-4.2699,-3.9329,-3.7475,-3.7174,-3.6669,-3.6405,-3.6405,-3.6405,-3.6405,0.0,0.0,0.0,-3.6405,-3.6405,-3.6405,-3.6405,-3.6405,-3.6405,-3.6405,-3.6405,-3.6405,-3.6405,-3.6405,-3.6405,-3.6405,-3.6405,-3.6194,-3.583,-3.4977,-3.4123,-3.3395,-3.3156,-3.3124,-3.3124,-3.3124,-3.3124,-3.3124,-3.3124,-3.3124,-3.3124,-3.3124,-3.3124,-3.3124,-3.3124,-3.3124,-3.3124,-3.3124,-3.3124,-3.2968,-3.2654,-3.239,-3.2102,-3.18,-3.1298,-3.0972,-3.0972,-3.0708,-3.052,-3.052,-3.0306,-3.0068,-2.9817,-2.9792,-2.9792,-2.9792,-2.9792,-2.9792,-2.9792,-2.9792,-2.9792,-2.9792,-2.9792,-2.9792,-2.9792,-2.9792,-2.9792,-3.4695,-3.5869,-3.7322,-3.749,-3.7138,-3.6783,-3.6694,-3.5937,-3.4986,-3.3993,-3.391,-3.3762,-3.302,-3.398,-3.5031,-3.5496,0.0,0.0,-4.4047,-4.5708,-4.7279,-4.9105,0.0,0.0,0.0,0.0,0.0,0.0,0.0,0.0,0.0,-4.5973,-4.5255,-4.5018,-4.2161,-4.1159,-4.2131,-3.8843,-3.7149,-3.7048,-3.6631,-3.6405,-3.6405,-3.6405,-3.6405,0.0,0.0,0.0,-3.6405,-3.6405,-3.6405,-3.6405,-3.6405,-3.6405,-3.6405,-3.6405,-3.6405,-3.6405,-3.6405,-3.6405,-3.6405,-3.6405,-3.6044,-3.552,-3.4969,-3.4525,-3.4022,-3.3382,-3.3144,-3.3124,-3.3124,-3.3124,-3.3124,-3.3124,-3.3124,-3.3124,-3.3124,-3.3124,-3.3124,-3.3124,-3.3124,-3.3124,-3.3124,-3.3124,-3.3124,-3.3124,-3.2654,-3.234,-3.234,-3.1863,-3.1512,-3.1512,-3.1436,-3.1386,-3.1386,-3.0984,-3.0532,-3.0068,-2.988,-2.9792,-2.9792,-2.9792,-2.9792,-2.9792,-2.9792,-2.9792,-2.9792,-2.9792,-2.9792,-2.9792,-2.988,-2.9917,-3.6637,-3.6846,-3.6265,-3.4043,-3.3758,-3.3904,-3.3423,-3.3813,-3.3959,-3.3031,-3.3449,-3.4033,-3.4117,-3.426,-3.5218,-3.7801,0.0,-4.326,0.0,0.0,-4.8297,0.0,0.0,0.0,0.0,0.0,0.0,0.0,0.0,0.0,0.0,-4.5494,-4.4676,-4.3175,-4.1113,-3.9919,-3.9647,-3.804,-3.6948,-3.6531,-3.6455,-3.6405,-3.6405,-3.6405,-3.6405,0.0,0.0,-3.6405,-3.6405,-3.6405,-3.6405,-3.6405,-3.6405,-3.6405,-3.6405,-3.6405,-3.6405,-3.6405,-3.6405,-3.6405,-3.6405,-3.6405,-3.6355,-3.6132,-3.5533,-3.5307,-3.5031,-3.406,-3.3432,-3.3124,-3.3124,-3.3124,-3.3124,-3.3124,-3.3124,-3.3124,-3.3124,-3.3124,-3.3124,-3.3124,-3.3124,-3.3124,-3.3124,-3.3124,-3.3124,-3.3124,-3.3006,-3.2943,-3.2943,-3.2441,-3.2089,-3.2089,-3.1675,-3.1386,-3.1386,-3.1323,-3.1235,-3.1148,-3.0294,-2.9792,-2.9792,-2.9792,-2.9792,-2.9792,-2.9792,-2.9792,-2.9792,-2.9792,-2.9792,-2.9804,-3.0269,-3.0495,-3.5545,-3.5627,-3.5258,-3.323,-3.3802,-3.4716,-3.4185,-3.413,-3.3893,-3.2922,-3.3057,-3.342,-3.3614,-3.4936,-3.7245,-4.1119,0.0,-4.4058,-4.4743,-4.6517,0.0,0.0,0.0,0.0,0.0,0.0,0.0,0.0,0.0,0.0,0.0,0.0,-4.2506,-4.168,-3.9577,-3.8337,-3.808,-3.7207,-3.6656,-3.6405,-3.6405,-3.6405,-3.6405,-3.6405,-3.6405,-3.6405,0.0,-3.6405,-3.6405,-3.6405,-3.6405,-3.6405,-3.6405,-3.6405,-3.6405,-3.6405,-3.6405,-3.6405,-3.6405,-3.6405,-3.6405,-3.6405,-3.6405,-3.6304,-3.5658,-3.5495,-3.5332,-3.4575,-3.4161,-3.3822,-3.3232,-3.3307,-3.3445,-3.3156,-3.3124,-3.3124,-3.3124,-3.3124,-3.3124,-3.3124,-3.3124,-3.3124,-3.3124,-3.3124,-3.3124,-3.3124,-3.3124,-3.3124,-3.3124,-3.2842,-3.2679,-3.2679,-3.2453,-3.2303,-3.2303,-3.2014,-3.1712,-3.1411,-3.0934,-3.0658,-3.0658,-3.0382,-3.0369,-3.0645,-3.0093,-2.9942,-3.0231,-3.0231,-3.0231,-3.0256,-3.0783,-3.1035,-3.5161,-3.5068,-3.4831,-3.3686,-3.4375,-3.526,-3.5034,-3.4653,-3.4145,-3.3392,-3.3528,-3.3794,-3.3807,-3.6455,0.0,-4.354,-4.4368,-4.4606,-4.4642,0.0,0.0,0.0,0.0,0.0,0.0,0.0,0.0,0.0,0.0,0.0,0.0,0.0,-4.0584,-4.0161,-3.8248,-3.7123,-3.6998,-3.6619,-3.6405,-3.6405,-3.6405,-3.6405,-3.6405,-3.6405,-3.6405,-3.6405,-3.6405,-3.6405,-3.6405,-3.6405,-3.6405,-3.6405,-3.6405,-3.6405,-3.6405,-3.6405,-3.6405,-3.6405,-3.6405,-3.6405,-3.6405,-3.6405,-3.6405,-3.6329,-3.5868,-3.5683,-3.5617,-3.5019,-3.5014,-3.4826,-3.3583,-3.3583,-3.3759,-3.3206,-3.3124,-3.3124,-3.3124,-3.3124,-3.3124,-3.3124,-3.3124,-3.3124,-3.3124,-3.3124,-3.3124,-3.3124,-3.3124,-3.3124,-3.3124,-3.3124,-3.3124,-3.3124,-3.3124,-3.3124,-3.3124,-3.2667,-3.224,-3.1813,-3.1537,-3.1386,-3.1386,-3.1009,-3.0984,-3.1386,-3.0583,-3.0382,-3.0796,-3.0796,-3.0796,-3.0809,-3.1336,-3.1587,-3.7784,-3.6877,-3.5579,-3.5287,-3.4104,-3.321,-3.384,-3.4237,-3.4486,-3.4559,-3.5748,-3.6675,-3.6335,-3.9647,-4.2694,-4.3517,-4.4571,-4.532,0.0,0.0,0.0,0.0,0.0,0.0,0.0,0.0,0.0,0.0,0.0,0.0,0.0,0.0,0.0,-3.8275,-3.7536,-3.6935,-3.6468,-3.643,-3.6405,-3.6405,-3.6405,-3.6405,-3.6405,-3.6405,-3.6405,-3.6405,-3.6405,-3.6405,-3.6405,-3.6405,-3.6405,-3.6405,-3.6405,-3.6405,-3.6405,-3.6405,-3.6405,-3.6405,-3.6405,-3.6405,-3.6405,-3.6405,-3.6405,-3.6405,-3.6367,-3.6355,-3.6194,-3.5596,-3.5855,-3.5915,-3.4261,-3.3872,-3.3759,-3.3206,-3.3124,-3.3124,-3.3124,-3.3124,-3.3124,-3.3124,-3.3124,-3.3124,-3.3124,-3.3124,-3.3124,-3.3124,-3.3124,-3.3124,-3.3124,-3.3124,-3.3124,-3.3124,-3.3124,-3.3124,-3.3124,-3.3043,-3.3006,-3.2998,-3.1976,-3.1386,-3.1386,-3.1348,-3.1348,-3.1386,-3.1311,-3.1298,-3.1336,-3.1336,-3.1336,-3.1348,-3.1901,-3.2152,-3.6462,-3.6664,-3.6775,-3.6821,-3.6161,-3.5182,-3.4158,-3.4838,-3.5785,-3.6188,-3.7391,-3.8776,-4.0122,0.0,-4.3789,-4.408,-4.4827,-4.4826,0.0,0.0,0.0,0.0,0.0,0.0,0.0,0.0,0.0,0.0,0.0,0.0,0.0,0.0,0.0,-3.7561,-3.696,-3.6619,-3.6405,-3.6405,-3.6405,-3.6405,-3.6405,-3.6405,-3.6405,-3.6405,-3.6405,-3.6405,-3.6405,-3.6405,-3.6405,-3.6405,-3.6405,-3.6405,-3.6405,-3.6405,-3.6405,-3.6405,-3.6405,-3.6405,-3.6405,-3.6405,-3.6405,-3.6405,-3.6405,-3.6405,-3.6405,-3.6405,-3.6367,-3.6107,-3.6194,-3.6103,-3.4751,-3.4412,-3.4274,-3.3721,-3.3319,-3.3124,-3.3124,-3.3124,-3.3124,-3.3124,-3.3124,-3.3124,-3.3124,-3.3124,-3.3124,-3.3124,-3.3124,-3.3124,-3.3124,-3.3124,-3.3124,-3.3124,-3.3124,-3.3124,-3.3124,-3.3124,-3.3124,-3.3124,-3.2722,-3.2483,-3.2483,-3.2089,-3.2064,-3.2428,-3.175,-3.1562,-3.1901,-3.1901,-3.1901,-3.1913,-3.2491,-3.2754,-3.5818,-3.6297,-3.6822,-3.6845,-3.6768,-3.6416,-3.5205,-3.5924,-3.7161,-3.8052,-3.9225,-4.0531,-4.185,0.0,0.0,0.0,-4.392,0.0,0.0,0.0,0.0,0.0,0.0,0.0,0.0,0.0,0.0,0.0,0.0,0.0,0.0,0.0,0.0,0.0,-3.6694,-3.6405,-3.6405,-3.6405,-3.6405,-3.6405,-3.6405,-3.6405,-3.6405,-3.6405,-3.6405,-3.6405,-3.6405,-3.6405,-3.6405,-3.6405,-3.6405,-3.6405,-3.6405,-3.6405,-3.6405,-3.6405,-3.6405,-3.6405,-3.6405,-3.6405,-3.6405,-3.6405,-3.6405,-3.6405,-3.6405,-3.6405,-3.6405,-3.6405,-3.6405,-3.6204,-3.5215,-3.4806,-3.4575,-3.4035,-3.3483,-3.3124,-3.3124,-3.3124,-3.3124,-3.3124,-3.3124,-3.3124,-3.3124,-3.3124,-3.3124,-3.3124,-3.3124,-3.3124,-3.3124,-3.3124,-3.3124,-3.3124,-3.3124,-3.3124,-3.3124,-3.3124,-3.3124,-3.3124,-3.3124,-3.3124,-3.3124,-3.2692,-3.2667,-3.3111,-3.2315,-3.2114,-3.2491,-3.2491,-3.2491,-3.2491,-3.2893,-3.3124,-3.6477,-3.6013,-3.5439,-3.5125,-3.548,-3.6157,-3.6968,-3.7591,-3.8492,-4.0174,-4.1475,-4.1961,-4.09,-4.2201,0.0,-4.1876,0.0,0.0,0.0,0.0,0.0,0.0,0.0,0.0,0.0,0.0,0.0,0.0,0.0,0.0,0.0,0.0,0.0,0.0,-3.6694,-3.6405,-3.6405,-3.6405,-3.6405,-3.6405,-3.6405,-3.6405,-3.6405,-3.6405,-3.6405,-3.6405,-3.6405,-3.6405,-3.6405,-3.6405,-3.6405,-3.6405,-3.6405,-3.6405,-3.6405,-3.6405,-3.6405,-3.6405,-3.6405,-3.6405,-3.6405,-3.6405,-3.6405,-3.6405,-3.6405,-3.6405,-3.6405,-3.6405,-3.6405,-3.6279,-3.5646,-3.5094,-3.4575,-3.4035,-3.3483,-3.3124,-3.3124,-3.3124,-3.3124,-3.3124,-3.3124,-3.3124,-3.3124,-3.3124,-3.3124,-3.3124,-3.3124,-3.3124,-3.3124,-3.3124,-3.3124,-3.3124,-3.3124,-3.3124,-3.3124,-3.3124,-3.3124,-3.3124,-3.3124,-3.3124,-3.3124,-3.3124,-3.3124,-3.3124,-3.3124,-3.3124,-3.3124,-3.3124,-3.3124,-3.3124,-3.3124,-3.3124,-3.5923,-3.6641,-3.762,-3.8014,-3.902,-3.9956,-4.0134,-3.9381,-3.9259,-4.1414,-4.1755,-4.1729,-4.1914,-4.2375,0.0,0.0,0.0,0.0,0.0,0.0,0.0,0.0,0.0,0.0,0.0,0.0,0.0,0.0,0.0,0.0,0.0,0.0,0.0,0.0,-3.6493,-3.6405,-3.6405,-3.6405,-3.6405,-3.6405,-3.6405,-3.6405,-3.6405,-3.6405,-3.6405,-3.6405,-3.6405,-3.6405,-3.6405,-3.6405,-3.6405,-3.6405,-3.6405,-3.6405,-3.6405,-3.6405,-3.6405,-3.6405,-3.6405,-3.6405,-3.6405,-3.6405,-3.6405,-3.6405,-3.6405,-3.6405,-3.6405,-3.6405,-3.6405,-3.6279,-3.5646,-3.5094,-3.4575,-3.4035,-3.3483,-3.3124,-3.3124,-3.3124,-3.3124,-3.3124,-3.3124,-3.3124,-3.3124,-3.3124,-3.3124,-3.3124,-3.3124,-3.3124,-3.3124,-3.3124,-3.3124,-3.3124,-3.3124,-3.3124,-3.3124,-3.3124,-3.3124,-3.3124,-3.3124,-3.3124,-3.3124,-3.3124,-3.3124,-3.3124,-3.3124,-3.3124,-3.3124,-3.3124,-3.3124,-3.3124,-3.3124,-3.3124,-3.5388,-3.6477,-3.7986,-3.8929,-4.0178,-4.1198,-4.1228,-4.0363,-3.9955,0.0,-4.1498,-4.1344,-4.1116,-4.1442,0.0,0.0,0.0,0.0,0.0,0.0,0.0,0.0,0.0,0.0,0.0,0.0,0.0,0.0,0.0,0.0,0.0,0.0,0.0,0.0,-3.6405,-3.6405,-3.6405,-3.6405,-3.6405,-3.6405,-3.6405,-3.6405,-3.6405,-3.6405,-3.6405,-3.6405,-3.6405,-3.6405,-3.6405,-3.6405,-3.6405,-3.6405,-3.6405,-3.6405,-3.6405,-3.6405,-3.6405,-3.6405,-3.6405,-3.6405,-3.6405,-3.6405,-3.6405,-3.6405,-3.6405,-3.6405,-3.6405,-3.6405,-3.6405,-3.6229,-3.537,-3.4919,-3.4575,-3.4035,-3.3483,-3.3124,-3.3124,-3.3124,-3.3124,-3.3124,-3.3124,-3.3124,-3.3124,-3.3124,-3.3124,-3.3124,-3.3124,-3.3124,-3.3124,-3.3124,-3.3124,-3.3124,-3.3124,-3.3124,-3.3124,-3.3124,-3.3124,-3.3124,-3.2612,-3.2339,-3.2339,-3.284,-3.284,-3.2382,-3.2339,-3.2339,-3.2339,-3.2339,-3.2612,-3.3124,-3.3124,-3.3124,-3.507,-3.6028,-3.735,-3.863,-3.9805,-4.076,-4.0999,-4.0719,-4.0438,-4.0438,0.0,-4.0787,-3.9272,-3.9833,0.0,0.0,0.0,0.0,0.0,0.0,0.0,0.0,0.0,0.0,0.0,0.0,0.0,0.0,0.0,0.0,0.0,0.0,0.0,-3.6405,-3.6405,-3.6452,-3.6534,-3.6452,-3.6452,0.0,-3.6452,-3.6405,-3.6405,-3.6405,-3.6405,-3.6405,-3.6405,-3.6405,-3.6405,-3.6405,-3.6405,-3.6405,-3.6405,-3.6405,-3.6405,-3.6405,-3.6405,-3.6405,-3.6405,-3.6405,-3.6405,-3.6405,-3.6405,-3.6405,-3.6405,-3.6405,-3.6405,-3.6405,-3.6405,-3.6153,-3.5014,-3.468,-3.4575,-3.3972,-3.3432,-3.3124,-3.3124,-3.3124,-3.3124,-3.3124,-3.3124,-3.3124,-3.3124,-3.3124,-3.3124,-3.3124,-3.3124,-3.3124,-3.3124,-3.3124,-3.3124,-3.3124,-3.3124,-3.3124,-3.3124,-3.2982,-3.2982,-3.3081,-3.1821,-3.1089,-3.1223,-3.2196,-3.2239,-3.1033,-3.1045,-3.1045,-3.1045,-3.1045,-3.1689,-3.2939,-3.2939,-3.2982,-3.6278,-3.7465,-3.9038,-3.9839,-4.0701,-4.1595,-4.2683,-4.1319,-3.9873,-3.9873,-3.9966,-3.9943,-3.9585,0.0,0.0,0.0,0.0,0.0,0.0,0.0,0.0,0.0,0.0,0.0,0.0,0.0,0.0,0.0,0.0,0.0,0.0,0.0,0.0,-3.6405,-3.6405,-3.6849,-3.7723,-3.6849,-3.6849,0.0,-3.6849,-3.6405,-3.6405,-3.6405,-3.6405,-3.6405,-3.6405,-3.6405,-3.6405,-3.6405,-3.6405,-3.6405,-3.6405,-3.6405,-3.6405,-3.6405,-3.6405,-3.6405,-3.6405,-3.6405,-3.6405,-3.6405,-3.6405,-3.6405,-3.6405,-3.6405,-3.6405,-3.6405,-3.6405,-3.6153,-3.5014,-3.468,-3.4474,-3.3483,-3.3156,-3.3124,-3.3124,-3.3124,-3.3124,-3.3124,-3.3124,-3.3124,-3.3124,-3.3124,-3.3124,-3.3124,-3.3124,-3.3124,-3.3124,-3.3124,-3.3124,-3.3124,-3.3124,-3.3124,-3.3124,-3.2196,-3.2052,-3.3025,-3.1012,-3.0214,-3.1178,-3.0541,-3.009,-2.9772,-2.9772,-2.9772,-2.9772,-2.9772,-3.0406,-3.1589,-3.1589,-3.214,-3.5829,-3.7386,-3.9696,-4.2136,-4.2352,-4.2251,-4.3296,-4.1555,-3.9622,-3.9358,-3.9509,-3.9697,-3.9697,0.0,0.0,0.0,0.0,0.0,0.0,0.0,0.0,0.0,0.0,0.0,0.0,0.0,0.0,0.0,0.0,0.0,0.0,-3.6405,-3.6405,-3.6405,-3.6405,-3.6675,-3.7276,-3.6709,-3.6709,-3.7276,-3.6675,-3.6405,-3.6405,-3.6405,-3.6405,-3.6405,-3.6405,-3.6405,-3.6405,-3.6405,-3.6405,-3.6405,-3.6405,-3.6405,-3.6405,-3.6405,-3.6405,-3.6405,-3.6405,-3.6405,-3.6405,-3.6405,-3.6405,-3.6405,-3.6405,-3.6405,-3.6405,-3.6405,-3.6405,-3.6153,-3.5014,-3.468,-3.4449,-3.3345,-3.3124,-3.3124,-3.3124,-3.3124,-3.3124,-3.3124,-3.3124,-3.3124,-3.3124,-3.3124,-3.3124,-3.3124,-3.3124,-3.3124,-3.3124,-3.3124,-3.3124,-3.3124,-3.3124,-3.3124,-3.3124,-3.1909,-3.15,-3.2152,-2.9909,-2.8819,-2.9453,-2.8308,-2.7898,-2.8541,-2.8541,-2.8541,-2.8541,-2.8541,-2.9177,-3.0361,-3.0361,-3.0676,-3.486,-3.6823,-3.9838,-4.3675,-4.3413,0.0,-4.2751,-4.1054,-3.927,-3.8818,-3.917,-3.9521,0.0,0.0,0.0,0.0,0.0,0.0,0.0,0.0,0.0,0.0,0.0,0.0,0.0,0.0,0.0,0.0,0.0,0.0,-3.643,-3.6405,-3.6405,-3.6405,-3.6405,-3.6499,-3.6675,-3.6499,-3.6499,-3.6675,-3.6499,-3.6405,-3.6405,-3.6405,-3.6405,-3.6405,-3.6405,-3.6405,-3.6405,-3.6405,-3.6405,-3.6405,-3.6405,-3.6405,-3.6405,-3.6405,-3.6405,-3.6405,-3.6405,-3.6405,-3.6405,-3.6405,-3.6405,-3.6405,-3.6405,-3.6405,-3.6405,-3.6405,-3.6405,-3.6179,-3.5127,-3.4818,-3.4613,-3.3608,-3.337,-3.3307,-3.3162,-3.3124,-3.3124,-3.3124,-3.3124,-3.3106,-3.3206,-3.3262,-3.3262,-3.3262,-3.3262,-3.3181,-3.3124,-3.3124,-3.3025,-3.2797,-3.2982,-3.2939,-3.2525,-3.15,-3.0899,-3.0899,-2.8634,-2.7363,-2.7589,-2.639,-2.6197,-2.7268,-2.7268,-2.7268,-2.7268,-2.7268,-2.7908,-2.9085,-2.9085,-2.9223,-3.4713,-3.6871,-3.9765,-4.1622,-4.1524,-4.084,0.0,0.0,-3.8216,0.0,-3.858,0.0,0.0,0.0,0.0,0.0,0.0,0.0,0.0,0.0,0.0,0.0,0.0,0.0,0.0,0.0,0.0,0.0,0.0,0.0,-3.6405,-3.6405,-3.6405,-3.6405,-3.6405,-3.6896,-3.7848,-3.6883,-3.6883,-3.7848,-3.6896,-3.6405,-3.6405,-3.6405,-3.6405,-3.6405,-3.6405,-3.6405,-3.6405,-3.6405,-3.6405,-3.6405,-3.6405,-3.6405,-3.6405,-3.6405,-3.6405,-3.6405,-3.6405,-3.6405,-3.6405,-3.6405,-3.6405,-3.6405,-3.6405,-3.6405,-3.6405,-3.6405,-3.6405,-3.6267,-3.5558,-3.5395,-3.5232,-3.465,-3.45,-3.4236,-3.3282,-3.3124,-3.3124,-3.3124,-3.3124,-3.3275,-3.3709,-3.3796,-3.3796,-3.3796,-3.3796,-3.3621,-3.3174,-3.3124,-3.2655,-3.1589,-3.2426,-3.2239,-3.009,-2.9727,-2.9636,-2.9636,-2.7295,-2.6428,-2.7542,-2.639,-2.5781,-2.5965,-2.5965,-2.5965,-2.5965,-2.5965,-2.662,-2.7814,-2.7814,-2.8402,-3.5789,-3.7449,-3.945,-4.1947,-4.1354,-4.0271,-4.0776,-3.9385,-3.7914,-3.7613,0.0,0.0,0.0,0.0,0.0,0.0,0.0,0.0,0.0,0.0,0.0,0.0,0.0,0.0,0.0,0.0,0.0,0.0,0.0,-3.6405,-3.6405,-3.6405,-3.6405,-3.6405,-3.6405,-3.6628,-3.715,-3.6675,-3.6675,-3.715,-3.6628,-3.6405,-3.6405,-3.6405,-3.6405,-3.6405,-3.6405,-3.6405,-3.6405,-3.6405,-3.6405,-3.6405,-3.6405,-3.6405,-3.6405,-3.6405,-3.6405,-3.6405,-3.6405,-3.6405,-3.6405,-3.6405,-3.6405,-3.6405,-3.6405,-3.6405,-3.6405,-3.6405,-3.6405,-3.6279,-3.5646,-3.5495,-3.5357,-3.4806,-3.468,-3.4587,-3.411,-3.3997,-3.3997,-3.3997,-3.3997,-3.3972,-3.3909,-3.4161,-3.3968,-3.2951,-3.2824,-3.2502,-3.1506,-3.1177,-3.0822,-3.0271,-3.1323,-3.1323,-2.9544,-2.9407,-2.9085,-2.8402,-2.6706,-2.5965,-2.6524,-2.6014,-2.5693,-2.5693,-2.5693,-2.5693,-2.5693,-2.5693,-2.5965,-2.6524,-2.6524,-2.6791,-3.5802,-3.7015,-3.8292,-4.0967,-4.0337,-3.9312,0.0,0.0,-3.7299,0.0,0.0,0.0,0.0,0.0,0.0,0.0,0.0,0.0,0.0,0.0,0.0,0.0,0.0,0.0,0.0,0.0,0.0,0.0,0.0,-3.6405,-3.6405,-3.6405,-3.6405,-3.6405,-3.6405,-3.6405,-3.6405,-3.6405,-3.6405,-3.6405,-3.6405,-3.6405,-3.6405,-3.6405,-3.6405,-3.6405,-3.6405,-3.6405,-3.6405,-3.6405,-3.6405,-3.6405,-3.6405,-3.6405,-3.6405,-3.6405,-3.6405,-3.6405,-3.6405,-3.6405,-3.6405,-3.6405,-3.6405,-3.6405,-3.6405,-3.6405,-3.6405,-3.6405,-3.6405,-3.6317,-3.5868,-3.5708,-3.5655,-3.524,-3.514,-3.5064,-3.4776,-3.468,-3.468,-3.468,-3.468,-3.4638,-3.4361,-3.4663,-3.4309,-3.2563,-3.2377,-3.1844,-3.0204,-2.9764,-2.9403,-2.8969,-3.0316,-3.0451,-2.8634,-2.9039,-2.8773,-2.722,-2.6245,-2.5693,-2.5693,-2.5693,-2.5693,-2.5693,-2.5693,-2.5693,-2.5693,-2.5693,-2.5693,-2.5693,-2.5693,-2.5693,-3.3305,-3.4651,0.0,-3.6808,-3.7116,-3.7235,0.0,0.0,0.0,0.0,0.0,0.0,0.0,0.0,0.0,0.0,0.0,0.0,0.0,0.0,0.0,0.0,0.0,0.0,0.0,0.0,0.0,0.0,0.0,-3.6405,-3.6405,-3.6405,-3.6405,-3.6405,-3.6405,-3.6405,-3.6405,-3.6405,-3.6405,-3.6405,-3.6405,-3.6405,-3.6405,-3.6405,-3.6405,-3.6405,-3.6405,-3.6405,-3.6405,-3.6405,-3.6405,-3.6405,-3.6405,-3.6405,-3.6405,-3.6405,-3.6405,-3.6405,-3.6405,-3.6405,-3.6405,-3.6405,-3.6405,-3.6405,-3.6405,-3.6405,-3.6405,-3.6405,-3.6405,-3.6405,-3.6367,-3.6367,-3.6355,-3.6329,-3.6317,-3.604,-3.4951,-3.468,-3.468,-3.468,-3.468,-3.4831,-3.532,-3.5433,-3.5003,-3.3636,-3.3434,-3.2593,-3.0294,-2.9961,-2.9396,-2.7867,-2.9818,-2.9761,-2.6197,-2.8028,-2.8355,-2.5965,-2.5732,-2.5693,-2.5693,-2.5693,-2.5693,-2.5693,-2.5693,-2.5693,-2.5693,-2.5693,-2.5693,-2.5693,-2.5693,-2.5693,-3.2736,0.0,0.0,-3.6271,-3.6721,-3.6897,-3.7071,-3.6796,-3.6412,0.0,0.0,0.0,0.0,0.0,0.0,0.0,0.0,0.0,0.0,0.0,0.0,0.0,0.0,0.0,0.0,0.0,0.0,0.0,0.0,0.0,-3.6405,-3.6405,-3.6405,-3.6405,-3.6405,-3.6405,-3.6405,-3.6405,-3.6405,-3.6405,-3.6405,-3.6405,-3.6405,-3.6405,-3.6405,-3.6405,-3.6405,-3.6405,-3.6405,-3.6405,-3.6405,-3.6405,-3.6405,-3.6405,-3.6405,-3.6405,-3.6405,-3.6405,-3.6405,-3.6405,-3.6405,-3.6405,-3.6405,-3.6405,-3.6405,-3.6405,-3.6405,-3.6405,-3.6405,-3.6405,-3.6405,-3.6405,-3.6405,-3.6405,-3.6405,-3.6304,-3.5855,-3.5768,-3.5768,-3.5768,-3.5768,-3.573,-3.552,-3.583,-3.5201,-3.2626,-3.23,-3.143,-2.8844,-2.8255,-2.7758,-2.691,-2.8296,-2.8311,-2.5898,-2.7258,-2.7542,-2.583,-2.5693,-2.5693,-2.5693,-2.5693,-2.5693,-2.5693,-2.5693,-2.5693,-2.5693,-2.5693,-2.5693,-2.5693,-2.5693,-2.5693,-3.2153,-3.314,0.0,0.0,0.0,-3.5831,-3.729,0.0,0.0,0.0,0.0,0.0,0.0,0.0,0.0,0.0,0.0,0.0,0.0,0.0,0.0,0.0,0.0,0.0,0.0,0.0,0.0,0.0,0.0,0.0,-3.6405,-3.6405,-3.6405,-3.6405,-3.6405,-3.6405,-3.6405,-3.6405,-3.6405,-3.6405,-3.6405,-3.6405,-3.6405,-3.6405,-3.6405,-3.6405,-3.6405,-3.6405,-3.6405,-3.6405,-3.6405,-3.6405,-3.6405,-3.6405,-3.6405,-3.6405,-3.6405,-3.6405,-3.6405,-3.6405,-3.6405,-3.6405,-3.6405,-3.6405,-3.6405,-3.6405,-3.6405,-3.6405,-3.6405,-3.6405,-3.6405,-3.6405,-3.6405,-3.6405,-3.6405,-3.6405,-3.6405,-3.6405,-3.6405,-3.6405,-3.6405,-3.6292,-3.5881,-3.6119,-3.5328,-3.2241,-3.1849,-3.0856,-2.8083,-2.7412,-2.7012,-2.6455,-2.7464,-2.7513,-2.582,-2.6849,-2.7078,-2.5781,-2.5693,-2.5693,-2.5693,-2.5693,-2.5693,-2.5693,-2.5693,-2.5693,-2.5693,-2.5693,-2.5693,-2.5693,-2.5693,-2.5693,0.0,0.0,0.0,0.0,0.0,0.0,-3.7681,0.0,0.0,0.0,0.0,0.0,0.0,0.0,0.0,0.0,0.0,0.0,0.0,0.0,0.0,0.0,0.0,0.0,0.0,0.0,0.0,0.0,0.0,-3.6405,-3.6405,-3.6405,-3.6405,-3.6405,-3.6405,-3.6405,-3.6405,-3.6405,-3.6405,-3.6405,-3.6405,-3.6405,-3.6405,-3.6405,-3.6405,-3.6405,-3.6405,-3.6405,-3.6405,-3.6405,-3.6405,-3.6405,-3.6405,-3.6405,-3.6405,-3.6405,-3.6405,-3.6405,-3.6405,-3.6405,-3.6405,-3.6405,-3.6405,-3.6405,-3.6405,-3.6405,-3.6405,-3.6405,-3.6405,-3.6405,-3.6405,-3.6405,-3.6405,-3.6405,-3.6405,-3.6405,-3.6405,-3.6405,-3.6405,-3.6405,-3.6405,-3.6405,-3.6405,-3.6405,-3.5451,-3.2733,-3.228,-3.1215,-2.8133,-2.7738,-2.7353,-2.6494,-2.7484,-2.7485,-2.582,-2.6849,-2.704,-2.5781,-2.5693,-2.5693,-2.5693,-2.5693,-2.5693,-2.5693,-2.5693,-2.5693,-2.5693,-2.5693,-2.5693,-2.5693,-2.5693,-2.5693,-3.1046,0.0,0.0,0.0,0.0,0.0,0.0,0.0,0.0,0.0,0.0,0.0,0.0,0.0,0.0,0.0,0.0,0.0,0.0,0.0,0.0,0.0,0.0,0.0,0.0,0.0,0.0,0.0,-3.6405,-3.6405,-3.6405,-3.6405,-3.6405,-3.6405,-3.6405,-3.6405,-3.6405,-3.6405,-3.6405,-3.6405,-3.6405,-3.6405,-3.6405,-3.6405,-3.6405,-3.6405,-3.6405,-3.6405,-3.6405,-3.6405,-3.6405,-3.6405,-3.6405,-3.6405,-3.6405,-3.6405,-3.6405,-3.6405,-3.6405,-3.6405,-3.6405,-3.6405,-3.6405,-3.6405,-3.6405,-3.6405,-3.6405,-3.6405,-3.6405,-3.6405,-3.6405,-3.6405,-3.6405,-3.6405,-3.6405,-3.6405,-3.6405,-3.6405,-3.6405,-3.6405,-3.6405,-3.6405,-3.6405,-3.6405,-3.5451,-3.2733,-3.228,-3.1272,-2.8486,-2.8125,-2.7793,-2.6934,-2.713,-2.6873,-2.5801,-2.6014,-2.6062,-2.5732,-2.5693,-2.5693,-2.5693,-2.5693,-2.5693,-2.5693,-2.5693,-2.5693,-2.5693,-2.5693,-2.5693,-2.5693,-2.5693,-2.5693,-3.1629,-3.2317,0.0,0.0,0.0,0.0,0.0,-3.4177,0.0,0.0,0.0,0.0,0.0,0.0,0.0,0.0,0.0,0.0,0.0,0.0,0.0,0.0,0.0,0.0,0.0,0.0,0.0,-3.6405,-3.6405,-3.6405,-3.6405,-3.6405,-3.6405,-3.6405,-3.6405,-3.6405,-3.6405,-3.6405,-3.6405,-3.6405,-3.6405,-3.6405,-3.6405,-3.6405,-3.6405,-3.6405,-3.6405,-3.6405,-3.6405,-3.6405,-3.6405,-3.6405,-3.6405,-3.6405,-3.6405,-3.6405,-3.6405,-3.6405,-3.6405,-3.6405,-3.6405,-3.6405,-3.6405,-3.6405,-3.6405,-3.6405,-3.6405,-3.6405,-3.6405,-3.6405,-3.6405,-3.6405,-3.6405,-3.6405,-3.6405,-3.6405,-3.6405,-3.6405,-3.6405,-3.6405,-3.6405,-3.6405,-3.6405,-3.6405,-3.5451,-3.2733,-3.228,-3.1327,-2.8654,-2.8135,-2.7773,-2.709,-2.6855,-2.6475,-2.5742,-2.5693,-2.5693,-2.5693,-2.5693,-2.5693,-2.5693,-2.5693,-2.5693,-2.5693,-2.5693,-2.5693,-2.5693,-2.5693,-2.5693,-2.5684,-2.6245,-2.6297,-3.2781,-3.3469,-3.4354,-3.4219,-3.338,0.0,-3.5429,-3.4347,-3.3725,0.0,0.0,0.0,0.0,0.0,0.0,0.0,0.0,0.0,0.0,0.0,0.0,0.0,0.0,0.0,-3.6405,-3.6405,-3.6405,-3.6405,-3.6405,-3.6405,-3.6405,-3.6405,-3.6405,-3.6405,-3.6405,-3.6405,-3.6405,-3.6405,-3.6405,-3.6405,-3.6405,-3.6405,-3.6405,-3.6405,-3.6405,-3.6405,-3.6405,-3.6405,-3.6405,-3.6405,-3.6405,-3.6405,-3.6405,-3.6405,-3.6405,-3.6405,-3.6405,-3.6405,-3.6405,-3.6405,-3.6405,-3.6405,-3.6405,-3.6405,-3.6405,-3.6405,-3.6405,-3.6405,-3.6405,-3.6405,-3.6405,-3.6405,-3.6405,-3.6405,-3.6405,-3.6405,-3.6405,-3.6405,-3.6405,-3.6405,-3.6405,-3.6405,-3.6405,-3.6405,-3.5451,-3.2733,-3.228,-3.1327,-2.8654,-2.793,-2.75,-2.706,-2.6641,-2.6211,-2.5723,-2.5693,-2.5693,-2.5693,-2.5693,-2.5693,-2.5693,-2.5693,-2.5693,-2.5693,-2.5693,-2.5693,-2.5693,-2.5693,-2.5693,-2.5732,-2.6993,-2.716,-3.3335,-3.3499,-3.344,-3.2333,0.0,0.0,-3.2587,-3.2541,-3.3043,0.0,0.0,0.0,0.0,0.0,0.0,0.0,0.0,0.0,0.0,0.0,0.0,0.0,0.0,0.0,-3.6405,-3.6405,-3.6405,-3.6405,-3.6405,-3.6405,-3.6405,-3.6405,-3.6405,-3.6405,-3.6405,-3.6405,-3.6405,-3.6405,-3.6405,-3.6405,-3.6405,-3.6405,-3.6405,-3.6405,-3.6405,-3.6405,-3.6405,-3.6405,-3.6405,-3.6405,-3.6405,-3.6405,-3.6405,-3.6405,-3.6405,-3.6405,-3.6405,-3.6405,-3.6405,-3.6405,-3.6405,-3.6405,-3.6405,-3.6405,-3.6405,-3.6405,-3.6405,-3.6405,-3.6405,-3.6405,-3.6405,-3.6405,-3.6405,-3.6405,-3.6405,-3.6405,-3.6405,-3.6405,-3.6405,-3.6405,-3.6405,-3.6405,-3.6405,-3.6405,-3.5451,-3.2733,-3.228,-3.1327,-2.8654,-2.793,-2.75,-2.706,-2.6641,-2.6211,-2.5723,-2.5693,-2.5693,-2.5693,-2.5693,-2.5693,-2.5693,-2.5693,-2.5693,-2.5693,-2.5693,-2.5693,-2.5693,-2.5693,-2.5693,-2.5732,-2.6993,-2.6986,-3.4158,-3.4233,-3.4262,-3.326,0.0,0.0,0.0,0.0,0.0,0.0,0.0,0.0,0.0,0.0,0.0,0.0,0.0,0.0,0.0,0.0,0.0,0.0,0.0,0.0,-3.6818,-3.7612,-3.7906,-3.7276,-3.6709,-3.6405,-3.6405,-3.6405,-3.6405,-3.6405,-3.6405,-3.6405,-3.6405,-3.6405,-3.6405,-3.6405,-3.6405,-3.6405,-3.6405,-3.6405,-3.6405,-3.6405,-3.6405,-3.6405,-3.6405,-3.6405,-3.6405,-3.6405,-3.6405,-3.6405,-3.6405,-3.6405,-3.6405,-3.6405,-3.6405,-3.6405,-3.6405,-3.6405,-3.6405,-3.6405,-3.6405,-3.6405,-3.6405,-3.6405,-3.6405,-3.6405,-3.6405,-3.6405,-3.6405,-3.6405,-3.6405,-3.6405,-3.6405,-3.6405,-3.6405,-3.6405,-3.6405,-3.6405,-3.6405,-3.6405,-3.5451,-3.2733,-3.228,-3.124,-2.8358,-2.7607,-2.7178,-2.6748,-2.6318,-2.5977,-2.5703,-2.5693,-2.5693,-2.5693,-2.5693,-2.5693,-2.5693,-2.5693,-2.5693,-2.5693,-2.5693,-2.5693,-2.5693,-2.5693,-2.5693,-2.5732,-2.6993,-2.7132,0.0,0.0,0.0,0.0,0.0,-3.3908,0.0,0.0,0.0,0.0,0.0,0.0,0.0,0.0,0.0,0.0,0.0,0.0,0.0,0.0,0.0,0.0,0.0,0.0,0.0,-3.8714,-3.9147,-3.8327,-3.7064,-3.6396,-3.6544,-3.6436,-3.6405,-3.6405,-3.6405,-3.6405,-3.6405,-3.6405,-3.6405,-3.6405,-3.6405,-3.6405,-3.6405,-3.6405,-3.6405,-3.6405,-3.6405,-3.6405,-3.6405,-3.6405,-3.6405,-3.6405,-3.6405,-3.6405,-3.6405,-3.6405,-3.6405,-3.6405,-3.6405,-3.6405,-3.6405,-3.6405,-3.6405,-3.6405,-3.6405,-3.6405,-3.6405,-3.6405,-3.6405,-3.6405,-3.6405,-3.6405,-3.6405,-3.6405,-3.6405,-3.6405,-3.6405,-3.6405,-3.6405,-3.6405,-3.6405,-3.6405,-3.6405,-3.6405,-3.5451,-3.2733,-3.2252,-3.1139,-2.817,-2.7266,-2.6797,-2.6533,-2.6045,-2.5693,-2.5693,-2.5693,-2.5693,-2.5693,-2.5693,-2.5693,-2.5693,-2.5693,-2.5693,-2.5693,-2.5771,-2.581,-2.581,-2.5888,-2.5888,-2.5859,-2.7023,-2.7378,0.0,0.0,0.0,0.0,-3.488,0.0,0.0,0.0,0.0,0.0,0.0,0.0,0.0,0.0,0.0,0.0,0.0,0.0,0.0,0.0,0.0,0.0,0.0,0.0,0.0,-3.8363,-3.8308,-3.8759,-3.713,-3.6387,-3.6985,-3.6616,-3.6405,-3.6405,-3.6405,-3.6405,-3.6405,-3.6405,-3.6405,-3.6405,-3.6405,-3.6405,-3.6405,-3.6405,-3.6405,-3.6405,-3.6405,-3.6405,-3.6405,-3.6405,-3.6405,-3.6405,-3.6405,-3.6405,-3.6405,-3.6405,-3.6405,-3.6405,-3.6405,-3.6405,-3.6405,-3.6405,-3.6405,-3.6405,-3.6405,-3.6405,-3.6405,-3.6405,-3.6405,-3.6405,-3.6405,-3.6405,-3.6405,-3.6405,-3.6405,-3.6405,-3.6405,-3.6405,-3.6405,-3.6405,-3.6405,-3.6405,-3.6405,-3.6405,-3.5451,-3.2733,-3.2022,-3.0889,-2.8536,-2.7187,-2.6582,-2.6904,-2.6171,-2.5693,-2.5693,-2.5693,-2.5693,-2.5693,-2.5693,-2.5693,-2.5693,-2.5693,-2.5693,-2.5693,-2.6113,-2.6318,-2.6318,-2.6689,-2.668,-2.6358,-2.7177,-2.7378,0.0,0.0,0.0,0.0,0.0,0.0,-3.3154,0.0,-3.2909,0.0,0.0,0.0,0.0,0.0,0.0,0.0,0.0,0.0,0.0,0.0,0.0,0.0,0.0,0.0,0.0,0.0,0.0,0.0,-3.762,-3.6703,-3.7077,-3.6916,-3.6691,-3.6392,-3.6405,-3.6405,-3.6405,-3.6405,-3.6405,-3.6405,-3.6405,-3.6405,-3.6405,-3.6405,-3.6405,-3.6405,-3.6405,-3.6405,-3.6405,-3.6405,-3.6405,-3.6405,-3.6405,-3.6405,-3.6405,-3.6405,-3.6405,-3.6405,-3.6405,-3.6405,-3.6405,-3.6405,-3.6405,-3.6405,-3.6405,-3.6405,-3.6405,-3.6405,-3.6405,-3.6405,-3.6405,-3.6405,-3.6405,-3.6405,-3.6405,-3.6405,-3.6405,-3.6405,-3.6405,-3.6405,-3.6405,-3.6405,-3.6405,-3.6405,-3.5451,-3.2733,-3.2163,-3.1063,-2.8288,-2.7246,-2.6728,-2.666,-2.6103,-2.5693,-2.5693,-2.5693,-2.5693,-2.5693,-2.5693,-2.5693,-2.5693,-2.5693,-2.581,-2.6113,-2.6299,-2.6504,-2.6758,-2.6934,-2.7051,-2.717,-2.7212,-2.7292,-3.6207,0.0,0.0,0.0,0.0,0.0,0.0,0.0,0.0,0.0,0.0,0.0,0.0,0.0,0.0,0.0,0.0,0.0,0.0,0.0,0.0,0.0,0.0,0.0,0.0,0.0,0.0,0.0,0.0,-3.7056,-3.7504,-3.7241,-3.6923,-3.6607,-3.6458,-3.6405,-3.6405,-3.6405,-3.6405,-3.6405,-3.6405,-3.6405,-3.6405,-3.6405,-3.6405,-3.6405,-3.6405,-3.6405,-3.6405,-3.6405,-3.6405,-3.6405,-3.6405,-3.6405,-3.6405,-3.6405,-3.6405,-3.6405,-3.6405,-3.6405,-3.6405,-3.6405,-3.6505,-3.6631,-3.6631,-3.6732,-3.6857,-3.6857,-3.6857,-3.6857,-3.6857,-3.6744,-3.6631,-3.6631,-3.6518,-3.6405,-3.6405,-3.6405,-3.6405,-3.6405,-3.6405,-3.6263,-3.5918,-3.5858,-3.5054,-3.2632,-3.1867,-3.071,-2.8167,-2.7256,-2.6768,-2.6582,-2.6064,-2.5693,-2.5693,-2.5693,-2.5693,-2.5693,-2.5693,-2.5742,-2.5908,-2.5869,-2.6123,-2.6553,-2.668,-2.6894,-2.7197,-2.7305,-2.7529,-2.7822,-2.7275,-2.7305,0.0,0.0,0.0,-3.4998,0.0,0.0,0.0,0.0,-3.5286,0.0,0.0,0.0,0.0,0.0,0.0,0.0,0.0,0.0,0.0,0.0,0.0,0.0,0.0,0.0,0.0,0.0,0.0,0.0,0.0,0.0,-3.857,-3.765,-3.7085,-3.7067,-3.6649,-3.6405,-3.6405,-3.6405,-3.6405,-3.6405,-3.6405,-3.6405,-3.6405,-3.6405,-3.6405,-3.6405,-3.6405,-3.6405,-3.6405,-3.6405,-3.6405,-3.6405,-3.6405,-3.6405,-3.6405,-3.6405,-3.6405,-3.6405,-3.6405,-3.6405,-3.6405,-3.6405,-3.6769,-3.7161,-3.7161,-3.7525,-3.7952,-3.7952,-3.7952,-3.7952,-3.7952,-3.755,-3.7161,-3.7161,-3.6795,-3.6405,-3.6405,-3.6405,-3.6405,-3.6405,-3.6405,-3.6013,-3.4678,-3.4483,-3.397,-3.2532,-3.0846,-2.9425,-2.8426,-2.7178,-2.6562,-2.6953,-2.6191,-2.5693,-2.5693,-2.5693,-2.5693,-2.5693,-2.5693,-2.5879,-2.6357,-2.6367,-2.6562,-2.6982,-2.7412,-2.7679,-2.7699,-2.8057,-2.8262,-2.8252,-2.7412,-2.7471,0.0,0.0,-3.7584,-3.5639,0.0,0.0,0.0,0.0,0.0,0.0,0.0,0.0,0.0,0.0,0.0,0.0,0.0,0.0,0.0,0.0,0.0,0.0,0.0,0.0,0.0,0.0,0.0,0.0,-3.7267,0.0,0.0,-3.8476,-3.825,-3.7161,-3.7378,-3.715,-3.6405,-3.6405,-3.6405,-3.6405,-3.6405,-3.6405,-3.6405,-3.6405,-3.6405,-3.6405,-3.6405,-3.6405,-3.6405,-3.6405,-3.6405,-3.6405,-3.6405,-3.6405,-3.6405,-3.6405,-3.6405,-3.6455,-3.6832,-3.7149,-3.745,-3.745,-3.7575,-3.7726,-3.7726,-3.7864,-3.8002,-3.8002,-3.8002,-3.8002,-3.8002,-3.7864,-3.7638,-3.7274,-3.7048,-3.6857,-3.6493,-3.6405,-3.6405,-3.6405,-3.6405,-3.6263,-3.581,-3.4203,-3.2543,-3.1173,-3.049,-2.9642,-2.8485,-2.7676,-2.7178,-2.7031,-2.6514,-2.6055,-2.5713,-2.5693,-2.581,-2.6152,-2.6172,-2.6357,-2.6787,-2.6807,-2.7002,-2.7432,-2.764,-2.7855,-2.8086,-2.8223,-2.8291,-2.8281,-2.7998,-2.8018,-3.8123,-3.8257,0.0,-3.6836,-3.6675,0.0,-3.5211,0.0,0.0,0.0,0.0,0.0,0.0,0.0,0.0,0.0,0.0,0.0,0.0,0.0,0.0,0.0,0.0,0.0,0.0,0.0,-3.5714,-3.6432,-3.6417,0.0,0.0,0.0,-3.8255,-3.7431,-3.7441,-3.715,-3.6405,-3.6405,-3.6405,-3.6405,-3.6405,-3.6405,-3.6405,-3.6405,-3.6405,-3.6405,-3.6405,-3.6405,-3.6405,-3.6405,-3.6405,-3.6405,-3.6405,-3.6531,-3.6707,-3.6707,-3.6832,-3.6998,-3.7349,-3.7713,-3.8002,-3.8002,-3.8153,-3.8316,-3.8316,-3.8454,-3.8605,-3.8605,-3.8605,-3.8605,-3.8605,-3.8454,-3.8228,-3.7864,-3.7475,-3.7086,-3.6782,-3.6543,-3.6405,-3.6405,-3.6405,-3.6263,-3.5763,-3.3798,-3.2039,-3.1122,-3.0214,-2.926,-2.8388,-2.793,-2.7559,-2.7275,-2.6738,-2.6211,-2.5723,-2.583,-2.6084,-2.6367,-2.6533,-2.6797,-2.7226,-2.7246,-2.7451,-2.7881,-2.7891,-2.8027,-2.8291,-2.8291,-2.8291,-2.8291,-2.8291,-2.8291]},{"header":{"parameterUnit":"m.s-1","parameterCategory":1,"la1":30.6,"la2":29.2853,"lo1":-89.7004,"lo2":-87.6739,"dy":0.0162,"dx":0.0183,"nx":112,"ny":82,"refTime":"2026-04-01T00:00:00:Z","depth":0,"parameterNumber":3,"parameterNumberName":"V-component_of_WINDS"},"data":[0.0,0.0,0.0,0.0,0.0,0.0,0.0,0.0,0.0,0.0,0.0,0.0,0.0,0.0,0.0,0.0,0.0,0.0,0.0,0.0,0.0,0.0,0.0,0.0,0.0,0.0,0.0,0.0,0.0,0.0,0.0,0.0,0.0,0.0,0.0,0.0,0.0,0.0,0.0,0.0,0.0,0.0,0.0,0.0,0.0,0.0,0.0,0.0,0.0,0.0,0.0,0.0,0.0,0.0,0.0,0.0,0.0,0.0,0.0,0.0,0.0,0.0,0.0,0.0,0.0,0.0,0.0,0.0,0.0,0.0,0.0,0.0,0.0,0.0,0.0,0.0,0.0,0.0,0.0,0.0,0.0,0.0,0.0,0.0,0.0,0.0,0.0,0.0,0.0,0.0,0.0,1.7021,1.7936,1.847,1.843,1.7862,1.6927,1.5551,0.0,0.0,0.0,0.0,0.0,0.0,0.0,0.0,0.0,0.0,0.0,0.0,0.0,0.0,0.0,0.0,0.0,0.0,0.0,0.0,0.0,0.0,0.0,0.0,0.0,0.0,0.0,0.0,0.0,0.0,0.0,0.0,0.0,0.0,0.0,0.0,0.0,0.0,0.0,0.0,0.0,0.0,0.0,0.0,0.0,0.0,0.0,0.0,0.0,0.0,0.0,0.0,0.0,0.0,0.0,0.0,0.0,0.0,0.0,0.0,0.0,0.0,0.0,0.0,0.0,0.0,0.0,0.0,0.0,0.0,0.0,0.0,0.0,0.0,0.0,0.0,0.0,0.0,0.0,0.0,0.0,0.0,0.0,0.0,0.0,0.0,0.0,0.0,0.0,0.0,0.0,0.0,0.0,0.0,0.0,0.0,0.0,0.0,0.0,0.0,0.0,0.0,0.0,0.0,1.7048,1.8956,1.8758,1.8384,1.8082,1.7562,1.6851,1.5778,0.0,0.0,0.0,0.0,0.0,0.0,0.0,0.0,0.0,0.0,0.0,0.0,0.0,0.0,0.0,0.0,0.0,0.0,0.0,0.0,0.0,0.0,0.0,0.0,0.0,0.0,0.0,0.0,0.0,0.0,0.0,0.0,0.0,0.0,0.0,0.0,0.0,0.0,0.0,0.0,0.0,0.0,0.0,0.0,0.0,0.0,0.0,0.0,0.0,0.0,0.0,0.0,0.0,0.0,0.0,0.0,0.0,0.0,0.0,0.0,0.0,0.0,0.0,0.0,0.0,0.0,0.0,0.0,0.0,0.0,0.0,0.0,0.0,0.0,0.0,0.0,0.0,0.0,0.0,0.0,0.0,0.0,0.0,0.0,0.0,0.0,0.0,0.0,0.0,0.0,0.0,0.0,0.0,0.0,0.0,0.0,0.0,0.0,0.0,0.0,0.0,0.0,0.0,1.7155,1.8789,2.0763,1.9858,1.9039,1.8897,1.7705,1.6466,1.5424,1.4529,0.0,0.0,0.0,0.0,0.0,0.0,0.0,0.0,0.0,0.0,0.0,0.0,0.0,0.0,0.0,0.0,0.0,0.0,0.0,0.0,0.0,0.0,0.0,0.0,0.0,0.0,0.0,0.0,0.0,0.0,0.0,0.0,0.0,0.0,0.0,0.0,0.0,0.0,0.0,0.0,0.0,0.0,0.0,0.0,0.0,0.0,0.0,0.0,0.0,0.0,0.0,0.0,0.0,0.0,0.0,0.0,0.0,0.0,0.0,0.0,0.0,0.0,0.0,0.0,0.0,0.0,0.0,0.0,0.0,0.0,0.0,0.0,0.0,0.0,0.0,0.0,0.0,0.0,0.0,0.0,0.0,0.0,0.0,0.0,0.0,0.0,0.0,0.0,0.0,0.0,0.0,0.0,0.0,0.0,0.0,0.0,0.0,0.0,0.0,0.0,0.0,0.0,1.9126,2.0347,2.2273,2.0941,1.991,1.991,1.8031,1.6402,1.5504,1.4162,0.0,0.0,0.0,0.0,0.0,0.0,0.0,0.0,0.0,0.0,0.0,0.0,0.0,0.0,0.0,0.0,0.0,0.0,0.0,0.0,0.0,0.0,0.0,0.0,0.0,0.0,0.0,0.0,0.0,0.0,0.0,0.0,0.0,0.0,0.0,0.0,0.0,0.0,0.0,0.0,0.0,0.0,0.0,0.0,0.0,0.0,0.0,0.0,0.0,0.0,0.0,0.0,0.0,0.0,0.0,0.0,0.0,0.0,0.0,0.0,0.0,0.0,0.0,0.0,0.0,0.0,0.0,0.0,0.0,0.0,0.0,0.0,0.0,0.0,0.0,0.0,0.0,0.0,0.0,0.0,0.0,0.0,0.0,0.0,0.0,0.0,0.0,0.0,0.0,0.0,0.0,0.0,0.0,0.0,0.0,0.0,0.0,0.0,0.0,0.0,0.0,0.0,2.0394,2.1286,2.3381,2.1968,2.0892,2.0892,1.8597,1.7004,1.6698,1.427,0.0,0.0,0.0,0.0,0.0,0.0,0.0,0.0,0.0,0.0,0.0,0.0,0.0,0.0,0.0,0.0,0.0,0.0,0.0,0.0,0.0,0.0,0.0,0.0,0.0,0.0,0.0,0.0,0.0,0.0,0.0,0.0,0.0,0.0,0.0,0.0,0.0,0.0,0.0,0.0,0.0,0.0,0.0,0.0,0.0,0.0,0.0,0.0,0.0,0.0,0.0,0.0,0.0,0.0,0.0,0.0,0.0,0.0,0.0,0.0,0.0,0.0,0.0,0.0,0.0,0.0,0.0,0.0,0.0,0.0,0.0,0.0,0.0,0.0,0.0,0.0,0.0,0.0,0.0,0.0,0.0,0.0,0.0,0.0,0.0,0.0,0.0,0.0,0.0,0.0,0.0,0.0,0.0,0.0,0.0,0.0,0.0,0.0,0.0,0.0,0.0,0.0,2.1071,2.2399,0.0,2.276,2.18,2.1621,1.9934,1.8047,1.6095,0.0,0.0,0.0,0.0,0.0,0.0,0.0,0.0,0.0,0.0,0.0,0.0,0.0,0.0,0.0,0.0,0.0,0.0,0.0,0.0,0.0,0.0,0.0,0.0,0.0,0.0,0.0,0.0,0.0,0.0,0.0,0.0,0.0,0.0,0.0,0.0,0.0,0.0,0.0,0.0,0.0,0.0,0.0,0.0,0.0,0.0,0.0,0.0,0.0,0.0,0.0,0.0,0.0,0.0,0.0,0.0,0.0,0.0,0.0,0.0,0.0,0.0,0.0,0.0,0.0,0.0,0.0,0.0,0.0,0.0,0.0,0.0,0.0,0.0,0.0,0.0,0.0,0.0,0.0,0.0,0.0,0.0,0.0,0.0,0.0,0.0,0.0,0.0,0.0,0.0,0.0,0.0,0.0,0.0,0.0,0.0,0.0,0.0,0.0,0.0,0.0,0.0,1.9872,2.1732,2.3359,0.0,2.3682,2.2973,2.2797,2.1118,1.9035,1.6627,0.0,0.0,0.0,0.0,0.0,0.0,0.0,0.0,0.0,0.0,0.0,0.0,0.0,0.0,0.0,0.0,0.0,0.0,0.0,0.0,0.0,0.0,0.0,0.0,0.0,0.0,0.0,0.0,0.0,0.0,0.0,0.0,0.0,0.0,0.0,0.0,0.0,0.0,0.0,0.0,0.0,0.0,0.0,0.0,0.0,0.0,0.0,0.0,0.0,0.0,0.0,0.0,0.0,0.0,0.0,0.0,0.0,0.0,0.0,0.0,0.0,0.0,0.0,0.0,0.0,0.0,0.0,0.0,0.0,0.0,0.0,0.0,0.0,0.0,0.0,0.0,0.0,0.0,0.0,0.0,0.0,0.0,0.0,0.0,0.0,0.0,0.0,0.0,0.0,0.0,0.0,0.0,0.0,0.0,0.0,0.0,0.0,0.0,0.0,0.0,0.0,0.0,2.0498,2.2494,2.4157,2.5065,2.4724,2.446,2.445,2.1979,1.9912,0.0,0.0,0.0,0.0,0.0,0.0,0.0,0.0,0.0,0.0,0.0,0.0,0.0,0.0,0.0,0.0,0.0,0.0,0.0,0.0,0.0,0.0,0.0,0.0,0.0,0.0,0.0,0.0,0.0,0.0,0.0,0.0,0.0,0.0,0.0,0.0,0.0,0.0,0.0,0.0,0.0,0.0,0.0,0.0,0.0,0.0,0.0,0.0,0.0,0.0,0.0,0.0,0.0,0.0,0.0,0.0,0.0,0.0,0.0,0.0,0.0,0.0,0.0,0.0,0.0,0.0,0.0,0.0,0.0,0.0,0.0,0.0,0.0,0.0,0.0,0.0,0.0,0.0,0.0,0.0,0.0,0.0,0.0,0.0,0.0,0.0,0.0,0.0,0.0,0.0,0.0,0.0,0.0,0.0,0.0,0.0,0.0,0.0,0.0,0.0,0.0,0.0,0.0,2.1713,2.4433,2.6509,2.7159,2.7105,2.6844,2.6465,2.47,2.2413,1.9529,0.0,0.0,0.0,0.0,0.0,0.0,0.0,0.0,0.0,0.0,0.0,0.0,0.0,0.0,0.0,0.0,0.0,0.0,0.0,0.0,0.0,0.0,0.0,0.0,0.0,0.0,0.0,0.0,0.0,0.0,0.0,0.0,0.0,0.0,0.0,0.0,0.0,0.0,0.0,0.0,0.0,0.0,0.0,0.0,0.0,0.0,0.0,0.0,0.0,0.0,0.0,0.0,0.0,0.0,0.0,0.0,0.0,0.0,0.0,0.0,0.0,0.0,0.0,0.0,0.0,0.0,0.0,0.0,0.0,0.0,0.0,0.0,0.0,0.0,0.0,0.0,0.0,0.0,0.0,0.0,0.0,0.0,0.0,0.0,0.0,0.0,0.0,0.0,0.0,0.0,0.0,0.0,0.0,0.0,0.0,0.0,0.0,0.0,0.0,0.0,0.0,0.0,2.1987,2.5165,2.7566,2.8306,2.815,2.7903,2.7568,2.6131,2.4025,2.1163,0.0,0.0,0.0,0.0,0.0,0.0,0.0,0.0,0.0,0.0,0.0,0.0,0.0,0.0,0.0,0.0,0.0,0.0,0.0,0.0,0.0,0.0,0.0,0.0,0.0,0.0,0.0,0.0,0.0,0.0,0.0,0.0,0.0,0.0,0.0,0.0,0.0,0.0,0.0,0.0,0.0,0.0,0.0,0.0,0.0,0.0,0.0,0.0,0.0,0.0,0.0,0.0,0.0,0.0,0.0,0.0,0.0,0.0,0.0,0.0,0.0,0.0,0.0,0.0,0.0,0.0,0.0,0.0,0.0,0.0,0.0,0.0,0.0,0.0,0.0,0.0,0.0,0.0,0.0,0.0,0.0,0.0,0.0,0.0,0.0,0.0,0.0,0.0,0.0,0.0,0.0,0.0,0.0,0.0,0.0,0.0,0.0,0.0,0.0,0.0,0.0,0.0,2.1822,2.5211,2.7909,2.8909,2.8547,2.8209,2.8164,2.6749,2.5065,2.3249,0.0,0.0,0.0,0.0,0.0,0.0,0.0,0.0,0.0,0.0,0.0,0.0,0.0,0.0,0.0,0.0,0.0,0.0,0.0,0.0,0.0,0.0,0.0,0.0,0.0,0.0,0.0,0.0,0.0,0.0,0.0,0.0,0.0,0.0,0.0,0.0,0.0,0.0,0.0,0.0,0.0,0.0,0.0,0.0,0.0,0.0,0.0,0.0,0.0,0.0,0.0,0.0,0.0,0.0,0.0,0.0,0.0,0.0,0.0,0.0,2.7504,0.0,0.0,0.0,0.0,0.0,0.0,0.0,0.0,0.0,0.0,0.0,0.0,0.0,0.0,0.0,0.0,0.0,0.0,0.0,0.0,0.0,0.0,0.0,0.0,0.0,0.0,0.0,0.0,0.0,0.0,0.0,0.0,0.0,0.0,0.0,0.0,0.0,0.0,0.0,0.0,0.0,2.2888,2.6673,2.9656,3.0724,3.0724,3.0491,3.0057,2.8623,2.6895,2.5004,2.1887,0.0,0.0,0.0,0.0,0.0,0.0,0.0,0.0,0.0,0.0,0.0,0.0,0.0,0.0,0.0,0.0,0.0,0.0,0.0,0.0,0.0,0.0,0.0,0.0,0.0,0.0,0.0,0.0,0.0,0.0,0.0,0.0,0.0,0.0,0.0,0.0,0.0,0.0,0.0,0.0,0.0,0.0,0.0,0.0,0.0,0.0,0.0,0.0,0.0,0.0,0.0,0.0,0.0,0.0,0.0,0.0,0.0,0.0,0.0,0.0,2.8956,0.0,0.0,0.0,0.0,0.0,0.0,0.0,0.0,0.0,0.0,0.0,0.0,0.0,0.0,0.0,0.0,0.0,0.0,0.0,0.0,0.0,0.0,0.0,0.0,0.0,0.0,0.0,0.0,0.0,0.0,0.0,0.0,0.0,0.0,0.0,0.0,0.0,0.0,0.0,0.0,2.4142,2.752,3.0206,3.1273,3.1173,3.0909,3.0633,2.9349,2.7937,2.6401,2.3783,0.0,0.0,0.0,0.0,0.0,0.0,0.0,0.0,0.0,0.0,0.0,0.0,0.0,0.0,0.0,0.0,0.0,0.0,0.0,0.0,0.0,0.0,0.0,0.0,0.0,0.0,0.0,0.0,0.0,0.0,0.0,0.0,0.0,0.0,0.0,0.0,0.0,0.0,0.0,0.0,0.0,0.0,0.0,0.0,0.0,0.0,0.0,0.0,0.0,0.0,0.0,0.0,0.0,3.4525,3.4987,3.5631,3.6585,3.7187,3.7334,3.436,3.2989,3.2748,0.0,0.0,0.0,0.0,0.0,0.0,0.0,0.0,0.0,0.0,0.0,0.0,0.0,0.0,0.0,0.0,0.0,0.0,0.0,0.0,0.0,0.0,0.0,0.0,0.0,3.2472,3.1367,0.0,0.0,0.0,0.0,0.0,0.0,0.0,0.0,0.0,0.0,0.0,0.0,2.5007,2.7829,3.0018,3.1009,3.0721,3.047,3.047,2.9616,2.8649,2.7632,2.5534,2.3644,0.0,0.0,0.0,0.0,0.0,0.0,0.0,0.0,0.0,0.0,0.0,0.0,0.0,0.0,0.0,0.0,0.0,0.0,0.0,0.0,0.0,0.0,0.0,0.0,0.0,0.0,0.0,0.0,0.0,0.0,0.0,0.0,3.1549,3.2528,0.0,0.0,0.0,0.0,0.0,0.0,0.0,0.0,0.0,0.0,0.0,0.0,0.0,3.3872,3.45,3.5454,3.6015,3.6091,3.701,3.8092,3.9173,3.8906,3.9621,4.1083,4.0154,0.0,3.5365,3.5618,0.0,0.0,0.0,0.0,0.0,0.0,0.0,0.0,0.0,0.0,0.0,0.0,0.0,0.0,0.0,0.0,0.0,0.0,0.0,0.0,0.0,0.0,3.4586,3.4233,3.3904,3.3401,0.0,2.8694,2.504,2.3416,0.0,0.0,0.0,0.0,0.0,0.0,0.0,0.0,2.4456,2.7199,2.9289,2.993,2.9942,2.9905,2.9905,2.9767,2.9402,2.8712,2.7085,2.5528,2.4152,2.1668,0.0,0.0,0.0,0.0,0.0,0.0,0.0,0.0,0.0,0.0,0.0,0.0,0.0,0.0,0.0,0.0,0.0,0.0,0.0,0.0,0.0,0.0,0.0,0.0,0.0,0.0,0.0,0.0,0.0,3.1323,3.2403,3.2566,3.2717,3.2315,0.0,0.0,0.0,0.0,0.0,0.0,0.0,0.0,0.0,3.7568,3.7442,3.7433,3.7513,3.799,3.8391,3.8705,3.9182,4.0083,4.1301,4.1799,4.2664,4.3837,4.431,4.3098,4.0612,3.8802,3.6549,3.4153,0.0,0.0,0.0,0.0,3.3162,3.3738,3.3836,3.4159,0.0,0.0,0.0,0.0,0.0,0.0,0.0,0.0,0.0,0.0,0.0,0.0,0.0,3.7069,3.6823,3.6278,3.5894,3.3107,3.0011,0.0,2.6038,2.4193,2.1939,0.0,0.0,0.0,0.0,2.483,2.5928,2.7752,2.9113,2.9729,2.9792,2.9792,2.9792,2.9792,2.9541,2.8925,2.8247,2.7164,2.5704,2.4208,2.2396,0.0,0.0,0.0,0.0,0.0,0.0,0.0,0.0,0.0,0.0,0.0,0.0,0.0,0.0,0.0,0.0,0.0,0.0,0.0,0.0,0.0,0.0,0.0,0.0,0.0,0.0,0.0,0.0,3.2792,3.3445,3.3294,3.4135,3.3935,0.0,0.0,0.0,0.0,0.0,0.0,3.6804,3.8556,3.9663,3.9918,4.0119,4.0175,4.0099,4.0111,4.0325,4.0727,4.1071,4.1828,4.2951,4.4256,4.5222,4.5928,4.6873,4.6458,4.4793,4.1483,3.8991,3.7257,3.6533,3.5964,3.5548,3.5623,3.6111,3.6694,3.6692,3.7009,3.7165,3.5592,0.0,3.3787,3.2535,0.0,0.0,0.0,0.0,3.3073,3.5988,3.6885,3.7401,3.8817,3.8766,3.8212,3.7554,3.6005,3.4051,0.0,3.0121,2.8509,2.5807,0.0,0.0,0.0,0.0,2.7018,2.7768,2.8791,2.9593,2.978,2.9792,2.9792,2.9792,2.9654,2.9454,2.9238,2.897,2.8354,2.7365,2.6419,2.4893,2.2643,0.0,0.0,0.0,0.0,0.0,0.0,0.0,0.0,0.0,0.0,0.0,0.0,0.0,0.0,0.0,0.0,0.0,0.0,0.0,0.0,0.0,0.0,0.0,0.0,0.0,0.0,0.0,0.0,0.0,3.6078,3.6671,0.0,0.0,0.0,0.0,3.4562,3.6128,3.7836,3.9496,3.9682,4.0415,4.2075,4.1054,4.0717,4.12,4.12,4.1213,4.1291,4.2632,4.3587,4.4256,4.5657,4.6616,4.7207,4.7266,4.6892,4.6032,4.3539,4.1455,3.9683,3.8547,3.8061,3.8087,3.8446,3.9024,3.9642,4.0024,4.0159,4.001,3.8904,3.6736,3.4538,3.4441,3.364,0.0,0.0,3.5449,3.6299,3.7877,3.8755,3.9098,3.8586,3.8407,3.8212,3.7554,3.6862,3.5733,0.0,3.1433,2.9998,2.9813,0.0,2.8451,2.8872,2.9489,2.9742,2.9437,3.0392,3.0756,2.9895,2.9792,2.9792,2.9792,2.9289,2.9312,3.0069,2.9127,2.8878,2.9597,2.7817,2.653,2.5889,2.2904,0.0,0.0,0.0,0.0,0.0,0.0,0.0,0.0,0.0,0.0,0.0,0.0,0.0,0.0,0.0,0.0,0.0,0.0,0.0,0.0,0.0,0.0,0.0,0.0,0.0,0.0,0.0,0.0,3.785,3.8467,0.0,3.696,3.7174,3.7236,3.686,3.912,4.0846,4.1439,4.2974,4.3706,4.3466,4.3427,4.3056,4.2384,4.2396,4.2396,4.2384,4.3398,4.4175,4.4869,4.5841,4.6661,4.7309,4.7309,4.7174,4.6832,4.5567,4.386,4.2068,4.1656,4.0971,4.0266,4.0409,4.0902,4.1439,4.1136,4.1347,4.1481,4.0224,3.8877,3.7587,3.72,3.6769,3.6567,3.7113,3.7419,3.7831,3.8799,3.923,3.9245,3.8556,3.8063,3.7584,3.6956,3.6312,3.5601,3.4833,3.3733,3.2521,3.1286,3.0974,3.0512,2.9463,3.0373,3.1129,3.1006,3.1114,3.1068,3.0733,3.0177,2.9641,2.9264,2.9538,2.9464,2.8899,2.9464,2.9585,2.9007,2.8835,2.8144,2.6846,2.5,2.3071,0.0,0.0,0.0,0.0,0.0,0.0,0.0,0.0,0.0,0.0,0.0,0.0,0.0,0.0,0.0,0.0,0.0,0.0,0.0,0.0,0.0,0.0,0.0,0.0,0.0,0.0,3.7965,3.927,4.04,4.0488,3.8994,3.9534,3.9747,3.917,4.1106,4.2385,4.2579,4.4163,4.4626,4.376,4.4136,4.3907,4.303,4.2974,4.2974,4.3017,4.4202,4.4881,4.5137,4.6379,4.705,4.7309,4.7309,4.7309,4.7279,4.683,4.5696,4.4206,4.3404,4.2573,4.1735,4.1119,4.1429,4.208,4.1808,4.1886,4.1886,4.0756,3.9963,3.9298,3.8871,3.8736,3.8736,3.8736,3.8736,3.8841,3.9269,3.9388,3.9185,3.8272,3.7719,3.718,3.6342,3.5804,3.5504,3.5504,3.4874,3.4041,3.309,3.2853,3.2501,3.1539,3.2339,3.2922,3.2601,3.2323,3.2033,3.1706,3.1119,3.0512,2.9842,2.9899,2.971,2.9131,2.949,2.9563,2.9201,2.9243,2.8731,2.7575,2.5981,2.4149,2.211,0.0,0.0,0.0,0.0,0.0,0.0,0.0,0.0,0.0,0.0,0.0,0.0,0.0,0.0,0.0,0.0,0.0,0.0,0.0,0.0,0.0,0.0,0.0,3.6307,3.8354,3.9961,4.0551,4.2522,4.2999,4.0877,4.1618,4.2007,4.1426,4.1932,4.2514,4.2974,4.2999,4.2999,4.2974,4.2974,4.2974,4.2974,4.2974,4.2974,4.3004,4.5098,4.5701,4.5159,4.7274,4.7908,4.7309,4.7309,4.7309,4.7309,4.7309,4.692,4.606,4.364,4.2679,4.2451,4.0685,4.0703,4.1722,4.2268,4.1991,4.1265,4.0636,3.9963,3.9388,3.9388,3.9388,3.9337,3.9337,3.9337,3.9301,3.9301,3.9322,3.8979,3.7649,3.7355,3.7045,3.5774,3.5504,3.5504,3.5504,3.4691,3.4312,3.5326,3.4691,3.4394,3.5359,3.5504,0.0,3.4177,3.4027,3.3671,3.2749,3.2629,3.2309,3.1619,3.0352,2.9998,3.0925,2.9159,2.8787,3.038,2.9113,2.8354,2.8325,2.5836,2.4032,2.2972,0.0,0.0,0.0,0.0,0.0,0.0,0.0,0.0,0.0,0.0,0.0,0.0,0.0,0.0,0.0,0.0,0.0,0.0,0.0,0.0,0.0,3.6019,3.7211,3.7525,3.9484,4.1392,4.2735,4.3777,4.4317,4.4141,4.4016,4.3878,4.374,4.3865,4.3827,4.3589,4.3576,4.3388,4.2986,4.2974,4.2974,4.2974,4.2974,4.2773,4.2426,4.443,4.5082,4.4573,4.6617,4.7474,4.7309,4.7309,4.7309,4.7309,4.7309,4.692,4.619,4.5,4.4279,4.3693,4.2717,4.2548,4.2831,4.3001,4.2327,4.1354,4.1175,4.0337,3.9388,3.9388,3.887,3.8234,3.8234,3.7701,3.7084,3.7084,3.7304,3.7303,3.6503,3.6532,3.6507,3.5684,3.5504,3.5504,3.5504,3.4691,3.4312,3.5326,3.5279,3.518,3.5472,3.5504,0.0,3.5133,3.4461,3.391,3.3636,3.3031,3.2179,3.1095,3.123,3.0666,2.8965,2.9462,2.9754,2.9624,2.9807,2.9709,2.9265,2.6644,2.516,0.0,0.0,0.0,0.0,0.0,0.0,0.0,0.0,0.0,0.0,0.0,0.0,0.0,0.0,0.0,0.0,0.0,0.0,0.0,0.0,0.0,0.0,3.8116,3.9559,4.0023,4.1404,4.2898,4.4342,4.4995,4.5372,4.5485,4.5183,4.4882,4.4644,4.4618,4.438,4.3827,4.3802,4.3539,4.2999,4.2974,4.2974,4.2974,4.2974,4.2753,4.22,4.4151,4.4834,4.4374,4.6354,4.7309,0.0,4.7309,4.7309,4.7309,4.7309,4.692,0.0,0.0,0.0,0.0,0.0,4.2589,4.2684,4.3115,4.2476,4.1422,4.1422,4.0487,3.9388,3.9388,3.8943,3.8472,3.8472,3.8017,3.752,3.752,3.7525,3.7301,3.6687,3.6502,3.6312,3.5654,3.5504,3.5504,3.5504,3.5019,0.0,3.5392,3.5133,3.5019,3.5439,3.5504,3.5504,3.5504,3.4986,3.461,3.461,3.4158,3.3421,3.2419,3.2234,0.0,0.0,0.0,2.9705,2.9037,2.9453,0.0,0.0,0.0,0.0,0.0,0.0,0.0,0.0,2.4737,2.4536,0.0,0.0,0.0,0.0,0.0,0.0,0.0,0.0,0.0,0.0,0.0,0.0,0.0,0.0,0.0,0.0,4.0149,4.1932,4.3099,4.3677,4.4367,4.5372,4.5974,4.6125,4.5635,4.5585,4.5372,4.4857,4.4819,4.4543,4.3928,0.0,0.0,0.0,0.0,4.2974,4.2974,4.2974,4.2728,4.2112,4.4162,4.4806,4.4277,4.637,4.7309,4.7309,4.7309,4.7309,4.7309,4.7309,4.6875,4.6015,4.4339,4.327,4.2618,4.2011,4.1809,4.1932,4.2941,0.0,0.0,4.1422,4.0487,3.9388,3.9388,3.9301,3.9228,3.9228,3.9141,3.9053,3.9053,3.8576,3.7983,3.7367,3.6813,3.6207,3.5624,3.5504,3.5504,3.5504,3.5504,3.5504,3.5504,3.4758,3.4461,3.5359,3.5504,3.5504,3.5504,3.5504,3.5504,3.5504,0.0,0.0,3.4563,3.326,3.246,3.2393,3.0544,2.9243,2.8835,2.8816,2.8816,2.8816,2.8742,2.8996,2.9606,2.9606,2.9636,2.9636,2.6563,2.6123,0.0,0.0,0.0,0.0,0.0,0.0,0.0,0.0,0.0,0.0,0.0,0.0,0.0,0.0,0.0,4.0272,4.1794,4.3212,4.4782,4.5095,4.5246,4.546,4.5974,4.6276,4.6163,4.615,4.61,4.5987,4.5987,4.5535,4.4518,4.4468,4.4003,4.3011,4.2974,4.2974,4.2974,4.2974,4.2484,4.1492,0.0,0.0,4.3717,4.6165,4.7309,4.7309,4.7309,4.7309,4.7309,4.7309,4.6591,4.5382,4.4504,4.3753,4.3159,4.304,4.2981,4.2981,4.321,4.2476,4.1422,4.1422,4.0487,3.9388,3.9388,3.8782,0.0,3.8107,3.7496,3.6799,3.6799,3.6616,3.6352,3.6236,3.5932,3.5669,3.5534,3.5504,3.5504,3.5504,3.5504,3.5504,3.5504,3.5359,3.5279,3.5472,3.5504,3.5504,3.5504,3.5504,3.5504,3.5504,3.5504,3.5235,3.4563,3.4226,3.339,3.1795,3.0814,3.022,3.0148,3.0133,3.0133,3.0133,2.9639,2.9487,2.9606,2.9606,2.9834,3.0298,2.916,2.8858,0.0,0.0,0.0,0.0,0.0,0.0,0.0,0.0,0.0,0.0,0.0,3.5554,3.6948,0.0,4.0224,4.1894,4.3325,4.4531,4.5372,4.5723,4.5899,4.5899,4.615,4.6313,4.6313,4.6313,4.6313,4.6313,4.605,4.5522,4.4669,4.4367,4.3827,4.2999,4.2974,4.2974,4.2974,4.2698,4.2158,4.1329,4.2978,4.331,4.2641,4.5207,4.6344,4.6403,4.7019,4.7309,4.7249,4.6576,4.5708,4.4736,4.4077,4.3589,4.329,4.329,4.329,4.329,4.329,4.2701,4.1856,4.1527,4.0711,3.9843,3.9514,3.9017,3.8583,3.8583,3.8219,3.78,3.78,3.7223,3.6646,3.6646,3.6048,3.5504,3.5504,3.5504,3.5504,3.5504,3.5504,3.5504,3.5504,3.5504,3.5504,3.5504,3.5504,3.5504,3.5504,3.5504,3.5504,3.5504,3.5504,3.537,3.5026,3.4698,3.3918,3.2602,3.2198,3.1704,3.1017,3.0987,3.0823,3.0507,3.0193,3.0223,3.0552,3.0552,3.0896,3.1495,3.1195,3.1046,0.0,0.0,0.0,0.0,0.0,0.0,0.0,3.411,3.4223,3.5441,3.6483,3.7613,3.9082,4.0526,4.1894,4.3099,4.443,4.5397,4.561,4.5937,4.615,4.615,4.625,4.6313,4.6313,4.6313,4.6276,4.6163,4.5736,4.5183,4.4505,4.4041,4.3539,4.2999,4.2974,4.2974,4.2974,4.2489,4.1882,4.1329,4.2061,4.2108,4.169,4.3975,4.5024,4.507,4.6107,4.6623,4.6634,4.5431,4.4679,4.4242,4.3544,4.329,4.329,4.329,4.329,4.329,4.329,4.2895,4.2291,4.1632,4.0935,4.0277,3.9619,3.9388,3.9388,3.9388,3.9388,3.9388,3.9388,3.8512,3.7569,3.7434,3.6537,3.5669,3.5534,3.5504,3.5504,3.5504,3.5504,3.5504,3.5504,3.5504,3.5504,3.5504,3.5504,3.5504,3.5504,3.5504,3.5504,3.5504,3.5504,3.5504,3.5504,3.4876,3.4279,3.3724,3.3559,3.3021,3.1929,3.1884,3.1615,3.1091,3.1091,3.136,3.1884,3.1884,3.2153,3.2706,3.2841,3.2826,3.4598,3.4331,3.5035,3.5626,3.5525,3.597,0.0,0.0,3.7186,3.8806,3.9622,4.0262,4.0887,4.1618,4.2585,4.4179,4.4606,4.507,4.6075,4.5849,4.5585,4.5585,4.6012,4.6313,4.6313,4.6313,4.61,4.5623,4.5522,4.502,4.3953,4.3827,4.3539,4.2999,4.2974,4.2974,4.2974,4.2489,4.1882,4.1329,4.2061,4.2108,4.1654,4.3074,4.3693,4.374,4.3882,4.4238,4.4658,4.3907,4.3868,4.4242,4.3544,4.329,4.329,4.329,4.329,4.329,4.329,4.2895,4.2291,4.1632,4.0935,4.0277,3.9619,3.9388,3.9388,3.9388,3.9388,3.9388,3.9388,3.8856,3.8138,3.7539,3.6881,3.6222,3.5624,3.5504,3.5504,3.5504,3.5504,3.5504,3.5504,3.5504,3.5504,3.5504,3.5504,3.5504,3.5504,3.5504,3.5504,3.5504,3.5504,3.5504,3.5504,3.4876,3.4474,3.4399,3.3814,3.3425,3.3275,3.3275,3.3245,3.317,3.3155,3.32,3.3275,3.3275,3.3305,3.3395,3.3978,3.3948,3.8196,3.7836,3.8018,3.9156,3.901,3.9004,4.0501,3.9701,3.9032,4.0375,4.1091,4.1643,4.2195,4.2735,4.3438,0.0,4.4907,4.5397,4.62,4.5836,4.5485,4.5485,4.5397,4.546,4.5799,4.5535,4.5372,4.5485,4.4882,4.4292,4.3827,4.3489,4.3212,4.2986,4.2974,4.2879,4.2552,4.1957,4.1404,4.0852,4.0835,4.0683,4.0554,4.1789,4.2786,4.3476,4.3178,4.2958,4.2753,4.2151,4.1807,4.1723,4.1409,4.174,4.2371,4.3076,4.329,4.329,4.329,4.315,4.2761,4.1713,4.119,4.0771,3.9738,3.9388,3.9388,3.9388,3.9388,3.9388,3.9388,3.8901,3.8227,3.7569,3.6941,3.6312,3.5654,3.5504,3.5504,3.5504,3.5504,3.5504,3.5504,3.5504,3.5504,3.5504,3.5504,3.5504,3.5504,3.5504,3.5504,3.5504,3.5504,3.5504,3.5504,3.5235,3.507,3.507,3.4816,3.4487,3.4114,3.4068,3.3888,3.3499,3.3499,3.3499,3.3499,3.3499,3.3694,3.4099,3.4384,3.4547,4.0076,4.0326,4.0634,4.1491,4.1733,4.1786,4.183,4.1093,4.0639,4.1593,4.2108,4.2552,4.2898,4.3313,4.3802,4.4505,4.4982,4.5497,4.6213,4.5698,4.5196,4.5045,4.438,4.4166,4.4744,4.4694,4.4731,4.5008,4.4267,4.374,4.3576,4.3187,4.2974,4.2974,4.2974,4.271,4.2213,4.1605,4.1012,4.0513,3.9961,3.9697,3.9749,4.0642,4.1604,4.242,4.1875,4.147,4.115,4.0523,4.0145,3.9899,3.9899,4.0618,4.1726,4.2548,4.3036,4.329,4.329,4.329,4.308,4.1803,4.1422,4.113,3.9828,3.9388,3.9388,3.9388,3.9388,3.9388,3.9388,3.905,3.8452,3.7614,3.706,3.6507,3.5684,3.5504,3.5504,3.5504,3.5504,3.5504,3.5504,3.5504,3.5504,3.5504,3.5504,3.5504,3.5504,3.5504,3.5504,3.5504,3.5504,3.5504,3.5504,3.5504,3.5504,3.5504,3.5504,3.528,3.4786,3.4788,3.4547,3.4053,3.4053,3.4053,3.4053,3.4053,3.4292,3.4788,3.4788,3.5026,3.8552,4.028,4.1702,4.1453,4.2799,4.3828,4.2483,4.2125,4.2301,4.2811,4.2936,4.2961,4.2974,4.2986,4.3363,4.4455,4.4644,4.5033,4.615,4.5347,4.4455,4.3915,4.2942,4.2502,0.0,4.4003,4.4405,4.389,4.3815,4.3564,4.3037,4.2986,4.2974,4.2974,4.2974,4.271,4.2213,4.1605,4.1012,4.0513,3.9961,3.9697,3.9697,3.9736,3.9788,3.9814,3.9259,3.9349,3.9836,3.9229,3.9306,3.9899,3.9899,4.0618,4.1587,4.1629,4.233,4.329,4.329,4.329,4.308,4.1803,4.1422,4.113,3.9828,3.9388,3.9388,3.9388,3.9388,3.9388,3.9388,3.9373,3.905,3.7719,3.7404,3.7045,3.5774,3.5504,3.5504,3.5504,3.5504,3.5504,3.5504,3.5504,3.5504,3.5504,3.5504,3.5504,3.5504,3.5504,3.5504,3.5504,3.5504,3.5504,3.5504,3.5504,3.5504,3.5504,3.5504,3.5489,3.5474,3.5474,3.5474,3.5444,3.5444,3.5444,3.5444,3.5444,3.5459,3.5474,3.5474,3.5489,3.8939,4.0777,4.2411,4.3588,4.4017,4.4158,4.4066,4.3364,4.2703,4.2527,4.2489,4.2376,4.1957,4.1894,4.2371,4.384,4.4079,4.4606,4.61,4.5673,4.4844,4.3915,4.3476,0.0,0.0,0.0,0.0,4.3765,4.3463,4.3175,4.2986,4.2974,4.2974,4.2974,4.2678,4.217,4.1618,4.1065,4.0513,3.9973,3.9785,3.9697,3.9697,3.9697,3.9496,3.912,3.8542,3.8211,3.8015,3.7488,3.7376,3.7645,3.8424,3.9434,4.0575,4.1337,4.233,4.329,4.329,4.329,4.308,4.1803,4.1422,4.113,3.9828,3.9388,3.9388,3.9388,3.9388,3.9388,3.9388,3.9388,3.9185,3.8272,3.7719,3.718,3.6342,3.5804,3.5504,3.5504,3.5504,3.5504,3.5504,3.5504,3.5504,3.5504,3.5504,3.5504,3.5504,3.5504,3.5504,3.5504,3.5504,3.5504,3.5504,3.5504,3.5504,3.5504,3.5504,3.5504,3.5504,3.5504,3.5504,3.5504,3.5504,3.5504,3.5504,3.5504,3.5504,3.5504,3.5504,3.5504,3.967,4.1411,4.3007,4.4387,4.4567,4.4387,4.4294,4.3449,4.259,4.1969,4.1706,4.1404,4.0852,4.0752,4.1291,4.2949,4.3376,4.4091,4.5786,4.5535,4.4832,4.3915,4.3451,4.2936,0.0,0.0,0.0,4.3438,4.3175,4.2974,4.2974,4.2974,4.2886,4.274,4.2389,4.1806,4.1,4.0701,4.0237,3.9697,3.9697,3.9697,3.9685,3.9484,3.9449,3.9432,3.8237,3.8008,3.8392,3.7428,3.7243,3.7736,3.8482,3.9478,4.0618,4.1337,4.233,4.329,4.329,4.329,4.308,4.1803,4.1422,4.113,3.9828,3.9388,3.9388,3.9388,3.9388,3.9388,3.9388,3.9388,3.9245,3.8556,3.7883,3.724,3.6626,3.5968,3.5504,3.5504,3.5504,3.5504,3.5504,3.5504,3.5504,3.5504,3.5504,3.5504,3.5504,3.5504,3.5504,3.5504,3.5504,3.5504,3.5504,3.5504,3.5504,3.5504,3.5504,3.5504,3.5504,3.5504,3.5504,3.5504,3.5504,3.5504,3.5504,3.5504,3.5504,3.5504,3.5504,3.5504,4.0689,4.2116,4.3556,4.3927,4.4479,4.4576,4.3257,4.2564,4.1999,4.1379,4.0802,4.0224,0.0,0.0,4.0149,4.1861,4.264,4.3564,4.5246,4.5033,4.448,0.0,0.0,0.0,0.0,0.0,0.0,4.2936,0.0,4.2974,4.2974,4.2974,4.2778,4.2225,4.2187,4.1605,4.0526,4.0488,4.0212,3.9697,3.9697,3.9685,3.9634,3.9209,3.9544,4.0408,3.828,3.8639,4.0525,3.8863,3.8872,3.9899,3.9942,4.0661,4.1587,4.167,4.2371,4.329,4.329,4.329,4.308,4.1803,4.1422,4.113,3.9828,3.9388,3.9388,3.9388,3.9388,3.9388,3.9388,3.9388,3.926,3.8601,3.7913,3.724,3.6656,3.5998,3.5504,3.5504,3.5504,3.5504,3.5504,3.5504,3.5504,3.5504,3.5504,3.5504,3.5504,3.5504,3.5504,3.5504,3.5504,3.5504,3.5504,3.5504,3.5504,3.5504,3.5504,3.5504,3.5504,3.5504,3.5504,3.5504,3.5504,3.5504,3.5504,3.5504,3.5504,3.5504,3.5504,3.5504,4.1745,4.2976,4.3901,4.3396,4.339,4.3335,4.2557,4.1944,4.1279,4.0312,3.9333,3.8479,3.7927,0.0,0.0,4.0664,4.2082,0.0,4.5246,4.5711,0.0,4.3966,0.0,4.3514,4.2338,4.2577,0.0,0.0,4.2974,4.2974,4.2974,4.2974,4.2778,4.2225,4.1756,4.1216,4.0526,4.0111,3.9835,3.9697,3.9697,3.9484,3.912,3.982,3.9838,3.9367,3.9685,3.9942,4.0062,3.9604,3.9623,3.9986,4.0831,4.1337,4.1726,4.2548,4.3036,4.329,4.329,4.329,4.308,4.1803,4.1422,4.113,3.9828,3.9388,3.9388,3.9388,3.9388,3.9388,3.9388,3.9388,3.9379,3.92,3.8257,3.736,3.721,3.6297,3.5504,3.5504,3.5504,3.5504,3.5504,3.5504,3.5504,3.5504,3.5504,3.5504,3.5504,3.5504,3.5504,3.5504,3.5504,3.5504,3.5504,3.5504,3.5504,3.5504,3.5504,3.5504,3.5504,3.5504,3.5504,3.5504,3.5504,3.5504,3.5504,3.5504,3.5504,3.5504,3.5504,3.5504,4.3218,4.3874,4.4279,4.3262,4.2798,4.2464,4.1618,4.0827,3.9798,3.8203,3.7174,3.6395,3.5843,3.6395,3.755,0.0,0.0,0.0,4.4844,4.5372,4.5309,0.0,4.438,0.0,4.2974,4.2936,4.2974,0.0,4.2974,4.2974,4.2974,4.2803,4.2371,4.1819,4.1266,4.0714,4.0162,3.9848,3.9697,3.9697,3.9697,3.9408,3.8906,3.9829,4.0039,3.9707,0.0,4.0755,4.1351,4.0831,4.093,4.1449,4.2085,4.233,4.2412,4.3076,4.329,4.329,4.329,4.329,4.308,4.1803,4.1422,4.113,3.9828,3.9388,3.9388,3.9388,3.9388,3.9388,3.9388,3.9388,3.9388,3.9388,3.8616,3.7764,3.7464,3.6626,3.5848,3.5564,3.5504,3.5504,3.5504,3.5504,3.5504,3.5504,3.5504,3.5504,3.5504,3.5504,3.5504,3.5504,3.5504,3.5504,3.5504,3.5504,3.5504,3.5504,3.5504,3.5504,3.5504,3.5504,3.5504,3.5504,3.5504,3.5504,3.5504,3.5504,3.5504,3.5504,3.5504,3.5504,4.5085,4.5009,4.4941,4.3602,4.2662,4.181,4.085,3.9536,3.7989,3.6042,3.4967,3.4261,3.3859,3.4688,3.6122,3.8391,0.0,4.194,4.4204,4.4518,4.4706,4.5208,4.4392,4.3777,4.3702,4.3263,4.2974,4.2974,4.2974,4.2974,4.2974,4.2502,4.1869,4.12,4.0701,4.0174,3.9697,3.9697,3.9697,3.9697,3.989,3.9601,3.9032,3.9874,4.0489,4.0824,0.0,0.0,4.321,4.2249,4.2412,4.329,4.329,4.329,4.329,4.329,4.329,4.329,4.329,4.329,4.308,4.1803,4.1422,4.113,3.9828,3.9388,3.9388,3.9388,3.9388,3.9388,3.9388,3.9388,3.9388,3.9388,3.8901,3.8227,3.7659,3.6985,3.6312,3.5744,3.5564,3.5504,3.5504,3.5504,3.5504,3.5504,3.5504,3.5504,3.5504,3.5504,3.5504,3.5504,3.5504,3.5504,3.5504,3.5504,3.5504,3.5504,3.5504,3.5504,3.5504,3.5504,3.5504,3.5504,3.5504,3.5504,3.5504,3.5504,3.5504,3.5504,3.5504,3.5504,4.7706,4.7145,4.6383,4.4994,4.3028,4.1392,4.1195,3.8907,0.0,3.6267,3.4285,3.2767,3.3144,3.4123,3.5592,3.7801,3.9559,4.143,4.3639,4.394,4.3978,0.0,4.3915,4.3627,4.3162,4.3037,0.0,0.0,0.0,4.2974,4.2974,4.2502,4.1693,4.0689,4.0124,3.9785,3.9697,3.9697,3.9697,3.9697,4.0794,4.072,3.9712,4.1813,4.2308,4.148,4.2333,0.0,4.329,4.3076,4.3115,4.329,4.329,4.329,4.329,4.329,4.329,4.329,4.329,4.329,4.308,4.1803,4.1422,4.113,3.9828,3.9388,3.9388,3.9388,3.9388,3.9388,3.9388,3.9388,3.9388,3.9388,3.8901,3.8362,3.8242,3.7315,3.6447,3.6342,3.5878,3.5504,3.5504,3.5504,3.5504,3.5504,3.5504,3.5504,3.5504,3.5504,3.5504,3.5504,3.5504,3.5504,3.5504,3.5504,3.5504,3.5504,3.5504,3.5504,3.5504,3.5504,3.5504,3.5504,3.5504,3.5504,3.5504,3.5504,3.5504,3.5504,3.5504,3.5504,4.8856,4.7949,4.6733,4.5356,4.34,4.1492,4.0168,0.0,0.0,3.4393,3.2628,3.1474,3.175,3.2692,3.4048,3.5981,3.7475,3.9346,4.2133,4.2522,4.2949,4.4091,4.3978,4.3689,0.0,4.3137,0.0,0.0,0.0,4.2728,4.2961,4.2183,4.1229,4.0124,3.9835,3.9697,3.9697,4.0364,4.0693,4.0693,4.163,4.1639,4.0821,4.2241,4.2423,4.167,4.2805,0.0,4.329,4.329,4.329,4.329,4.329,4.329,4.329,4.329,4.329,4.329,4.329,4.329,4.314,4.2207,4.1692,4.113,3.9828,3.9388,3.9388,3.9388,3.9388,3.9388,3.9388,3.9388,3.9388,3.9388,3.8901,3.8392,3.8392,3.7644,3.6866,3.6552,3.6237,3.5908,3.5564,3.5504,3.5504,3.5504,3.5504,3.5504,3.5504,3.5504,3.5504,3.5504,3.5504,3.5504,3.5504,3.5504,3.5504,3.5504,3.5504,3.5504,3.5504,3.5504,3.5504,3.5504,3.5504,3.5504,3.5504,3.5504,3.5504,3.5504,3.5504,3.5504,4.9453,4.8489,4.7299,4.6174,4.4037,4.1683,3.9794,3.7657,3.5341,3.2849,3.1487,3.0681,3.0635,3.1386,3.2629,0.0,3.5567,3.7337,4.0485,4.1037,4.184,0.0,4.3815,0.0,4.3627,4.3237,0.0,0.0,0.0,0.0,4.2434,4.1875,4.0953,3.9722,4.0224,4.0364,4.0121,4.1369,4.1919,4.1786,4.2546,4.254,4.1892,4.2496,4.25,4.2029,4.29,0.0,0.0,4.329,4.329,4.329,4.329,4.329,4.329,4.329,4.329,4.329,4.329,4.329,4.3185,4.262,4.1961,4.116,3.9993,3.9493,3.9388,3.9388,3.9388,3.9388,3.9388,3.9388,3.9388,3.9388,3.9005,3.8601,3.8601,3.8093,3.7479,3.6985,3.6671,3.6327,3.5804,3.5609,3.5504,3.5504,3.5504,3.5504,3.5504,3.5504,3.5504,3.5504,3.5504,3.5504,3.5504,3.5504,3.5504,3.5504,3.5504,3.5504,3.5504,3.5504,3.5504,3.5504,3.5504,3.5504,3.5504,3.5504,3.5504,3.5504,3.5504,3.5504,5.0102,4.9593,4.8999,4.8851,4.5249,4.1788,4.1938,0.0,3.4457,3.3608,3.2236,3.103,3.0666,3.1085,3.2177,3.4361,3.5182,3.6561,3.9446,4.0275,4.104,4.2288,0.0,0.0,4.3049,0.0,0.0,0.0,0.0,0.0,4.0789,4.1725,4.1478,3.9761,4.1936,4.2593,4.1455,4.2689,4.3038,4.2442,4.3658,4.3541,4.2396,4.359,4.3781,4.3155,4.325,0.0,0.0,4.329,4.329,4.329,4.329,4.329,4.329,4.329,4.329,4.329,4.329,4.329,4.3185,4.262,4.1961,4.125,4.0531,3.9888,3.9388,3.9388,3.9388,3.9388,3.9388,3.9388,3.9388,3.9388,3.9328,3.9334,3.9334,3.8781,3.8287,3.8227,3.7285,3.6462,3.6402,3.5893,3.5504,3.5504,3.5504,3.5504,3.5504,3.5504,3.5504,3.5504,3.5504,3.5504,3.5504,3.5504,3.5504,3.5504,3.5504,3.5504,3.5504,3.5504,3.5504,3.5504,3.5504,3.5504,3.5504,3.5504,3.5504,3.5504,3.5504,3.5504,4.8758,4.9136,4.911,4.8686,4.5643,4.2343,4.0665,3.7369,3.4191,3.2498,3.1215,3.0318,3.0159,3.0281,3.0934,3.2466,3.2905,3.4135,3.7274,3.7889,3.8919,4.1379,4.1856,0.0,0.0,0.0,0.0,0.0,0.0,0.0,4.0061,4.0821,4.1132,4.0857,4.1838,4.2509,4.2738,4.4022,4.433,4.3661,4.4516,4.4444,4.3546,4.3641,4.3544,4.329,4.329,0.0,0.0,4.329,4.329,4.329,4.329,4.329,4.329,4.329,4.329,4.329,4.329,4.329,4.3245,4.303,4.2506,4.1811,4.0726,4.0217,3.9933,3.9493,3.9388,3.9388,3.9388,3.9388,3.9388,3.9388,3.9388,3.9388,3.9388,3.92,3.8886,3.8467,3.7988,3.7389,3.6611,3.6267,3.5953,3.5564,3.5504,3.5504,3.5504,3.5504,3.5504,3.5504,3.5504,3.5504,3.5504,3.5504,3.5504,3.5504,3.5504,3.5504,3.5504,3.5504,3.5504,3.5504,3.5504,3.5504,3.5504,3.5504,3.5504,3.5504,3.5504,3.5504,4.6509,4.7518,4.7983,4.7492,4.4925,4.1844,3.9467,3.663,3.3833,3.1653,3.0658,3.0139,2.9869,2.9792,3.0093,3.1009,3.1574,3.283,3.5529,3.6307,3.7538,0.0,0.0,4.104,0.0,0.0,0.0,0.0,0.0,0.0,0.0,4.0061,4.0476,4.0995,4.2119,4.2978,4.3504,4.4929,4.5317,4.4662,4.4914,4.4661,4.4003,4.3499,4.329,4.329,0.0,0.0,0.0,4.329,4.329,4.329,4.329,4.329,4.329,4.329,4.329,4.329,4.329,4.329,4.329,4.329,4.3015,4.2402,4.1085,4.0561,4.0262,3.9604,3.9388,3.9388,3.9388,3.9388,3.9388,3.9388,3.9388,3.9388,3.9388,3.9388,3.9275,3.8796,3.8527,3.8048,3.6941,3.6611,3.6267,3.5609,3.5504,3.5504,3.5504,3.5504,3.5504,3.5504,3.5504,3.5504,3.5504,3.5504,3.5504,3.5504,3.5504,3.5504,3.5504,3.5504,3.5504,3.5504,3.5504,3.5504,3.5504,3.5504,3.5504,3.5504,3.5504,3.5504,4.3346,4.4567,4.5524,4.551,4.2786,3.9927,3.9159,3.6236,3.3238,3.1549,3.118,3.0895,2.9972,2.9792,2.998,3.0532,3.1989,3.3458,3.4575,3.6144,3.7387,0.0,0.0,3.9333,0.0,0.0,0.0,0.0,0.0,0.0,0.0,3.9697,3.9697,3.9749,4.3409,4.478,4.3504,4.5346,4.595,4.5289,4.4631,4.3947,4.3305,4.329,4.329,0.0,0.0,0.0,0.0,4.329,4.329,4.329,4.329,4.329,4.329,4.329,4.329,4.329,4.329,4.329,4.329,4.329,4.329,4.3035,4.1773,4.092,4.0262,3.9604,3.9388,3.9388,3.9388,3.9388,3.9388,3.9388,3.9388,3.9388,3.9388,3.9388,3.9388,3.9373,3.8856,3.8182,3.7524,3.6896,3.6267,3.5609,3.5504,3.5504,3.5504,3.5504,3.5504,3.5504,3.5504,3.5504,3.5504,3.5504,3.5504,3.5504,3.5504,3.5504,3.5504,3.5504,3.5504,3.5504,3.5504,3.5504,3.5504,3.5504,3.5504,3.5504,3.5504,3.5504,3.973,4.1567,4.2976,4.214,4.0418,3.8456,3.6665,3.4404,3.2217,3.0586,3.0241,3.0139,2.9856,2.9792,3.0218,3.1499,3.2139,0.0,0.0,0.0,0.0,3.7902,3.9848,0.0,0.0,0.0,0.0,0.0,0.0,0.0,0.0,3.9697,4.007,4.0982,4.3026,4.4303,4.478,4.5814,4.5978,4.5289,4.4631,4.3932,4.329,4.329,0.0,0.0,0.0,0.0,0.0,4.329,4.329,4.329,4.329,4.329,4.329,4.329,4.329,4.329,4.329,4.329,4.329,4.329,4.329,4.314,4.2312,4.1632,4.0846,3.9723,3.9388,3.9388,3.9388,3.9388,3.9388,3.9388,3.9388,3.9388,3.9388,3.9388,3.9388,3.9388,3.9245,3.8871,3.8197,3.7928,3.7419,3.6342,3.6178,3.6013,3.5564,3.5504,3.5504,3.5504,3.5504,3.5504,3.5504,3.5504,3.5504,3.5504,3.5504,3.5504,3.5504,3.5504,3.5504,3.5504,3.5504,3.5504,3.5504,3.5504,3.5504,3.5504,3.5504,3.5504,3.6543,3.827,3.9491,3.898,3.7753,3.6283,3.464,3.2902,3.126,3.0043,2.9792,2.9792,2.9792,2.9792,3.0131,3.1135,3.1813,0.0,0.0,0.0,0.0,3.7852,0.0,0.0,0.0,0.0,0.0,0.0,0.0,0.0,0.0,3.9697,4.0083,4.0844,4.2593,4.3882,4.4688,4.5506,4.5723,4.5289,4.4377,4.3678,4.329,4.329,0.0,0.0,0.0,0.0,0.0,4.329,4.329,4.329,4.329,4.329,4.329,4.329,4.329,4.329,4.329,4.329,4.329,4.329,4.2961,4.2521,4.2156,4.1572,4.0786,3.9723,3.9388,3.9388,3.9388,3.9388,3.9388,3.9388,3.9388,3.9388,3.9388,3.9388,3.9388,3.9388,3.9388,3.92,3.8512,3.8392,3.8033,3.6985,3.6641,3.6342,3.5923,3.5669,3.5504,3.5504,3.5504,3.5504,3.5504,3.5504,3.5504,3.5504,3.5504,3.5504,3.5504,3.5504,3.5504,3.5504,3.5504,3.5504,3.5504,3.5504,3.5504,3.5504,3.5504,3.5504,0.0,3.4793,3.532,3.5843,3.4826,3.3571,3.3031,3.1725,0.0,2.9905,2.9792,2.9804,2.9842,2.9817,2.9829,2.9942,3.1223,0.0,0.0,3.4625,0.0,0.0,3.9207,0.0,0.0,0.0,0.0,0.0,0.0,0.0,0.0,3.9697,3.9697,3.9697,4.2128,4.3434,4.3434,4.469,4.5274,4.5214,4.3943,4.329,4.329,4.329,0.0,0.0,0.0,0.0,0.0,4.329,4.329,4.329,4.329,4.329,4.329,4.329,4.329,4.329,4.329,4.329,4.329,4.329,4.2506,4.1504,4.1452,4.0891,4.0202,3.9589,3.9388,3.9388,3.9388,3.9388,3.9388,3.9388,3.9388,3.9388,3.9388,3.9388,3.9388,3.9388,3.9388,3.9215,3.8571,3.8467,3.8242,3.7584,3.6985,3.6611,3.6552,3.5983,3.5579,3.5579,3.5534,3.5504,3.5504,3.5504,3.5504,3.5504,3.5504,3.5504,3.5504,3.5504,3.5504,3.5504,3.5504,3.5504,3.5504,3.5504,3.5504,3.5504,3.5504,3.5504,3.1286,0.0,3.2303,3.2039,3.1976,3.1838,0.0,3.0896,3.0457,2.9905,2.9792,2.993,3.0344,3.008,3.0193,3.1449,0.0,3.2554,3.3571,0.0,0.0,4.026,4.1166,0.0,0.0,0.0,0.0,0.0,0.0,0.0,0.0,3.9697,3.9697,3.9697,4.1691,4.272,4.272,4.4428,4.5035,4.4541,4.3678,4.329,4.329,4.329,0.0,0.0,0.0,0.0,4.329,4.329,4.329,4.329,4.329,4.329,4.329,4.329,4.329,4.329,4.329,4.329,4.329,4.329,4.308,4.2686,4.1683,4.0561,3.9619,3.9433,3.9388,3.9388,3.9388,3.9388,3.9388,3.9388,3.9388,3.9388,3.9388,3.9388,3.9388,3.9388,3.9388,3.9364,3.92,3.917,3.8945,3.8257,3.8033,3.7764,3.7255,3.6641,3.6252,3.6252,3.5804,3.5504,3.5504,3.5504,3.5504,3.5504,3.5504,3.5504,3.5504,3.5504,3.5504,3.5504,3.5504,3.5504,3.5504,3.5504,3.5504,3.5504,3.5504,3.5504,3.0688,3.1117,3.1386,3.1361,3.1373,3.1311,3.1035,3.0595,3.0261,3.0407,3.0457,3.0648,3.1389,3.1124,3.11,3.1959,3.238,0.0,0.0,0.0,3.9132,4.105,0.0,0.0,0.0,0.0,0.0,0.0,0.0,0.0,0.0,4.0275,4.0554,4.0554,4.2405,4.3114,4.2513,4.4064,4.4661,4.4302,4.3604,4.329,4.329,4.329,4.329,0.0,0.0,0.0,4.329,4.329,4.329,4.329,4.329,4.329,4.329,4.329,4.329,4.329,4.329,4.329,4.329,4.329,4.3135,4.2701,4.1683,4.0666,3.9798,3.9514,3.9388,3.9388,3.9388,3.9388,3.9388,3.9388,3.9388,3.9388,3.9388,3.9388,3.9388,3.9388,3.9388,3.9388,3.9388,3.9388,3.929,3.8916,3.8601,3.8257,3.7898,3.73,3.6911,3.6911,3.6596,3.6372,3.6372,3.6118,3.5833,3.5534,3.5504,3.5504,3.5504,3.5504,3.5504,3.5504,3.5504,3.5504,3.5504,3.5504,3.5504,3.5504,3.5504,3.5504,3.0966,3.1525,3.1876,3.2161,3.2,3.1694,3.1618,3.0761,3.0279,3.1217,3.1278,3.1553,3.2662,3.26,3.2454,3.2526,0.0,0.0,3.696,3.8354,3.9672,4.1112,0.0,0.0,0.0,0.0,0.0,0.0,0.0,0.0,0.0,4.1032,4.165,4.1705,4.3374,4.3657,4.25,4.3712,4.4272,4.4152,4.3559,4.329,4.329,4.329,4.329,0.0,0.0,0.0,4.329,4.329,4.329,4.329,4.329,4.329,4.329,4.329,4.329,4.329,4.329,4.329,4.329,4.329,4.2955,4.2425,4.1767,4.1145,4.0546,3.9783,3.9499,3.9388,3.9388,3.9388,3.9388,3.9388,3.9388,3.9388,3.9388,3.9388,3.9388,3.9388,3.9388,3.9388,3.9388,3.9388,3.9388,3.9388,3.8916,3.8542,3.8542,3.7973,3.7554,3.7554,3.7464,3.7404,3.7404,3.6926,3.6387,3.5833,3.5609,3.5504,3.5504,3.5504,3.5504,3.5504,3.5504,3.5504,3.5504,3.5504,3.5504,3.5504,3.5609,3.5654,3.1084,3.2455,3.345,3.2732,3.2886,3.31,3.2559,3.1669,3.1254,3.2177,3.1742,3.1806,3.3747,3.4185,3.4383,3.4867,0.0,3.638,0.0,0.0,4.0526,0.0,0.0,0.0,0.0,0.0,0.0,0.0,0.0,0.0,0.0,4.1505,4.1843,4.2336,4.3135,4.3184,4.2424,4.3664,4.4032,4.3439,4.3349,4.329,4.329,4.329,4.329,0.0,0.0,4.329,4.329,4.329,4.329,4.329,4.329,4.329,4.329,4.329,4.329,4.329,4.329,4.329,4.329,4.329,4.323,4.306,4.244,4.2171,4.1841,4.0591,3.9843,3.9388,3.9388,3.9388,3.9388,3.9388,3.9388,3.9388,3.9388,3.9388,3.9388,3.9388,3.9388,3.9388,3.9388,3.9388,3.9388,3.9388,3.9334,3.926,3.926,3.8661,3.8242,3.8242,3.7749,3.7404,3.7404,3.733,3.7225,3.712,3.6103,3.5504,3.5504,3.5504,3.5504,3.5504,3.5504,3.5504,3.5504,3.5504,3.5504,3.5519,3.6073,3.6342,3.1035,3.2149,3.324,3.4186,3.4775,3.4944,3.426,3.354,3.3307,3.424,3.4082,3.4083,3.5037,3.5551,3.5967,3.6379,0.0,3.7463,3.9239,3.9817,0.0,0.0,0.0,0.0,0.0,0.0,0.0,0.0,0.0,0.0,0.0,0.0,4.3255,4.3539,4.3762,4.3715,4.3422,4.366,4.3589,4.329,4.329,4.329,4.329,4.329,4.329,4.329,0.0,4.329,4.329,4.329,4.329,4.329,4.329,4.329,4.329,4.329,4.329,4.329,4.329,4.329,4.329,4.329,4.329,4.317,4.259,4.2396,4.2201,4.1205,4.0711,4.0307,3.9604,3.9694,3.9858,3.9514,3.9388,3.9388,3.9388,3.9388,3.9388,3.9388,3.9388,3.9388,3.9388,3.9388,3.9388,3.9388,3.9388,3.9388,3.9388,3.914,3.8945,3.8945,3.8676,3.8497,3.8497,3.8153,3.7793,3.7434,3.6866,3.6537,3.6537,3.6207,3.6193,3.6522,3.5863,3.5684,3.6028,3.6028,3.6028,3.6058,3.6686,3.6985,3.1176,3.1923,3.2981,3.5266,3.6066,3.6354,3.6517,3.5963,3.5746,3.7005,3.675,3.6399,3.6733,3.7097,0.0,3.7766,3.8062,3.8861,4.0728,0.0,0.0,0.0,0.0,0.0,0.0,0.0,0.0,0.0,0.0,0.0,0.0,0.0,4.4484,4.4603,4.4388,4.4242,4.4092,4.3544,4.329,4.329,4.329,4.329,4.329,4.329,4.329,4.329,4.329,4.329,4.329,4.329,4.329,4.329,4.329,4.329,4.329,4.329,4.329,4.329,4.329,4.329,4.329,4.329,4.329,4.32,4.2746,4.262,4.2447,4.1826,4.1728,4.1504,4.0023,4.0023,4.0232,3.9574,3.9388,3.9388,3.9388,3.9388,3.9388,3.9388,3.9388,3.9388,3.9388,3.9388,3.9388,3.9388,3.9388,3.9388,3.9388,3.9388,3.9388,3.9388,3.9388,3.9388,3.9388,3.8931,3.8422,3.7913,3.7584,3.7404,3.7404,3.6956,3.6926,3.7404,3.6447,3.6207,3.6701,3.6701,3.6701,3.6716,3.7345,3.7644,3.1845,3.2626,3.347,3.4981,3.5704,3.6722,3.9446,3.8868,3.8385,4.0553,3.8927,3.7566,3.905,3.8961,3.8865,3.9528,4.0574,4.1347,0.0,0.0,0.0,0.0,0.0,0.0,0.0,0.0,0.0,0.0,0.0,0.0,0.0,0.0,0.0,4.5212,4.4635,4.4018,4.3364,4.3319,4.329,4.329,4.329,4.329,4.329,4.329,4.329,4.329,4.329,4.329,4.329,4.329,4.329,4.329,4.329,4.329,4.329,4.329,4.329,4.329,4.329,4.329,4.329,4.329,4.329,4.329,4.3245,4.323,4.3135,4.2515,4.2731,4.2707,4.0831,4.0367,4.0232,3.9574,3.9388,3.9388,3.9388,3.9388,3.9388,3.9388,3.9388,3.9388,3.9388,3.9388,3.9388,3.9388,3.9388,3.9388,3.9388,3.9388,3.9388,3.9388,3.9388,3.9388,3.9388,3.9379,3.9334,3.9239,3.8108,3.7404,3.7404,3.736,3.736,3.7404,3.7315,3.73,3.7345,3.7345,3.7345,3.736,3.8018,3.8317,3.0595,3.1383,3.2536,3.4487,3.5847,3.74,3.9817,4.088,4.1715,4.2936,4.1709,4.0154,3.9256,0.0,3.8402,4.0127,4.1076,4.2168,0.0,0.0,0.0,0.0,0.0,0.0,0.0,0.0,0.0,0.0,0.0,0.0,0.0,0.0,0.0,4.4665,4.4047,4.3544,4.329,4.329,4.329,4.329,4.329,4.329,4.329,4.329,4.329,4.329,4.329,4.329,4.329,4.329,4.329,4.329,4.329,4.329,4.329,4.329,4.329,4.329,4.329,4.329,4.329,4.329,4.329,4.329,4.329,4.329,4.3245,4.303,4.3135,4.2931,4.1414,4.101,4.0846,4.0187,3.9709,3.9388,3.9388,3.9388,3.9388,3.9388,3.9388,3.9388,3.9388,3.9388,3.9388,3.9388,3.9388,3.9388,3.9388,3.9388,3.9388,3.9388,3.9388,3.9388,3.9388,3.9388,3.9388,3.9388,3.891,3.8626,3.8626,3.8242,3.8212,3.8646,3.7838,3.7614,3.8018,3.8018,3.8018,3.8033,3.8721,3.9035,3.0055,3.0457,3.1379,3.3394,3.5506,3.7627,3.9967,4.2341,4.4287,4.5349,4.3947,4.188,3.9801,0.0,0.0,0.0,4.2044,0.0,0.0,0.0,0.0,0.0,0.0,0.0,0.0,0.0,0.0,0.0,0.0,0.0,0.0,0.0,0.0,0.0,4.3633,4.329,4.329,4.329,4.329,4.329,4.329,4.329,4.329,4.329,4.329,4.329,4.329,4.329,4.329,4.329,4.329,4.329,4.329,4.329,4.329,4.329,4.329,4.329,4.329,4.329,4.329,4.329,4.329,4.329,4.329,4.329,4.329,4.329,4.329,4.305,4.1968,4.1572,4.1205,4.0561,3.9903,3.9388,3.9388,3.9388,3.9388,3.9388,3.9388,3.9388,3.9388,3.9388,3.9388,3.9388,3.9388,3.9388,3.9388,3.9388,3.9388,3.9388,3.9388,3.9388,3.9388,3.9388,3.9388,3.9388,3.9388,3.9388,3.9388,3.896,3.8931,3.9373,3.8512,3.8272,3.8721,3.8721,3.8721,3.8721,3.92,3.9388,3.0608,3.0218,3.0201,3.1627,3.4337,3.7361,4.0167,4.3148,4.5873,4.7878,4.5362,4.2421,4.1079,4.031,0.0,4.1512,0.0,0.0,0.0,0.0,0.0,0.0,0.0,0.0,0.0,0.0,0.0,0.0,0.0,0.0,0.0,0.0,0.0,0.0,4.3633,4.329,4.329,4.329,4.329,4.329,4.329,4.329,4.329,4.329,4.329,4.329,4.329,4.329,4.329,4.329,4.329,4.329,4.329,4.329,4.329,4.329,4.329,4.329,4.329,4.329,4.329,4.329,4.329,4.329,4.329,4.329,4.329,4.329,4.329,4.314,4.2575,4.1916,4.1205,4.0561,3.9903,3.9388,3.9388,3.9388,3.9388,3.9388,3.9388,3.9388,3.9388,3.9388,3.9388,3.9388,3.9388,3.9388,3.9388,3.9388,3.9388,3.9388,3.9388,3.9388,3.9388,3.9388,3.9388,3.9388,3.9388,3.9388,3.9388,3.9388,3.9388,3.9388,3.9388,3.9388,3.9388,3.9388,3.9388,3.9388,3.9388,3.9388,3.0143,3.0746,3.1707,3.2539,3.5211,3.8333,4.093,4.3833,4.617,4.681,4.5768,4.4166,4.2467,4.2007,0.0,0.0,0.0,0.0,0.0,0.0,0.0,0.0,0.0,0.0,0.0,0.0,0.0,0.0,0.0,0.0,0.0,0.0,0.0,0.0,4.3394,4.329,4.329,4.329,4.329,4.329,4.329,4.329,4.329,4.329,4.329,4.329,4.329,4.329,4.329,4.329,4.329,4.329,4.329,4.329,4.329,4.329,4.329,4.329,4.329,4.329,4.329,4.329,4.329,4.329,4.329,4.329,4.329,4.329,4.329,4.314,4.2575,4.1916,4.1205,4.0561,3.9903,3.9388,3.9388,3.9388,3.9388,3.9388,3.9388,3.9388,3.9388,3.9388,3.9388,3.9388,3.9388,3.9388,3.9388,3.9388,3.9388,3.9388,3.9388,3.9388,3.9388,3.9388,3.9388,3.9388,3.9388,3.9388,3.9388,3.9388,3.9388,3.9388,3.9388,3.9388,3.9388,3.9388,3.9388,3.9388,3.9388,3.9388,3.083,3.1779,3.3021,3.3841,3.5939,3.8671,4.2046,4.5025,4.7092,0.0,4.629,4.5218,4.4285,4.3766,0.0,0.0,0.0,0.0,0.0,0.0,0.0,0.0,0.0,0.0,0.0,0.0,0.0,0.0,0.0,0.0,0.0,0.0,0.0,0.0,4.329,4.329,4.329,4.329,4.329,4.329,4.329,4.329,4.329,4.329,4.329,4.329,4.329,4.329,4.329,4.329,4.329,4.329,4.329,4.329,4.329,4.329,4.329,4.329,4.329,4.329,4.329,4.329,4.329,4.329,4.329,4.329,4.329,4.329,4.329,4.308,4.2246,4.1707,4.1205,4.0561,3.9903,3.9388,3.9388,3.9388,3.9388,3.9388,3.9388,3.9388,3.9388,3.9388,3.9388,3.9388,3.9388,3.9388,3.9388,3.9388,3.9388,3.9388,3.9388,3.9388,3.9388,3.9388,3.9388,3.9388,3.9737,3.9935,3.9935,3.9574,3.9574,3.99,3.9935,3.9935,3.9935,3.9935,3.9737,3.9388,3.9388,3.9388,3.2065,3.287,3.4,3.5089,3.6554,3.8849,4.3298,4.6329,4.8192,4.8192,0.0,4.5799,4.6288,4.5521,0.0,0.0,0.0,0.0,0.0,0.0,0.0,0.0,0.0,0.0,0.0,0.0,0.0,0.0,0.0,0.0,0.0,0.0,0.0,4.329,4.329,4.325,4.3155,4.325,4.325,0.0,4.325,4.329,4.329,4.329,4.329,4.329,4.329,4.329,4.329,4.329,4.329,4.329,4.329,4.329,4.329,4.329,4.329,4.329,4.329,4.329,4.329,4.329,4.329,4.329,4.329,4.329,4.329,4.329,4.329,4.2991,4.1728,4.1422,4.1205,4.0487,3.9843,3.9388,3.9388,3.9388,3.9388,3.9388,3.9388,3.9388,3.9388,3.9388,3.9388,3.9388,3.9388,3.9388,3.9388,3.9388,3.9388,3.9388,3.9388,3.9388,3.9388,3.9481,3.9481,3.9424,4.0274,4.0792,4.069,4.0025,3.999,4.0811,4.0826,4.0826,4.0826,4.0826,4.0378,3.9517,3.9517,3.9481,3.1053,3.2069,3.3416,3.4101,3.7541,4.1324,4.3245,4.5689,4.7519,4.7519,4.721,4.6974,4.7071,0.0,0.0,0.0,0.0,0.0,0.0,0.0,0.0,0.0,0.0,0.0,0.0,0.0,0.0,0.0,0.0,0.0,0.0,0.0,0.0,4.329,4.329,4.286,4.1988,4.286,4.286,0.0,4.286,4.329,4.329,4.329,4.329,4.329,4.329,4.329,4.329,4.329,4.329,4.329,4.329,4.329,4.329,4.329,4.329,4.329,4.329,4.329,4.329,4.329,4.329,4.329,4.329,4.329,4.329,4.329,4.329,4.2991,4.1728,4.1422,4.1085,3.9903,3.9514,3.9388,3.9388,3.9388,3.9388,3.9388,3.9388,3.9388,3.9388,3.9388,3.9388,3.9388,3.9388,3.9388,3.9388,3.9388,3.9388,3.9388,3.9388,3.9388,3.9388,4.0025,4.0115,3.9445,4.0876,4.1396,4.0724,4.118,4.1511,4.1739,4.1739,4.1739,4.1739,4.1739,4.128,4.0432,4.0432,4.0045,3.1215,3.2787,3.4507,3.5592,3.9064,4.2436,4.3296,4.5448,4.7219,4.6905,4.7085,4.7309,4.7309,0.0,0.0,0.0,0.0,0.0,0.0,0.0,0.0,0.0,0.0,0.0,0.0,0.0,0.0,0.0,0.0,0.0,0.0,4.329,4.329,4.329,4.329,4.3036,4.2412,4.2981,4.2981,4.2412,4.3036,4.329,4.329,4.329,4.329,4.329,4.329,4.329,4.329,4.329,4.329,4.329,4.329,4.329,4.329,4.329,4.329,4.329,4.329,4.329,4.329,4.329,4.329,4.329,4.329,4.329,4.329,4.329,4.329,4.2991,4.1728,4.1422,4.1055,3.9738,3.9388,3.9388,3.9388,3.9388,3.9388,3.9388,3.9388,3.9388,3.9388,3.9388,3.9388,3.9388,3.9388,3.9388,3.9388,3.9388,3.9388,3.9388,3.9388,3.9388,3.9388,4.0205,4.05,4.006,4.1642,4.2426,4.1965,4.2769,4.3061,4.2614,4.2614,4.2614,4.2614,4.2614,4.2157,4.1313,4.1313,4.108,3.125,3.3302,3.5557,3.755,4.0219,0.0,4.3315,4.5296,4.68,4.6262,4.6681,4.71,0.0,0.0,0.0,0.0,0.0,0.0,0.0,0.0,0.0,0.0,0.0,0.0,0.0,0.0,0.0,0.0,0.0,0.0,4.3319,4.329,4.329,4.329,4.329,4.321,4.3036,4.321,4.321,4.3036,4.321,4.329,4.329,4.329,4.329,4.329,4.329,4.329,4.329,4.329,4.329,4.329,4.329,4.329,4.329,4.329,4.329,4.329,4.329,4.329,4.329,4.329,4.329,4.329,4.329,4.329,4.329,4.329,4.329,4.3021,4.1863,4.1587,4.125,4.0053,3.9768,3.9694,3.9433,3.9388,3.9388,3.9388,3.9388,3.9454,3.9574,3.9553,3.9553,3.9553,3.9553,3.9544,3.9388,3.9388,3.9445,3.961,3.9481,3.9517,3.9809,4.05,4.0912,4.0912,4.2552,4.3472,4.3306,4.4138,4.4253,4.3532,4.3532,4.3532,4.3532,4.3532,4.3078,4.2221,4.2221,4.2125,2.9063,3.1352,3.4188,3.7313,3.9577,4.1469,0.0,0.0,4.5544,0.0,4.5978,0.0,0.0,0.0,0.0,0.0,0.0,0.0,0.0,0.0,0.0,0.0,0.0,0.0,0.0,0.0,0.0,0.0,0.0,0.0,4.329,4.329,4.329,4.329,4.329,4.282,4.185,4.2805,4.2805,4.185,4.282,4.329,4.329,4.329,4.329,4.329,4.329,4.329,4.329,4.329,4.329,4.329,4.329,4.329,4.329,4.329,4.329,4.329,4.329,4.329,4.329,4.329,4.329,4.329,4.329,4.329,4.329,4.329,4.329,4.3125,4.247,4.2276,4.2081,4.1294,4.1115,4.0801,3.9664,3.9388,3.9388,3.9388,3.9388,3.9568,4.0172,4.0277,4.0277,4.0277,4.0277,4.0068,3.9448,3.9388,3.9702,4.0432,3.9864,3.999,4.1511,4.1772,4.1836,4.1836,4.3469,4.4093,4.3336,4.4138,4.4542,4.4412,4.4412,4.4412,4.4412,4.4412,4.3977,4.3139,4.3139,4.2707,2.9633,3.1424,3.3323,3.6383,3.8732,4.0713,4.2132,4.3934,4.5185,4.4825,0.0,0.0,0.0,0.0,0.0,0.0,0.0,0.0,0.0,0.0,0.0,0.0,0.0,0.0,0.0,0.0,0.0,0.0,0.0,4.329,4.329,4.329,4.329,4.329,4.329,4.3076,4.2548,4.3036,4.3036,4.2548,4.3076,4.329,4.329,4.329,4.329,4.329,4.329,4.329,4.329,4.329,4.329,4.329,4.329,4.329,4.329,4.329,4.329,4.329,4.329,4.329,4.329,4.329,4.329,4.329,4.329,4.329,4.329,4.329,4.329,4.314,4.2575,4.2396,4.2231,4.1572,4.1422,4.122,4.0651,4.0516,4.0516,4.0516,4.0516,4.0487,4.0412,4.0711,4.1024,4.1147,4.1173,4.1229,4.1432,4.1093,4.0995,4.1379,4.0638,4.0638,4.1901,4.1997,4.2221,4.2707,4.3902,4.4412,4.4035,4.4384,4.4615,4.4615,4.4615,4.4615,4.4615,4.4615,4.4412,4.4035,4.4035,4.3827,2.971,3.106,3.2273,3.5067,3.7532,3.9657,0.0,0.0,4.4451,0.0,0.0,0.0,0.0,0.0,0.0,0.0,0.0,0.0,0.0,0.0,0.0,0.0,0.0,0.0,0.0,0.0,0.0,0.0,0.0,4.329,4.329,4.329,4.329,4.329,4.329,4.329,4.329,4.329,4.329,4.329,4.329,4.329,4.329,4.329,4.329,4.329,4.329,4.329,4.329,4.329,4.329,4.329,4.329,4.329,4.329,4.329,4.329,4.329,4.329,4.329,4.329,4.329,4.329,4.329,4.329,4.329,4.329,4.329,4.329,4.3185,4.2746,4.265,4.2491,4.1998,4.1878,4.1788,4.1444,4.1422,4.1422,4.1422,4.1422,4.128,4.095,4.1309,4.1806,4.2246,4.2291,4.245,4.3036,4.2606,4.2286,4.2348,4.1346,4.1247,4.2552,4.2252,4.2458,4.3562,4.4224,4.4615,4.4615,4.4615,4.4615,4.4615,4.4615,4.4615,4.4615,4.4615,4.4615,4.4615,4.4615,4.4615,2.7946,2.9076,0.0,3.3434,3.5764,3.7974,0.0,0.0,0.0,0.0,0.0,0.0,0.0,0.0,0.0,0.0,0.0,0.0,0.0,0.0,0.0,0.0,0.0,0.0,0.0,0.0,0.0,0.0,0.0,4.329,4.329,4.329,4.329,4.329,4.329,4.329,4.329,4.329,4.329,4.329,4.329,4.329,4.329,4.329,4.329,4.329,4.329,4.329,4.329,4.329,4.329,4.329,4.329,4.329,4.329,4.329,4.329,4.329,4.329,4.329,4.329,4.329,4.329,4.329,4.329,4.329,4.329,4.329,4.329,4.329,4.3245,4.3245,4.323,4.32,4.3185,4.2856,4.1654,4.1422,4.1422,4.1422,4.1422,4.1602,4.2186,4.2321,4.2651,4.354,4.3671,4.3548,4.3164,4.3088,4.3073,4.3221,4.1707,4.1723,4.4253,4.2953,4.2738,4.4412,4.457,4.4615,4.4615,4.4615,4.4615,4.4615,4.4615,4.4615,4.4615,4.4615,4.4615,4.4615,4.4615,4.4615,2.7469,0.0,0.0,3.1391,3.3501,3.5709,3.7971,3.998,4.1611,0.0,0.0,0.0,0.0,0.0,0.0,0.0,0.0,0.0,0.0,0.0,0.0,0.0,0.0,0.0,0.0,0.0,0.0,0.0,0.0,0.0,4.329,4.329,4.329,4.329,4.329,4.329,4.329,4.329,4.329,4.329,4.329,4.329,4.329,4.329,4.329,4.329,4.329,4.329,4.329,4.329,4.329,4.329,4.329,4.329,4.329,4.329,4.329,4.329,4.329,4.329,4.329,4.329,4.329,4.329,4.329,4.329,4.329,4.329,4.329,4.329,4.329,4.329,4.329,4.329,4.329,4.317,4.2731,4.2626,4.2626,4.2626,4.2626,4.2581,4.2425,4.2701,4.3372,4.4496,4.4661,4.4992,4.6048,4.577,4.5296,4.4897,4.3781,4.3491,4.4519,4.3515,4.3336,4.4514,4.4615,4.4615,4.4615,4.4615,4.4615,4.4615,4.4615,4.4615,4.4615,4.4615,4.4615,4.4615,4.4615,4.4615,2.704,2.7808,0.0,0.0,0.0,3.3486,3.609,0.0,0.0,0.0,0.0,0.0,0.0,0.0,0.0,0.0,0.0,0.0,0.0,0.0,0.0,0.0,0.0,0.0,0.0,0.0,0.0,0.0,0.0,0.0,4.329,4.329,4.329,4.329,4.329,4.329,4.329,4.329,4.329,4.329,4.329,4.329,4.329,4.329,4.329,4.329,4.329,4.329,4.329,4.329,4.329,4.329,4.329,4.329,4.329,4.329,4.329,4.329,4.329,4.329,4.329,4.329,4.329,4.329,4.329,4.329,4.329,4.329,4.329,4.329,4.329,4.329,4.329,4.329,4.329,4.329,4.329,4.329,4.329,4.329,4.329,4.3155,4.2761,4.3045,4.3822,4.5304,4.5485,4.6071,4.7676,4.7479,4.6786,4.5821,4.4927,4.4461,4.4609,4.3814,4.3651,4.4542,4.4615,4.4615,4.4615,4.4615,4.4615,4.4615,4.4615,4.4615,4.4615,4.4615,4.4615,4.4615,4.4615,4.4615,0.0,0.0,0.0,0.0,0.0,0.0,3.468,0.0,0.0,0.0,0.0,0.0,0.0,0.0,0.0,0.0,0.0,0.0,0.0,0.0,0.0,0.0,0.0,0.0,0.0,0.0,0.0,0.0,0.0,4.329,4.329,4.329,4.329,4.329,4.329,4.329,4.329,4.329,4.329,4.329,4.329,4.329,4.329,4.329,4.329,4.329,4.329,4.329,4.329,4.329,4.329,4.329,4.329,4.329,4.329,4.329,4.329,4.329,4.329,4.329,4.329,4.329,4.329,4.329,4.329,4.329,4.329,4.329,4.329,4.329,4.329,4.329,4.329,4.329,4.329,4.329,4.329,4.329,4.329,4.329,4.329,4.329,4.329,4.329,4.3974,4.5889,4.6208,4.6606,4.776,4.7922,4.7378,4.5889,4.496,4.4524,4.4609,4.3814,4.3697,4.4542,4.4615,4.4615,4.4615,4.4615,4.4615,4.4615,4.4615,4.4615,4.4615,4.4615,4.4615,4.4615,4.4615,4.4615,2.605,0.0,0.0,0.0,0.0,0.0,0.0,0.0,0.0,0.0,0.0,0.0,0.0,0.0,0.0,0.0,0.0,0.0,0.0,0.0,0.0,0.0,0.0,0.0,0.0,0.0,0.0,0.0,4.329,4.329,4.329,4.329,4.329,4.329,4.329,4.329,4.329,4.329,4.329,4.329,4.329,4.329,4.329,4.329,4.329,4.329,4.329,4.329,4.329,4.329,4.329,4.329,4.329,4.329,4.329,4.329,4.329,4.329,4.329,4.329,4.329,4.329,4.329,4.329,4.329,4.329,4.329,4.329,4.329,4.329,4.329,4.329,4.329,4.329,4.329,4.329,4.329,4.329,4.329,4.329,4.329,4.329,4.329,4.329,4.3974,4.5889,4.6208,4.6803,4.8481,4.8714,4.8139,4.665,4.6288,4.5736,4.4688,4.4384,4.4355,4.457,4.4615,4.4615,4.4615,4.4615,4.4615,4.4615,4.4615,4.4615,4.4615,4.4615,4.4615,4.4615,4.4615,4.4615,2.654,2.7118,0.0,0.0,0.0,0.0,0.0,3.1044,0.0,0.0,0.0,0.0,0.0,0.0,0.0,0.0,0.0,0.0,0.0,0.0,0.0,0.0,0.0,0.0,0.0,0.0,0.0,4.329,4.329,4.329,4.329,4.329,4.329,4.329,4.329,4.329,4.329,4.329,4.329,4.329,4.329,4.329,4.329,4.329,4.329,4.329,4.329,4.329,4.329,4.329,4.329,4.329,4.329,4.329,4.329,4.329,4.329,4.329,4.329,4.329,4.329,4.329,4.329,4.329,4.329,4.329,4.329,4.329,4.329,4.329,4.329,4.329,4.329,4.329,4.329,4.329,4.329,4.329,4.329,4.329,4.329,4.329,4.329,4.329,4.3974,4.5889,4.6208,4.6884,4.8767,4.8731,4.8105,4.6921,4.6515,4.5855,4.4699,4.4615,4.4615,4.4615,4.4615,4.4615,4.4615,4.4615,4.4615,4.4615,4.4615,4.4615,4.4615,4.4615,4.4615,4.4598,4.4224,4.4421,2.7507,2.8084,2.8762,2.865,2.8009,0.0,2.9729,3.0121,3.0903,0.0,0.0,0.0,0.0,0.0,0.0,0.0,0.0,0.0,0.0,0.0,0.0,0.0,0.0,0.0,4.329,4.329,4.329,4.329,4.329,4.329,4.329,4.329,4.329,4.329,4.329,4.329,4.329,4.329,4.329,4.329,4.329,4.329,4.329,4.329,4.329,4.329,4.329,4.329,4.329,4.329,4.329,4.329,4.329,4.329,4.329,4.329,4.329,4.329,4.329,4.329,4.329,4.329,4.329,4.329,4.329,4.329,4.329,4.329,4.329,4.329,4.329,4.329,4.329,4.329,4.329,4.329,4.329,4.329,4.329,4.329,4.329,4.329,4.329,4.329,4.3974,4.5889,4.6208,4.6884,4.8767,4.8376,4.7631,4.687,4.6143,4.5399,4.4666,4.4615,4.4615,4.4615,4.4615,4.4615,4.4615,4.4615,4.4615,4.4615,4.4615,4.4615,4.4615,4.4615,4.4615,4.457,4.3726,4.4105,2.7971,2.8109,2.8059,2.719,0.0,0.0,2.7404,2.7609,2.8346,0.0,0.0,0.0,0.0,0.0,0.0,0.0,0.0,0.0,0.0,0.0,0.0,0.0,0.0,0.0,4.329,4.329,4.329,4.329,4.329,4.329,4.329,4.329,4.329,4.329,4.329,4.329,4.329,4.329,4.329,4.329,4.329,4.329,4.329,4.329,4.329,4.329,4.329,4.329,4.329,4.329,4.329,4.329,4.329,4.329,4.329,4.329,4.329,4.329,4.329,4.329,4.329,4.329,4.329,4.329,4.329,4.329,4.329,4.329,4.329,4.329,4.329,4.329,4.329,4.329,4.329,4.329,4.329,4.329,4.329,4.329,4.329,4.329,4.329,4.329,4.3974,4.5889,4.6208,4.6884,4.8767,4.8376,4.7631,4.687,4.6143,4.5399,4.4666,4.4615,4.4615,4.4615,4.4615,4.4615,4.4615,4.4615,4.4615,4.4615,4.4615,4.4615,4.4615,4.4615,4.4615,4.457,4.3726,4.3822,2.8662,2.8725,2.875,2.7908,0.0,0.0,0.0,0.0,0.0,0.0,0.0,0.0,0.0,0.0,0.0,0.0,0.0,0.0,0.0,0.0,0.0,0.0,0.0,0.0,4.1983,4.1773,4.1823,4.2412,4.2981,4.329,4.329,4.329,4.329,4.329,4.329,4.329,4.329,4.329,4.329,4.329,4.329,4.329,4.329,4.329,4.329,4.329,4.329,4.329,4.329,4.329,4.329,4.329,4.329,4.329,4.329,4.329,4.329,4.329,4.329,4.329,4.329,4.329,4.329,4.329,4.329,4.329,4.329,4.329,4.329,4.329,4.329,4.329,4.329,4.329,4.329,4.329,4.329,4.329,4.329,4.329,4.329,4.329,4.329,4.329,4.3974,4.5889,4.6208,4.6754,4.8262,4.7817,4.7073,4.6329,4.5585,4.4993,4.4632,4.4615,4.4615,4.4615,4.4615,4.4615,4.4615,4.4615,4.4615,4.4615,4.4615,4.4615,4.4615,4.4615,4.4615,4.457,4.3726,4.4168,0.0,0.0,0.0,0.0,0.0,2.8076,0.0,0.0,0.0,0.0,0.0,0.0,0.0,0.0,0.0,0.0,0.0,0.0,0.0,0.0,0.0,0.0,0.0,0.0,0.0,3.9915,4.0011,4.1011,4.2078,4.2709,4.2788,4.3135,4.329,4.329,4.329,4.329,4.329,4.329,4.329,4.329,4.329,4.329,4.329,4.329,4.329,4.329,4.329,4.329,4.329,4.329,4.329,4.329,4.329,4.329,4.329,4.329,4.329,4.329,4.329,4.329,4.329,4.329,4.329,4.329,4.329,4.329,4.329,4.329,4.329,4.329,4.329,4.329,4.329,4.329,4.329,4.329,4.329,4.329,4.329,4.329,4.329,4.329,4.329,4.329,4.3974,4.5889,4.6061,4.6493,4.7942,4.7225,4.6413,4.5957,4.5111,4.4615,4.4615,4.4615,4.4615,4.4615,4.4615,4.4615,4.4615,4.4615,4.4615,4.4615,4.475,4.4818,4.4818,4.4953,4.4953,4.479,4.3776,4.4567,0.0,0.0,0.0,0.0,2.8246,0.0,0.0,0.0,0.0,0.0,0.0,0.0,0.0,0.0,0.0,0.0,0.0,0.0,0.0,0.0,0.0,0.0,0.0,0.0,0.0,3.8699,3.8644,3.927,3.9991,4.0589,4.1076,4.2495,4.329,4.329,4.329,4.329,4.329,4.329,4.329,4.329,4.329,4.329,4.329,4.329,4.329,4.329,4.329,4.329,4.329,4.329,4.329,4.329,4.329,4.329,4.329,4.329,4.329,4.329,4.329,4.329,4.329,4.329,4.329,4.329,4.329,4.329,4.329,4.329,4.329,4.329,4.329,4.329,4.329,4.329,4.329,4.329,4.329,4.329,4.329,4.329,4.329,4.329,4.329,4.329,4.3974,4.5889,4.5626,4.6119,4.8565,4.709,4.6041,4.6599,4.5444,4.4615,4.4615,4.4615,4.4615,4.4615,4.4615,4.4615,4.4615,4.4615,4.4615,4.4615,4.5229,4.5585,4.5585,4.6227,4.621,4.5539,4.4025,4.4567,0.0,0.0,0.0,0.0,0.0,0.0,2.6372,0.0,2.5481,0.0,0.0,0.0,0.0,0.0,0.0,0.0,0.0,0.0,0.0,0.0,0.0,0.0,0.0,0.0,0.0,0.0,0.0,0.0,3.8116,3.9187,4.0729,4.1452,4.2301,4.3275,4.329,4.329,4.329,4.329,4.329,4.329,4.329,4.329,4.329,4.329,4.329,4.329,4.329,4.329,4.329,4.329,4.329,4.329,4.329,4.329,4.329,4.329,4.329,4.329,4.329,4.329,4.329,4.329,4.329,4.329,4.329,4.329,4.329,4.329,4.329,4.329,4.329,4.329,4.329,4.329,4.329,4.329,4.329,4.329,4.329,4.329,4.329,4.329,4.329,4.329,4.3974,4.5889,4.5933,4.6379,4.8144,4.7192,4.6295,4.6177,4.5213,4.4615,4.4615,4.4615,4.4615,4.4615,4.4615,4.4615,4.4615,4.4615,4.4818,4.5229,4.5551,4.5906,4.6346,4.665,4.6853,4.6942,4.5853,4.6102,3.0382,0.0,0.0,0.0,0.0,0.0,0.0,0.0,0.0,0.0,0.0,0.0,0.0,0.0,0.0,0.0,0.0,0.0,0.0,0.0,0.0,0.0,0.0,0.0,0.0,0.0,0.0,0.0,0.0,3.73,3.9263,4.0287,4.1368,4.2579,4.3066,4.329,4.329,4.329,4.329,4.329,4.329,4.329,4.329,4.329,4.329,4.329,4.329,4.329,4.329,4.329,4.329,4.329,4.329,4.329,4.329,4.329,4.329,4.329,4.329,4.329,4.329,4.329,4.3409,4.3559,4.3559,4.3678,4.3828,4.3828,4.3828,4.3828,4.3828,4.3693,4.3559,4.3559,4.3424,4.329,4.329,4.329,4.329,4.329,4.329,4.3409,4.3669,4.3693,4.4266,4.5961,4.6258,4.673,4.8057,4.7208,4.6363,4.6041,4.5145,4.4615,4.4615,4.4615,4.4615,4.4615,4.4615,4.4699,4.4874,4.4919,4.5246,4.5991,4.621,4.6583,4.7107,4.7293,4.7682,4.8189,4.7242,4.7293,0.0,0.0,0.0,2.9302,0.0,0.0,0.0,0.0,2.4995,0.0,0.0,0.0,0.0,0.0,0.0,0.0,0.0,0.0,0.0,0.0,0.0,0.0,0.0,0.0,0.0,0.0,0.0,0.0,0.0,0.0,3.5732,3.8988,4.0828,4.0897,4.244,4.329,4.329,4.329,4.329,4.329,4.329,4.329,4.329,4.329,4.329,4.329,4.329,4.329,4.329,4.329,4.329,4.329,4.329,4.329,4.329,4.329,4.329,4.329,4.329,4.329,4.329,4.329,4.3723,4.4287,4.4287,4.4721,4.5229,4.5229,4.5229,4.5229,4.5229,4.4751,4.4287,4.4287,4.3753,4.329,4.329,4.329,4.329,4.329,4.329,4.3591,4.4586,4.4737,4.5079,4.6032,4.6383,4.709,4.8742,4.7073,4.6007,4.6684,4.5478,4.4615,4.4615,4.4615,4.4615,4.4615,4.4615,4.4936,4.5652,4.5669,4.6007,4.6735,4.7479,4.7821,4.7855,4.8595,4.8951,4.8934,4.7479,4.7581,0.0,0.0,3.1537,2.9905,0.0,0.0,0.0,0.0,0.0,0.0,0.0,0.0,0.0,0.0,0.0,0.0,0.0,0.0,0.0,0.0,0.0,0.0,0.0,0.0,0.0,0.0,0.0,0.0,3.197,0.0,0.0,3.6914,3.8839,4.0732,4.1695,4.2548,4.329,4.329,4.329,4.329,4.329,4.329,4.329,4.329,4.329,4.329,4.329,4.329,4.329,4.329,4.329,4.329,4.329,4.329,4.329,4.329,4.329,4.3349,4.3798,4.4272,4.4631,4.4631,4.4781,4.496,4.496,4.5125,4.5289,4.5289,4.5289,4.5289,4.5289,4.5125,4.4855,4.4421,4.4152,4.3828,4.3394,4.329,4.329,4.329,4.329,4.3409,4.3732,4.4878,4.6048,4.6986,4.7176,4.7668,4.8844,4.7936,4.7073,4.6819,4.5923,4.5128,4.4649,4.4615,4.4818,4.5297,4.5331,4.5652,4.6397,4.643,4.6769,4.7513,4.7753,4.8125,4.8646,4.8883,4.9001,4.8984,4.8494,4.8528,3.1989,3.2102,0.0,3.0909,3.0032,0.0,2.7325,0.0,0.0,0.0,0.0,0.0,0.0,0.0,0.0,0.0,0.0,0.0,0.0,0.0,0.0,0.0,0.0,0.0,0.0,0.0,2.9967,3.057,3.0557,0.0,0.0,0.0,3.7757,3.979,4.1401,4.2548,4.329,4.329,4.329,4.329,4.329,4.329,4.329,4.329,4.329,4.329,4.329,4.329,4.329,4.329,4.329,4.329,4.329,4.3439,4.3648,4.3648,4.3798,4.4092,4.4511,4.4945,4.5289,4.5289,4.5469,4.5663,4.5663,4.5828,4.6007,4.6007,4.6007,4.6007,4.6007,4.5828,4.5559,4.5125,4.4661,4.4197,4.3738,4.3454,4.329,4.329,4.329,4.3409,4.3771,4.5159,4.64,4.702,4.7655,4.8338,4.8923,4.8376,4.7733,4.7242,4.6312,4.5399,4.4666,4.4852,4.5179,4.5669,4.5957,4.6413,4.7158,4.7192,4.7547,4.8291,4.8308,4.8545,4.9001,4.9001,4.9001,4.9001,4.9001,4.9001]}]]